<?xml version="1.0" encoding="UTF-8" standalone="no" ?>
<gpx xmlns="http://www.topografix.com/GPX/1/1" xmlns:xsi="http://www.w3.org/2001/XMLSchema-instance" xsi:schemaLocation="http://www.topografix.com/GPX/1/1 http://www.topografix.com/GPX/1/1/gpx.xsd" version="1.1" creator="VisuGPX - https://www.visugpx.com">
  <metadata>
    <name>Boucle St Pierre - Botozel </name>
    <desc><![CDATA[Petite balade entre Yenne et Mont Tournier ]]></desc>
  </metadata>
  <trk>
    <name><![CDATA[SityTrail - 2019 03 24]]></name>
    <trkseg>
      <trkpt lat="45.62639" lon="5.72672">
        <ele>658</ele>
        <time>2019-03-24T13:15:44.023Z</time>
      </trkpt>
      <trkpt lat="45.62632" lon="5.72657">
        <ele>658</ele>
        <time>2019-03-24T13:16:14.516Z</time>
      </trkpt>
      <trkpt lat="45.62634" lon="5.72647">
        <ele>662</ele>
        <time>2019-03-24T13:16:29.507Z</time>
      </trkpt>
      <trkpt lat="45.62636" lon="5.72641">
        <ele>662</ele>
        <time>2019-03-24T13:16:33.514Z</time>
      </trkpt>
      <trkpt lat="45.62639" lon="5.72636">
        <ele>662</ele>
        <time>2019-03-24T13:16:38.518Z</time>
      </trkpt>
      <trkpt lat="45.62643" lon="5.72633">
        <ele>662</ele>
        <time>2019-03-24T13:16:43.512Z</time>
      </trkpt>
      <trkpt lat="45.62646" lon="5.72632">
        <ele>662</ele>
        <time>2019-03-24T13:17:02.514Z</time>
      </trkpt>
      <trkpt lat="45.62648" lon="5.72629">
        <ele>662</ele>
        <time>2019-03-24T13:17:06.522Z</time>
      </trkpt>
      <trkpt lat="45.62649" lon="5.72629">
        <ele>662</ele>
        <time>2019-03-24T13:17:11.559Z</time>
      </trkpt>
      <trkpt lat="45.62651" lon="5.72622">
        <ele>668</ele>
        <time>2019-03-24T13:17:16.535Z</time>
      </trkpt>
      <trkpt lat="45.6265" lon="5.72619">
        <ele>668</ele>
        <time>2019-03-24T13:17:21.517Z</time>
      </trkpt>
      <trkpt lat="45.62645" lon="5.72618">
        <ele>668</ele>
        <time>2019-03-24T13:17:26.564Z</time>
      </trkpt>
      <trkpt lat="45.62639" lon="5.72619">
        <ele>668</ele>
        <time>2019-03-24T13:17:31.547Z</time>
      </trkpt>
      <trkpt lat="45.62631" lon="5.72619">
        <ele>668</ele>
        <time>2019-03-24T13:17:36.517Z</time>
      </trkpt>
      <trkpt lat="45.62624" lon="5.7262">
        <ele>670</ele>
        <time>2019-03-24T13:17:41.514Z</time>
      </trkpt>
      <trkpt lat="45.62618" lon="5.72621">
        <ele>670</ele>
        <time>2019-03-24T13:17:45.520Z</time>
      </trkpt>
      <trkpt lat="45.62612" lon="5.72623">
        <ele>670</ele>
        <time>2019-03-24T13:17:50.522Z</time>
      </trkpt>
      <trkpt lat="45.62606" lon="5.72624">
        <ele>670</ele>
        <time>2019-03-24T13:17:55.535Z</time>
      </trkpt>
      <trkpt lat="45.62599" lon="5.72623">
        <ele>670</ele>
        <time>2019-03-24T13:18:00.510Z</time>
      </trkpt>
      <trkpt lat="45.62595" lon="5.72623">
        <ele>672</ele>
        <time>2019-03-24T13:18:04.519Z</time>
      </trkpt>
      <trkpt lat="45.62591" lon="5.72623">
        <ele>672</ele>
        <time>2019-03-24T13:18:08.519Z</time>
      </trkpt>
      <trkpt lat="45.62585" lon="5.72624">
        <ele>672</ele>
        <time>2019-03-24T13:18:13.512Z</time>
      </trkpt>
      <trkpt lat="45.62578" lon="5.72625">
        <ele>665</ele>
        <time>2019-03-24T13:18:18.515Z</time>
      </trkpt>
      <trkpt lat="45.62572" lon="5.72626">
        <ele>665</ele>
        <time>2019-03-24T13:18:23.515Z</time>
      </trkpt>
      <trkpt lat="45.62566" lon="5.72626">
        <ele>667</ele>
        <time>2019-03-24T13:18:28.512Z</time>
      </trkpt>
      <trkpt lat="45.62561" lon="5.72628">
        <ele>667</ele>
        <time>2019-03-24T13:18:32.518Z</time>
      </trkpt>
      <trkpt lat="45.62556" lon="5.72632">
        <ele>667</ele>
        <time>2019-03-24T13:18:36.525Z</time>
      </trkpt>
      <trkpt lat="45.62551" lon="5.72632">
        <ele>667</ele>
        <time>2019-03-24T13:18:41.530Z</time>
      </trkpt>
      <trkpt lat="45.62548" lon="5.72627">
        <ele>667</ele>
        <time>2019-03-24T13:18:46.536Z</time>
      </trkpt>
      <trkpt lat="45.62549" lon="5.72625">
        <ele>675</ele>
        <time>2019-03-24T13:18:51.524Z</time>
      </trkpt>
      <trkpt lat="45.62553" lon="5.72622">
        <ele>675</ele>
        <time>2019-03-24T13:18:56.524Z</time>
      </trkpt>
      <trkpt lat="45.62559" lon="5.72619">
        <ele>675</ele>
        <time>2019-03-24T13:19:01.542Z</time>
      </trkpt>
      <trkpt lat="45.62569" lon="5.72617">
        <ele>675</ele>
        <time>2019-03-24T13:20:00.488Z</time>
      </trkpt>
      <trkpt lat="45.6257" lon="5.72616">
        <ele>672</ele>
        <time>2019-03-24T13:20:05.488Z</time>
      </trkpt>
      <trkpt lat="45.62573" lon="5.72613">
        <ele>672</ele>
        <time>2019-03-24T13:20:10.492Z</time>
      </trkpt>
      <trkpt lat="45.62575" lon="5.7261">
        <ele>672</ele>
        <time>2019-03-24T13:20:14.530Z</time>
      </trkpt>
      <trkpt lat="45.62576" lon="5.72605">
        <ele>672</ele>
        <time>2019-03-24T13:20:18.538Z</time>
      </trkpt>
      <trkpt lat="45.62583" lon="5.726">
        <ele>672</ele>
        <time>2019-03-24T13:20:23.507Z</time>
      </trkpt>
      <trkpt lat="45.62597" lon="5.72596">
        <ele>680</ele>
        <time>2019-03-24T13:20:28.525Z</time>
      </trkpt>
      <trkpt lat="45.62606" lon="5.72591">
        <ele>677</ele>
        <time>2019-03-24T13:20:33.509Z</time>
      </trkpt>
      <trkpt lat="45.62611" lon="5.72585">
        <ele>677</ele>
        <time>2019-03-24T13:20:37.514Z</time>
      </trkpt>
      <trkpt lat="45.62623" lon="5.72574">
        <ele>677</ele>
        <time>2019-03-24T13:20:42.561Z</time>
      </trkpt>
      <trkpt lat="45.62628" lon="5.72571">
        <ele>673</ele>
        <time>2019-03-24T13:20:47.562Z</time>
      </trkpt>
      <trkpt lat="45.62634" lon="5.72567">
        <ele>680</ele>
        <time>2019-03-24T13:20:52.525Z</time>
      </trkpt>
      <trkpt lat="45.62643" lon="5.7256">
        <ele>680</ele>
        <time>2019-03-24T13:20:57.509Z</time>
      </trkpt>
      <trkpt lat="45.62647" lon="5.72557">
        <ele>680</ele>
        <time>2019-03-24T13:21:01.523Z</time>
      </trkpt>
      <trkpt lat="45.62649" lon="5.72554">
        <ele>680</ele>
        <time>2019-03-24T13:21:05.540Z</time>
      </trkpt>
      <trkpt lat="45.62654" lon="5.72546">
        <ele>677</ele>
        <time>2019-03-24T13:21:10.519Z</time>
      </trkpt>
      <trkpt lat="45.62657" lon="5.72541">
        <ele>685</ele>
        <time>2019-03-24T13:21:15.511Z</time>
      </trkpt>
      <trkpt lat="45.62658" lon="5.72538">
        <ele>685</ele>
        <time>2019-03-24T13:21:19.548Z</time>
      </trkpt>
      <trkpt lat="45.62662" lon="5.72532">
        <ele>685</ele>
        <time>2019-03-24T13:21:24.518Z</time>
      </trkpt>
      <trkpt lat="45.62666" lon="5.7253">
        <ele>685</ele>
        <time>2019-03-24T13:21:29.512Z</time>
      </trkpt>
      <trkpt lat="45.62674" lon="5.72524">
        <ele>685</ele>
        <time>2019-03-24T13:21:34.529Z</time>
      </trkpt>
      <trkpt lat="45.62689" lon="5.7252">
        <ele>682</ele>
        <time>2019-03-24T13:21:39.515Z</time>
      </trkpt>
      <trkpt lat="45.62695" lon="5.72516">
        <ele>682</ele>
        <time>2019-03-24T13:21:44.541Z</time>
      </trkpt>
      <trkpt lat="45.62699" lon="5.7251">
        <ele>688</ele>
        <time>2019-03-24T13:21:49.511Z</time>
      </trkpt>
      <trkpt lat="45.62703" lon="5.72505">
        <ele>688</ele>
        <time>2019-03-24T13:21:54.511Z</time>
      </trkpt>
      <trkpt lat="45.62707" lon="5.725">
        <ele>688</ele>
        <time>2019-03-24T13:21:59.514Z</time>
      </trkpt>
      <trkpt lat="45.62711" lon="5.72496">
        <ele>684</ele>
        <time>2019-03-24T13:22:04.513Z</time>
      </trkpt>
      <trkpt lat="45.62718" lon="5.72493">
        <ele>684</ele>
        <time>2019-03-24T13:22:09.526Z</time>
      </trkpt>
      <trkpt lat="45.62724" lon="5.7249">
        <ele>684</ele>
        <time>2019-03-24T13:22:14.503Z</time>
      </trkpt>
      <trkpt lat="45.62729" lon="5.72486">
        <ele>684</ele>
        <time>2019-03-24T13:22:19.507Z</time>
      </trkpt>
      <trkpt lat="45.62734" lon="5.72483">
        <ele>689</ele>
        <time>2019-03-24T13:22:24.527Z</time>
      </trkpt>
      <trkpt lat="45.62738" lon="5.72479">
        <ele>685</ele>
        <time>2019-03-24T13:22:29.506Z</time>
      </trkpt>
      <trkpt lat="45.62743" lon="5.72474">
        <ele>685</ele>
        <time>2019-03-24T13:22:34.506Z</time>
      </trkpt>
      <trkpt lat="45.62749" lon="5.72469">
        <ele>685</ele>
        <time>2019-03-24T13:22:39.499Z</time>
      </trkpt>
      <trkpt lat="45.62751" lon="5.72466">
        <ele>685</ele>
        <time>2019-03-24T13:22:44.509Z</time>
      </trkpt>
      <trkpt lat="45.62758" lon="5.72462">
        <ele>685</ele>
        <time>2019-03-24T13:22:48.525Z</time>
      </trkpt>
      <trkpt lat="45.62766" lon="5.72461">
        <ele>684</ele>
        <time>2019-03-24T13:22:53.508Z</time>
      </trkpt>
      <trkpt lat="45.62772" lon="5.72459">
        <ele>684</ele>
        <time>2019-03-24T13:22:58.499Z</time>
      </trkpt>
      <trkpt lat="45.62777" lon="5.72454">
        <ele>689</ele>
        <time>2019-03-24T13:23:02.516Z</time>
      </trkpt>
      <trkpt lat="45.62782" lon="5.72452">
        <ele>689</ele>
        <time>2019-03-24T13:23:07.506Z</time>
      </trkpt>
      <trkpt lat="45.62789" lon="5.72449">
        <ele>689</ele>
        <time>2019-03-24T13:23:12.512Z</time>
      </trkpt>
      <trkpt lat="45.628" lon="5.72443">
        <ele>689</ele>
        <time>2019-03-24T13:23:17.506Z</time>
      </trkpt>
      <trkpt lat="45.62807" lon="5.7244">
        <ele>689</ele>
        <time>2019-03-24T13:23:22.520Z</time>
      </trkpt>
      <trkpt lat="45.6282" lon="5.72438">
        <ele>688</ele>
        <time>2019-03-24T13:23:27.495Z</time>
      </trkpt>
      <trkpt lat="45.62828" lon="5.72436">
        <ele>688</ele>
        <time>2019-03-24T13:23:32.507Z</time>
      </trkpt>
      <trkpt lat="45.62832" lon="5.7243">
        <ele>692</ele>
        <time>2019-03-24T13:23:37.496Z</time>
      </trkpt>
      <trkpt lat="45.62838" lon="5.72425">
        <ele>692</ele>
        <time>2019-03-24T13:23:42.503Z</time>
      </trkpt>
      <trkpt lat="45.62843" lon="5.7242">
        <ele>692</ele>
        <time>2019-03-24T13:23:46.533Z</time>
      </trkpt>
      <trkpt lat="45.62847" lon="5.72413">
        <ele>689</ele>
        <time>2019-03-24T13:23:51.503Z</time>
      </trkpt>
      <trkpt lat="45.62854" lon="5.72405">
        <ele>689</ele>
        <time>2019-03-24T13:23:56.501Z</time>
      </trkpt>
      <trkpt lat="45.62859" lon="5.72393">
        <ele>693</ele>
        <time>2019-03-24T13:24:01.499Z</time>
      </trkpt>
      <trkpt lat="45.62864" lon="5.72382">
        <ele>693</ele>
        <time>2019-03-24T13:24:05.535Z</time>
      </trkpt>
      <trkpt lat="45.62868" lon="5.72373">
        <ele>696</ele>
        <time>2019-03-24T13:24:10.526Z</time>
      </trkpt>
      <trkpt lat="45.62871" lon="5.72368">
        <ele>696</ele>
        <time>2019-03-24T13:24:15.509Z</time>
      </trkpt>
      <trkpt lat="45.62871" lon="5.72368">
        <ele>696</ele>
        <time>2019-03-24T13:24:20.539Z</time>
      </trkpt>
      <trkpt lat="45.62872" lon="5.72369">
        <ele>696</ele>
        <time>2019-03-24T13:24:25.501Z</time>
      </trkpt>
      <trkpt lat="45.62875" lon="5.72367">
        <ele>695</ele>
        <time>2019-03-24T13:24:29.512Z</time>
      </trkpt>
      <trkpt lat="45.6288" lon="5.72361">
        <ele>695</ele>
        <time>2019-03-24T13:24:34.499Z</time>
      </trkpt>
      <trkpt lat="45.62884" lon="5.72353">
        <ele>695</ele>
        <time>2019-03-24T13:24:39.497Z</time>
      </trkpt>
      <trkpt lat="45.62888" lon="5.72347">
        <ele>697</ele>
        <time>2019-03-24T13:24:44.529Z</time>
      </trkpt>
      <trkpt lat="45.62892" lon="5.7234">
        <ele>697</ele>
        <time>2019-03-24T13:24:49.534Z</time>
      </trkpt>
      <trkpt lat="45.62897" lon="5.72332">
        <ele>697</ele>
        <time>2019-03-24T13:24:54.520Z</time>
      </trkpt>
      <trkpt lat="45.62903" lon="5.72318">
        <ele>697</ele>
        <time>2019-03-24T13:24:59.531Z</time>
      </trkpt>
      <trkpt lat="45.62909" lon="5.72306">
        <ele>696</ele>
        <time>2019-03-24T13:25:04.498Z</time>
      </trkpt>
      <trkpt lat="45.62914" lon="5.72301">
        <ele>696</ele>
        <time>2019-03-24T13:25:09.495Z</time>
      </trkpt>
      <trkpt lat="45.62917" lon="5.72294">
        <ele>696</ele>
        <time>2019-03-24T13:25:13.497Z</time>
      </trkpt>
      <trkpt lat="45.6292" lon="5.72286">
        <ele>697</ele>
        <time>2019-03-24T13:25:17.510Z</time>
      </trkpt>
      <trkpt lat="45.62922" lon="5.7228">
        <ele>697</ele>
        <time>2019-03-24T13:25:22.521Z</time>
      </trkpt>
      <trkpt lat="45.62923" lon="5.72272">
        <ele>697</ele>
        <time>2019-03-24T13:25:27.519Z</time>
      </trkpt>
      <trkpt lat="45.62924" lon="5.72264">
        <ele>697</ele>
        <time>2019-03-24T13:25:32.506Z</time>
      </trkpt>
      <trkpt lat="45.62925" lon="5.72252">
        <ele>699</ele>
        <time>2019-03-24T13:25:37.500Z</time>
      </trkpt>
      <trkpt lat="45.62928" lon="5.72241">
        <ele>699</ele>
        <time>2019-03-24T13:25:41.530Z</time>
      </trkpt>
      <trkpt lat="45.62931" lon="5.7223">
        <ele>700</ele>
        <time>2019-03-24T13:25:46.509Z</time>
      </trkpt>
      <trkpt lat="45.62934" lon="5.72225">
        <ele>700</ele>
        <time>2019-03-24T13:25:51.512Z</time>
      </trkpt>
      <trkpt lat="45.62939" lon="5.72218">
        <ele>700</ele>
        <time>2019-03-24T13:25:56.496Z</time>
      </trkpt>
      <trkpt lat="45.62943" lon="5.72211">
        <ele>700</ele>
        <time>2019-03-24T13:26:01.524Z</time>
      </trkpt>
      <trkpt lat="45.62947" lon="5.72203">
        <ele>703</ele>
        <time>2019-03-24T13:26:06.512Z</time>
      </trkpt>
      <trkpt lat="45.62949" lon="5.72196">
        <ele>703</ele>
        <time>2019-03-24T13:26:10.510Z</time>
      </trkpt>
      <trkpt lat="45.62952" lon="5.72189">
        <ele>703</ele>
        <time>2019-03-24T13:26:15.497Z</time>
      </trkpt>
      <trkpt lat="45.62955" lon="5.72183">
        <ele>703</ele>
        <time>2019-03-24T13:26:19.516Z</time>
      </trkpt>
      <trkpt lat="45.62961" lon="5.72178">
        <ele>706</ele>
        <time>2019-03-24T13:26:24.495Z</time>
      </trkpt>
      <trkpt lat="45.62965" lon="5.72174">
        <ele>706</ele>
        <time>2019-03-24T13:26:28.498Z</time>
      </trkpt>
      <trkpt lat="45.62971" lon="5.72169">
        <ele>706</ele>
        <time>2019-03-24T13:26:33.497Z</time>
      </trkpt>
      <trkpt lat="45.62978" lon="5.7216">
        <ele>706</ele>
        <time>2019-03-24T13:26:38.504Z</time>
      </trkpt>
      <trkpt lat="45.62983" lon="5.72153">
        <ele>710</ele>
        <time>2019-03-24T13:26:43.497Z</time>
      </trkpt>
      <trkpt lat="45.62987" lon="5.72147">
        <ele>710</ele>
        <time>2019-03-24T13:26:47.506Z</time>
      </trkpt>
      <trkpt lat="45.6299" lon="5.72143">
        <ele>710</ele>
        <time>2019-03-24T13:26:51.518Z</time>
      </trkpt>
      <trkpt lat="45.62996" lon="5.72135">
        <ele>710</ele>
        <time>2019-03-24T13:26:56.505Z</time>
      </trkpt>
      <trkpt lat="45.63002" lon="5.72124">
        <ele>713</ele>
        <time>2019-03-24T13:27:01.519Z</time>
      </trkpt>
      <trkpt lat="45.63008" lon="5.72116">
        <ele>713</ele>
        <time>2019-03-24T13:27:06.504Z</time>
      </trkpt>
      <trkpt lat="45.63012" lon="5.72111">
        <ele>713</ele>
        <time>2019-03-24T13:27:10.535Z</time>
      </trkpt>
      <trkpt lat="45.63017" lon="5.72103">
        <ele>714</ele>
        <time>2019-03-24T13:27:15.496Z</time>
      </trkpt>
      <trkpt lat="45.63021" lon="5.72093">
        <ele>717</ele>
        <time>2019-03-24T13:27:19.510Z</time>
      </trkpt>
      <trkpt lat="45.63025" lon="5.72086">
        <ele>717</ele>
        <time>2019-03-24T13:27:24.500Z</time>
      </trkpt>
      <trkpt lat="45.63028" lon="5.72084">
        <ele>717</ele>
        <time>2019-03-24T13:27:28.519Z</time>
      </trkpt>
      <trkpt lat="45.63034" lon="5.72077">
        <ele>717</ele>
        <time>2019-03-24T13:27:33.499Z</time>
      </trkpt>
      <trkpt lat="45.63037" lon="5.72072">
        <ele>717</ele>
        <time>2019-03-24T13:27:38.505Z</time>
      </trkpt>
      <trkpt lat="45.63043" lon="5.72067">
        <ele>722</ele>
        <time>2019-03-24T13:27:43.492Z</time>
      </trkpt>
      <trkpt lat="45.63048" lon="5.72065">
        <ele>722</ele>
        <time>2019-03-24T13:27:48.505Z</time>
      </trkpt>
      <trkpt lat="45.63054" lon="5.72061">
        <ele>722</ele>
        <time>2019-03-24T13:27:52.517Z</time>
      </trkpt>
      <trkpt lat="45.63059" lon="5.72056">
        <ele>722</ele>
        <time>2019-03-24T13:27:57.511Z</time>
      </trkpt>
      <trkpt lat="45.63064" lon="5.72051">
        <ele>722</ele>
        <time>2019-03-24T13:28:02.526Z</time>
      </trkpt>
      <trkpt lat="45.63066" lon="5.72049">
        <ele>722</ele>
        <time>2019-03-24T13:28:07.515Z</time>
      </trkpt>
      <trkpt lat="45.63069" lon="5.72045">
        <ele>722</ele>
        <time>2019-03-24T13:28:12.536Z</time>
      </trkpt>
      <trkpt lat="45.63077" lon="5.72042">
        <ele>723</ele>
        <time>2019-03-24T13:28:17.501Z</time>
      </trkpt>
      <trkpt lat="45.63088" lon="5.72041">
        <ele>727</ele>
        <time>2019-03-24T13:28:22.510Z</time>
      </trkpt>
      <trkpt lat="45.63095" lon="5.72042">
        <ele>723</ele>
        <time>2019-03-24T13:28:26.522Z</time>
      </trkpt>
      <trkpt lat="45.63097" lon="5.72042">
        <ele>723</ele>
        <time>2019-03-24T13:28:31.497Z</time>
      </trkpt>
      <trkpt lat="45.631" lon="5.72041">
        <ele>727</ele>
        <time>2019-03-24T13:28:35.504Z</time>
      </trkpt>
      <trkpt lat="45.63109" lon="5.72042">
        <ele>723</ele>
        <time>2019-03-24T13:28:40.497Z</time>
      </trkpt>
      <trkpt lat="45.63112" lon="5.72042">
        <ele>723</ele>
        <time>2019-03-24T13:28:44.503Z</time>
      </trkpt>
      <trkpt lat="45.63118" lon="5.72041">
        <ele>727</ele>
        <time>2019-03-24T13:28:49.510Z</time>
      </trkpt>
      <trkpt lat="45.63126" lon="5.72039">
        <ele>728</ele>
        <time>2019-03-24T13:28:54.496Z</time>
      </trkpt>
      <trkpt lat="45.63131" lon="5.72036">
        <ele>728</ele>
        <time>2019-03-24T13:28:59.503Z</time>
      </trkpt>
      <trkpt lat="45.63136" lon="5.72031">
        <ele>728</ele>
        <time>2019-03-24T13:29:04.511Z</time>
      </trkpt>
      <trkpt lat="45.63142" lon="5.72027">
        <ele>728</ele>
        <time>2019-03-24T13:29:09.495Z</time>
      </trkpt>
      <trkpt lat="45.63148" lon="5.72025">
        <ele>728</ele>
        <time>2019-03-24T13:29:14.521Z</time>
      </trkpt>
      <trkpt lat="45.63159" lon="5.72015">
        <ele>727</ele>
        <time>2019-03-24T13:29:19.507Z</time>
      </trkpt>
      <trkpt lat="45.6317" lon="5.72002">
        <ele>731</ele>
        <time>2019-03-24T13:29:23.518Z</time>
      </trkpt>
      <trkpt lat="45.63184" lon="5.71986">
        <ele>731</ele>
        <time>2019-03-24T13:29:28.499Z</time>
      </trkpt>
      <trkpt lat="45.63196" lon="5.71975">
        <ele>731</ele>
        <time>2019-03-24T13:29:33.499Z</time>
      </trkpt>
      <trkpt lat="45.63204" lon="5.71962">
        <ele>731</ele>
        <time>2019-03-24T13:29:38.491Z</time>
      </trkpt>
      <trkpt lat="45.63208" lon="5.71956">
        <ele>732</ele>
        <time>2019-03-24T13:29:42.502Z</time>
      </trkpt>
      <trkpt lat="45.63214" lon="5.7195">
        <ele>732</ele>
        <time>2019-03-24T13:29:47.499Z</time>
      </trkpt>
      <trkpt lat="45.63218" lon="5.71943">
        <ele>732</ele>
        <time>2019-03-24T13:29:52.492Z</time>
      </trkpt>
      <trkpt lat="45.63223" lon="5.71937">
        <ele>732</ele>
        <time>2019-03-24T13:29:56.529Z</time>
      </trkpt>
      <trkpt lat="45.6323" lon="5.71934">
        <ele>732</ele>
        <time>2019-03-24T13:30:01.496Z</time>
      </trkpt>
      <trkpt lat="45.63235" lon="5.71929">
        <ele>739</ele>
        <time>2019-03-24T13:30:05.515Z</time>
      </trkpt>
      <trkpt lat="45.63239" lon="5.71925">
        <ele>732</ele>
        <time>2019-03-24T13:30:09.526Z</time>
      </trkpt>
      <trkpt lat="45.63251" lon="5.71908">
        <ele>732</ele>
        <time>2019-03-24T13:30:14.495Z</time>
      </trkpt>
      <trkpt lat="45.63261" lon="5.719">
        <ele>738</ele>
        <time>2019-03-24T13:30:18.504Z</time>
      </trkpt>
      <trkpt lat="45.63266" lon="5.71894">
        <ele>734</ele>
        <time>2019-03-24T13:30:22.529Z</time>
      </trkpt>
      <trkpt lat="45.63271" lon="5.71887">
        <ele>734</ele>
        <time>2019-03-24T13:30:27.493Z</time>
      </trkpt>
      <trkpt lat="45.63275" lon="5.7188">
        <ele>734</ele>
        <time>2019-03-24T13:30:31.521Z</time>
      </trkpt>
      <trkpt lat="45.63278" lon="5.71874">
        <ele>739</ele>
        <time>2019-03-24T13:30:35.533Z</time>
      </trkpt>
      <trkpt lat="45.6328" lon="5.71865">
        <ele>739</ele>
        <time>2019-03-24T13:30:40.520Z</time>
      </trkpt>
      <trkpt lat="45.63284" lon="5.71857">
        <ele>739</ele>
        <time>2019-03-24T13:30:45.505Z</time>
      </trkpt>
      <trkpt lat="45.63288" lon="5.7185">
        <ele>739</ele>
        <time>2019-03-24T13:30:50.508Z</time>
      </trkpt>
      <trkpt lat="45.63291" lon="5.71842">
        <ele>746</ele>
        <time>2019-03-24T13:30:55.518Z</time>
      </trkpt>
      <trkpt lat="45.63296" lon="5.71836">
        <ele>742</ele>
        <time>2019-03-24T13:31:00.490Z</time>
      </trkpt>
      <trkpt lat="45.63299" lon="5.7183">
        <ele>742</ele>
        <time>2019-03-24T13:31:04.506Z</time>
      </trkpt>
      <trkpt lat="45.63302" lon="5.71825">
        <ele>742</ele>
        <time>2019-03-24T13:31:09.509Z</time>
      </trkpt>
      <trkpt lat="45.63309" lon="5.71811">
        <ele>748</ele>
        <time>2019-03-24T13:31:14.517Z</time>
      </trkpt>
      <trkpt lat="45.63315" lon="5.71789">
        <ele>754</ele>
        <time>2019-03-24T13:31:19.505Z</time>
      </trkpt>
      <trkpt lat="45.6332" lon="5.71768">
        <ele>749</ele>
        <time>2019-03-24T13:31:24.502Z</time>
      </trkpt>
      <trkpt lat="45.63325" lon="5.71752">
        <ele>754</ele>
        <time>2019-03-24T13:31:29.519Z</time>
      </trkpt>
      <trkpt lat="45.63327" lon="5.71735">
        <ele>759</ele>
        <time>2019-03-24T13:31:34.497Z</time>
      </trkpt>
      <trkpt lat="45.63327" lon="5.71719">
        <ele>759</ele>
        <time>2019-03-24T13:31:38.503Z</time>
      </trkpt>
      <trkpt lat="45.63329" lon="5.71698">
        <ele>763</ele>
        <time>2019-03-24T13:31:43.504Z</time>
      </trkpt>
      <trkpt lat="45.63332" lon="5.71691">
        <ele>763</ele>
        <time>2019-03-24T13:31:47.519Z</time>
      </trkpt>
      <trkpt lat="45.63335" lon="5.71691">
        <ele>763</ele>
        <time>2019-03-24T13:31:52.503Z</time>
      </trkpt>
      <trkpt lat="45.63333" lon="5.71689">
        <ele>763</ele>
        <time>2019-03-24T13:31:56.517Z</time>
      </trkpt>
      <trkpt lat="45.63333" lon="5.71683">
        <ele>763</ele>
        <time>2019-03-24T13:32:01.496Z</time>
      </trkpt>
      <trkpt lat="45.63334" lon="5.71674">
        <ele>767</ele>
        <time>2019-03-24T13:32:05.545Z</time>
      </trkpt>
      <trkpt lat="45.63335" lon="5.71662">
        <ele>767</ele>
        <time>2019-03-24T13:32:10.510Z</time>
      </trkpt>
      <trkpt lat="45.63336" lon="5.71637">
        <ele>770</ele>
        <time>2019-03-24T13:32:15.510Z</time>
      </trkpt>
      <trkpt lat="45.63343" lon="5.71606">
        <ele>770</ele>
        <time>2019-03-24T13:32:20.510Z</time>
      </trkpt>
      <trkpt lat="45.63338" lon="5.71581">
        <ele>771</ele>
        <time>2019-03-24T13:32:25.495Z</time>
      </trkpt>
      <trkpt lat="45.63336" lon="5.71567">
        <ele>773</ele>
        <time>2019-03-24T13:32:30.533Z</time>
      </trkpt>
      <trkpt lat="45.63335" lon="5.7155">
        <ele>773</ele>
        <time>2019-03-24T13:32:35.502Z</time>
      </trkpt>
      <trkpt lat="45.63336" lon="5.71539">
        <ele>778</ele>
        <time>2019-03-24T13:32:40.494Z</time>
      </trkpt>
      <trkpt lat="45.63337" lon="5.71525">
        <ele>778</ele>
        <time>2019-03-24T13:32:45.511Z</time>
      </trkpt>
      <trkpt lat="45.63337" lon="5.71517">
        <ele>778</ele>
        <time>2019-03-24T13:32:49.524Z</time>
      </trkpt>
      <trkpt lat="45.63335" lon="5.71507">
        <ele>781</ele>
        <time>2019-03-24T13:32:54.509Z</time>
      </trkpt>
      <trkpt lat="45.63332" lon="5.715">
        <ele>781</ele>
        <time>2019-03-24T13:32:59.527Z</time>
      </trkpt>
      <trkpt lat="45.63327" lon="5.71488">
        <ele>781</ele>
        <time>2019-03-24T13:33:04.492Z</time>
      </trkpt>
      <trkpt lat="45.63324" lon="5.71478">
        <ele>783</ele>
        <time>2019-03-24T13:33:09.523Z</time>
      </trkpt>
      <trkpt lat="45.6332" lon="5.71464">
        <ele>783</ele>
        <time>2019-03-24T13:33:14.518Z</time>
      </trkpt>
      <trkpt lat="45.63316" lon="5.7145">
        <ele>781</ele>
        <time>2019-03-24T13:33:19.495Z</time>
      </trkpt>
      <trkpt lat="45.63314" lon="5.7144">
        <ele>781</ele>
        <time>2019-03-24T13:33:24.493Z</time>
      </trkpt>
      <trkpt lat="45.63311" lon="5.71418">
        <ele>780</ele>
        <time>2019-03-24T13:33:29.501Z</time>
      </trkpt>
      <trkpt lat="45.63307" lon="5.71389">
        <ele>779</ele>
        <time>2019-03-24T13:33:34.510Z</time>
      </trkpt>
      <trkpt lat="45.63321" lon="5.71352">
        <ele>783</ele>
        <time>2019-03-24T13:33:39.502Z</time>
      </trkpt>
      <trkpt lat="45.63337" lon="5.71329">
        <ele>784</ele>
        <time>2019-03-24T13:33:44.508Z</time>
      </trkpt>
      <trkpt lat="45.63351" lon="5.71331">
        <ele>790</ele>
        <time>2019-03-24T13:33:49.508Z</time>
      </trkpt>
      <trkpt lat="45.63361" lon="5.71337">
        <ele>790</ele>
        <time>2019-03-24T13:33:54.512Z</time>
      </trkpt>
      <trkpt lat="45.63366" lon="5.71344">
        <ele>790</ele>
        <time>2019-03-24T13:33:59.501Z</time>
      </trkpt>
      <trkpt lat="45.63368" lon="5.71344">
        <ele>790</ele>
        <time>2019-03-24T13:34:04.498Z</time>
      </trkpt>
      <trkpt lat="45.6338" lon="5.7134">
        <ele>794</ele>
        <time>2019-03-24T13:34:09.510Z</time>
      </trkpt>
      <trkpt lat="45.6339" lon="5.71321">
        <ele>794</ele>
        <time>2019-03-24T13:34:14.505Z</time>
      </trkpt>
      <trkpt lat="45.6341" lon="5.7131">
        <ele>797</ele>
        <time>2019-03-24T13:34:19.500Z</time>
      </trkpt>
      <trkpt lat="45.63433" lon="5.71287">
        <ele>799</ele>
        <time>2019-03-24T13:34:24.494Z</time>
      </trkpt>
      <trkpt lat="45.63451" lon="5.71276">
        <ele>799</ele>
        <time>2019-03-24T13:34:28.500Z</time>
      </trkpt>
      <trkpt lat="45.6346" lon="5.71274">
        <ele>800</ele>
        <time>2019-03-24T13:34:33.492Z</time>
      </trkpt>
      <trkpt lat="45.63461" lon="5.71275">
        <ele>800</ele>
        <time>2019-03-24T13:34:37.512Z</time>
      </trkpt>
      <trkpt lat="45.63462" lon="5.71275">
        <ele>800</ele>
        <time>2019-03-24T13:34:42.513Z</time>
      </trkpt>
      <trkpt lat="45.63466" lon="5.71275">
        <ele>800</ele>
        <time>2019-03-24T13:34:47.507Z</time>
      </trkpt>
      <trkpt lat="45.63469" lon="5.71274">
        <ele>800</ele>
        <time>2019-03-24T13:34:52.499Z</time>
      </trkpt>
      <trkpt lat="45.63477" lon="5.71263">
        <ele>802</ele>
        <time>2019-03-24T13:34:56.536Z</time>
      </trkpt>
      <trkpt lat="45.63493" lon="5.71239">
        <ele>802</ele>
        <time>2019-03-24T13:35:01.497Z</time>
      </trkpt>
      <trkpt lat="45.63504" lon="5.71223">
        <ele>804</ele>
        <time>2019-03-24T13:35:05.524Z</time>
      </trkpt>
      <trkpt lat="45.63524" lon="5.71219">
        <ele>805</ele>
        <time>2019-03-24T13:35:10.489Z</time>
      </trkpt>
      <trkpt lat="45.63536" lon="5.71218">
        <ele>805</ele>
        <time>2019-03-24T13:35:14.494Z</time>
      </trkpt>
      <trkpt lat="45.63555" lon="5.71223">
        <ele>807</ele>
        <time>2019-03-24T13:35:19.523Z</time>
      </trkpt>
      <trkpt lat="45.63564" lon="5.71225">
        <ele>807</ele>
        <time>2019-03-24T13:35:24.496Z</time>
      </trkpt>
      <trkpt lat="45.63575" lon="5.71229">
        <ele>808</ele>
        <time>2019-03-24T13:35:28.509Z</time>
      </trkpt>
      <trkpt lat="45.63585" lon="5.7123">
        <ele>808</ele>
        <time>2019-03-24T13:35:32.526Z</time>
      </trkpt>
      <trkpt lat="45.63603" lon="5.71236">
        <ele>808</ele>
        <time>2019-03-24T13:35:37.518Z</time>
      </trkpt>
      <trkpt lat="45.63615" lon="5.71251">
        <ele>808</ele>
        <time>2019-03-24T13:35:42.527Z</time>
      </trkpt>
      <trkpt lat="45.63622" lon="5.7126">
        <ele>808</ele>
        <time>2019-03-24T13:35:47.520Z</time>
      </trkpt>
      <trkpt lat="45.6363" lon="5.71259">
        <ele>811</ele>
        <time>2019-03-24T13:35:52.521Z</time>
      </trkpt>
      <trkpt lat="45.63636" lon="5.71255">
        <ele>811</ele>
        <time>2019-03-24T13:35:57.525Z</time>
      </trkpt>
      <trkpt lat="45.63639" lon="5.71255">
        <ele>811</ele>
        <time>2019-03-24T13:36:02.503Z</time>
      </trkpt>
      <trkpt lat="45.63642" lon="5.71261">
        <ele>811</ele>
        <time>2019-03-24T13:36:07.502Z</time>
      </trkpt>
      <trkpt lat="45.63645" lon="5.71265">
        <ele>808</ele>
        <time>2019-03-24T13:36:12.505Z</time>
      </trkpt>
      <trkpt lat="45.63649" lon="5.71269">
        <ele>808</ele>
        <time>2019-03-24T13:36:17.490Z</time>
      </trkpt>
      <trkpt lat="45.6365" lon="5.71274">
        <ele>808</ele>
        <time>2019-03-24T13:36:21.498Z</time>
      </trkpt>
      <trkpt lat="45.6365" lon="5.71282">
        <ele>808</ele>
        <time>2019-03-24T13:36:26.524Z</time>
      </trkpt>
      <trkpt lat="45.63651" lon="5.71288">
        <ele>808</ele>
        <time>2019-03-24T13:36:31.502Z</time>
      </trkpt>
      <trkpt lat="45.63652" lon="5.71293">
        <ele>805</ele>
        <time>2019-03-24T13:36:35.530Z</time>
      </trkpt>
      <trkpt lat="45.63654" lon="5.71308">
        <ele>803</ele>
        <time>2019-03-24T13:36:40.498Z</time>
      </trkpt>
      <trkpt lat="45.63657" lon="5.71316">
        <ele>803</ele>
        <time>2019-03-24T13:36:44.500Z</time>
      </trkpt>
      <trkpt lat="45.63658" lon="5.71324">
        <ele>800</ele>
        <time>2019-03-24T13:36:49.503Z</time>
      </trkpt>
      <trkpt lat="45.6366" lon="5.71327">
        <ele>800</ele>
        <time>2019-03-24T13:36:54.503Z</time>
      </trkpt>
      <trkpt lat="45.63661" lon="5.7133">
        <ele>800</ele>
        <time>2019-03-24T13:36:58.515Z</time>
      </trkpt>
      <trkpt lat="45.63662" lon="5.71333">
        <ele>800</ele>
        <time>2019-03-24T13:37:03.493Z</time>
      </trkpt>
      <trkpt lat="45.63663" lon="5.71333">
        <ele>800</ele>
        <time>2019-03-24T13:37:08.497Z</time>
      </trkpt>
      <trkpt lat="45.63665" lon="5.71331">
        <ele>800</ele>
        <time>2019-03-24T13:37:12.519Z</time>
      </trkpt>
      <trkpt lat="45.63678" lon="5.71328">
        <ele>800</ele>
        <time>2019-03-24T13:37:17.526Z</time>
      </trkpt>
      <trkpt lat="45.63681" lon="5.7132">
        <ele>797</ele>
        <time>2019-03-24T13:37:22.511Z</time>
      </trkpt>
      <trkpt lat="45.6369" lon="5.71316">
        <ele>801</ele>
        <time>2019-03-24T13:37:26.530Z</time>
      </trkpt>
      <trkpt lat="45.63697" lon="5.71316">
        <ele>801</ele>
        <time>2019-03-24T13:37:31.498Z</time>
      </trkpt>
      <trkpt lat="45.63701" lon="5.71317">
        <ele>801</ele>
        <time>2019-03-24T13:37:36.507Z</time>
      </trkpt>
      <trkpt lat="45.6371" lon="5.7132">
        <ele>794</ele>
        <time>2019-03-24T13:37:41.500Z</time>
      </trkpt>
      <trkpt lat="45.63714" lon="5.71324">
        <ele>794</ele>
        <time>2019-03-24T13:37:46.499Z</time>
      </trkpt>
      <trkpt lat="45.63719" lon="5.71329">
        <ele>794</ele>
        <time>2019-03-24T13:37:51.507Z</time>
      </trkpt>
      <trkpt lat="45.63721" lon="5.71337">
        <ele>794</ele>
        <time>2019-03-24T13:37:56.512Z</time>
      </trkpt>
      <trkpt lat="45.63722" lon="5.71356">
        <ele>789</ele>
        <time>2019-03-24T13:38:20.499Z</time>
      </trkpt>
      <trkpt lat="45.63724" lon="5.71359">
        <ele>789</ele>
        <time>2019-03-24T13:38:24.520Z</time>
      </trkpt>
      <trkpt lat="45.63729" lon="5.71367">
        <ele>789</ele>
        <time>2019-03-24T13:38:29.507Z</time>
      </trkpt>
      <trkpt lat="45.63733" lon="5.71376">
        <ele>785</ele>
        <time>2019-03-24T13:38:34.512Z</time>
      </trkpt>
      <trkpt lat="45.63738" lon="5.71386">
        <ele>785</ele>
        <time>2019-03-24T13:38:39.502Z</time>
      </trkpt>
      <trkpt lat="45.63739" lon="5.71394">
        <ele>785</ele>
        <time>2019-03-24T13:38:44.498Z</time>
      </trkpt>
      <trkpt lat="45.63738" lon="5.714">
        <ele>785</ele>
        <time>2019-03-24T13:38:49.497Z</time>
      </trkpt>
      <trkpt lat="45.63738" lon="5.71406">
        <ele>781</ele>
        <time>2019-03-24T13:38:53.513Z</time>
      </trkpt>
      <trkpt lat="45.6374" lon="5.71413">
        <ele>781</ele>
        <time>2019-03-24T13:38:58.501Z</time>
      </trkpt>
      <trkpt lat="45.63741" lon="5.71426">
        <ele>781</ele>
        <time>2019-03-24T13:39:03.494Z</time>
      </trkpt>
      <trkpt lat="45.6374" lon="5.71432">
        <ele>779</ele>
        <time>2019-03-24T13:39:08.494Z</time>
      </trkpt>
      <trkpt lat="45.63741" lon="5.71434">
        <ele>779</ele>
        <time>2019-03-24T13:39:12.499Z</time>
      </trkpt>
      <trkpt lat="45.63743" lon="5.71439">
        <ele>779</ele>
        <time>2019-03-24T13:39:17.501Z</time>
      </trkpt>
      <trkpt lat="45.63748" lon="5.71445">
        <ele>779</ele>
        <time>2019-03-24T13:39:22.531Z</time>
      </trkpt>
      <trkpt lat="45.63746" lon="5.71444">
        <ele>779</ele>
        <time>2019-03-24T13:40:24.496Z</time>
      </trkpt>
      <trkpt lat="45.63749" lon="5.71452">
        <ele>779</ele>
        <time>2019-03-24T13:40:29.507Z</time>
      </trkpt>
      <trkpt lat="45.63752" lon="5.71463">
        <ele>777</ele>
        <time>2019-03-24T13:40:34.496Z</time>
      </trkpt>
      <trkpt lat="45.63756" lon="5.71471">
        <ele>777</ele>
        <time>2019-03-24T13:40:39.506Z</time>
      </trkpt>
      <trkpt lat="45.63756" lon="5.71475">
        <ele>777</ele>
        <time>2019-03-24T13:40:44.537Z</time>
      </trkpt>
      <trkpt lat="45.63756" lon="5.71475">
        <ele>777</ele>
        <time>2019-03-24T13:40:49.495Z</time>
      </trkpt>
      <trkpt lat="45.63756" lon="5.71478">
        <ele>777</ele>
        <time>2019-03-24T13:40:54.508Z</time>
      </trkpt>
      <trkpt lat="45.63756" lon="5.71484">
        <ele>777</ele>
        <time>2019-03-24T13:40:59.495Z</time>
      </trkpt>
      <trkpt lat="45.63758" lon="5.71491">
        <ele>775</ele>
        <time>2019-03-24T13:41:04.517Z</time>
      </trkpt>
      <trkpt lat="45.63759" lon="5.715">
        <ele>775</ele>
        <time>2019-03-24T13:41:09.522Z</time>
      </trkpt>
      <trkpt lat="45.6376" lon="5.71507">
        <ele>775</ele>
        <time>2019-03-24T13:41:14.508Z</time>
      </trkpt>
      <trkpt lat="45.63761" lon="5.71515">
        <ele>773</ele>
        <time>2019-03-24T13:41:19.496Z</time>
      </trkpt>
      <trkpt lat="45.63763" lon="5.71524">
        <ele>773</ele>
        <time>2019-03-24T13:41:24.501Z</time>
      </trkpt>
      <trkpt lat="45.6376" lon="5.71538">
        <ele>773</ele>
        <time>2019-03-24T13:41:29.513Z</time>
      </trkpt>
      <trkpt lat="45.63759" lon="5.71546">
        <ele>771</ele>
        <time>2019-03-24T13:41:34.501Z</time>
      </trkpt>
      <trkpt lat="45.6376" lon="5.71552">
        <ele>771</ele>
        <time>2019-03-24T13:41:39.514Z</time>
      </trkpt>
      <trkpt lat="45.63764" lon="5.7156">
        <ele>771</ele>
        <time>2019-03-24T13:41:44.496Z</time>
      </trkpt>
      <trkpt lat="45.63766" lon="5.71565">
        <ele>773</ele>
        <time>2019-03-24T13:41:48.511Z</time>
      </trkpt>
      <trkpt lat="45.6377" lon="5.71569">
        <ele>773</ele>
        <time>2019-03-24T13:41:53.495Z</time>
      </trkpt>
      <trkpt lat="45.63778" lon="5.71576">
        <ele>772</ele>
        <time>2019-03-24T13:41:58.497Z</time>
      </trkpt>
      <trkpt lat="45.6378" lon="5.71578">
        <ele>772</ele>
        <time>2019-03-24T13:42:02.526Z</time>
      </trkpt>
      <trkpt lat="45.63783" lon="5.7158">
        <ele>772</ele>
        <time>2019-03-24T13:42:07.504Z</time>
      </trkpt>
      <trkpt lat="45.63789" lon="5.71583">
        <ele>772</ele>
        <time>2019-03-24T13:42:12.495Z</time>
      </trkpt>
      <trkpt lat="45.63802" lon="5.71589">
        <ele>772</ele>
        <time>2019-03-24T13:42:17.519Z</time>
      </trkpt>
      <trkpt lat="45.63809" lon="5.71593">
        <ele>772</ele>
        <time>2019-03-24T13:42:22.506Z</time>
      </trkpt>
      <trkpt lat="45.63815" lon="5.71597">
        <ele>771</ele>
        <time>2019-03-24T13:42:26.516Z</time>
      </trkpt>
      <trkpt lat="45.63819" lon="5.71602">
        <ele>771</ele>
        <time>2019-03-24T13:42:31.508Z</time>
      </trkpt>
      <trkpt lat="45.63825" lon="5.71606">
        <ele>770</ele>
        <time>2019-03-24T13:42:36.499Z</time>
      </trkpt>
      <trkpt lat="45.63826" lon="5.71613">
        <ele>770</ele>
        <time>2019-03-24T13:42:41.505Z</time>
      </trkpt>
      <trkpt lat="45.63825" lon="5.7162">
        <ele>770</ele>
        <time>2019-03-24T13:42:46.501Z</time>
      </trkpt>
      <trkpt lat="45.63826" lon="5.7163">
        <ele>769</ele>
        <time>2019-03-24T13:42:51.524Z</time>
      </trkpt>
      <trkpt lat="45.63829" lon="5.71639">
        <ele>769</ele>
        <time>2019-03-24T13:42:56.504Z</time>
      </trkpt>
      <trkpt lat="45.63832" lon="5.71647">
        <ele>769</ele>
        <time>2019-03-24T13:43:00.508Z</time>
      </trkpt>
      <trkpt lat="45.63835" lon="5.7166">
        <ele>766</ele>
        <time>2019-03-24T13:43:05.509Z</time>
      </trkpt>
      <trkpt lat="45.63837" lon="5.71669">
        <ele>766</ele>
        <time>2019-03-24T13:43:10.493Z</time>
      </trkpt>
      <trkpt lat="45.6384" lon="5.71676">
        <ele>766</ele>
        <time>2019-03-24T13:43:14.500Z</time>
      </trkpt>
      <trkpt lat="45.63845" lon="5.71684">
        <ele>762</ele>
        <time>2019-03-24T13:43:19.506Z</time>
      </trkpt>
      <trkpt lat="45.63853" lon="5.71687">
        <ele>759</ele>
        <time>2019-03-24T13:43:24.523Z</time>
      </trkpt>
      <trkpt lat="45.6386" lon="5.71688">
        <ele>759</ele>
        <time>2019-03-24T13:43:29.495Z</time>
      </trkpt>
      <trkpt lat="45.63863" lon="5.71686">
        <ele>759</ele>
        <time>2019-03-24T13:43:34.506Z</time>
      </trkpt>
      <trkpt lat="45.63869" lon="5.71681">
        <ele>762</ele>
        <time>2019-03-24T13:43:39.503Z</time>
      </trkpt>
      <trkpt lat="45.63872" lon="5.71672">
        <ele>762</ele>
        <time>2019-03-24T13:43:44.508Z</time>
      </trkpt>
      <trkpt lat="45.63877" lon="5.71668">
        <ele>759</ele>
        <time>2019-03-24T13:43:49.500Z</time>
      </trkpt>
      <trkpt lat="45.63884" lon="5.71668">
        <ele>759</ele>
        <time>2019-03-24T13:43:54.500Z</time>
      </trkpt>
      <trkpt lat="45.63889" lon="5.71669">
        <ele>759</ele>
        <time>2019-03-24T13:43:59.530Z</time>
      </trkpt>
      <trkpt lat="45.63892" lon="5.71672">
        <ele>759</ele>
        <time>2019-03-24T13:44:04.509Z</time>
      </trkpt>
      <trkpt lat="45.63897" lon="5.71678">
        <ele>759</ele>
        <time>2019-03-24T13:44:09.505Z</time>
      </trkpt>
      <trkpt lat="45.63903" lon="5.71682">
        <ele>754</ele>
        <time>2019-03-24T13:44:14.501Z</time>
      </trkpt>
      <trkpt lat="45.63911" lon="5.71686">
        <ele>754</ele>
        <time>2019-03-24T13:44:19.524Z</time>
      </trkpt>
      <trkpt lat="45.63912" lon="5.71688">
        <ele>754</ele>
        <time>2019-03-24T13:44:24.507Z</time>
      </trkpt>
      <trkpt lat="45.63922" lon="5.717">
        <ele>754</ele>
        <time>2019-03-24T13:44:29.500Z</time>
      </trkpt>
      <trkpt lat="45.63933" lon="5.71706">
        <ele>753</ele>
        <time>2019-03-24T13:44:34.509Z</time>
      </trkpt>
      <trkpt lat="45.63946" lon="5.71712">
        <ele>748</ele>
        <time>2019-03-24T13:44:39.523Z</time>
      </trkpt>
      <trkpt lat="45.63955" lon="5.71718">
        <ele>748</ele>
        <time>2019-03-24T13:44:44.493Z</time>
      </trkpt>
      <trkpt lat="45.6396" lon="5.71723">
        <ele>748</ele>
        <time>2019-03-24T13:44:48.495Z</time>
      </trkpt>
      <trkpt lat="45.63966" lon="5.71729">
        <ele>748</ele>
        <time>2019-03-24T13:44:53.492Z</time>
      </trkpt>
      <trkpt lat="45.63972" lon="5.71732">
        <ele>748</ele>
        <time>2019-03-24T13:44:57.510Z</time>
      </trkpt>
      <trkpt lat="45.6398" lon="5.71739">
        <ele>744</ele>
        <time>2019-03-24T13:45:02.503Z</time>
      </trkpt>
      <trkpt lat="45.63986" lon="5.71743">
        <ele>744</ele>
        <time>2019-03-24T13:45:06.515Z</time>
      </trkpt>
      <trkpt lat="45.6399" lon="5.71746">
        <ele>744</ele>
        <time>2019-03-24T13:45:10.539Z</time>
      </trkpt>
      <trkpt lat="45.63994" lon="5.7175">
        <ele>744</ele>
        <time>2019-03-24T13:45:15.515Z</time>
      </trkpt>
      <trkpt lat="45.63997" lon="5.71757">
        <ele>744</ele>
        <time>2019-03-24T13:45:19.521Z</time>
      </trkpt>
      <trkpt lat="45.63998" lon="5.71768">
        <ele>740</ele>
        <time>2019-03-24T13:45:24.531Z</time>
      </trkpt>
      <trkpt lat="45.64002" lon="5.71772">
        <ele>740</ele>
        <time>2019-03-24T13:45:29.499Z</time>
      </trkpt>
      <trkpt lat="45.64005" lon="5.71772">
        <ele>740</ele>
        <time>2019-03-24T13:45:34.497Z</time>
      </trkpt>
      <trkpt lat="45.64011" lon="5.71781">
        <ele>740</ele>
        <time>2019-03-24T13:45:39.499Z</time>
      </trkpt>
      <trkpt lat="45.64024" lon="5.71791">
        <ele>740</ele>
        <time>2019-03-24T13:45:44.516Z</time>
      </trkpt>
      <trkpt lat="45.64036" lon="5.71803">
        <ele>739</ele>
        <time>2019-03-24T13:45:49.505Z</time>
      </trkpt>
      <trkpt lat="45.64035" lon="5.71813">
        <ele>739</ele>
        <time>2019-03-24T13:45:54.501Z</time>
      </trkpt>
      <trkpt lat="45.64032" lon="5.71816">
        <ele>739</ele>
        <time>2019-03-24T13:45:59.524Z</time>
      </trkpt>
      <trkpt lat="45.64031" lon="5.71816">
        <ele>739</ele>
        <time>2019-03-24T13:46:04.494Z</time>
      </trkpt>
      <trkpt lat="45.6403" lon="5.71819">
        <ele>739</ele>
        <time>2019-03-24T13:46:08.503Z</time>
      </trkpt>
      <trkpt lat="45.64031" lon="5.71827">
        <ele>737</ele>
        <time>2019-03-24T13:46:13.497Z</time>
      </trkpt>
      <trkpt lat="45.64032" lon="5.71836">
        <ele>737</ele>
        <time>2019-03-24T13:46:18.494Z</time>
      </trkpt>
      <trkpt lat="45.64034" lon="5.71846">
        <ele>737</ele>
        <time>2019-03-24T13:46:23.499Z</time>
      </trkpt>
      <trkpt lat="45.64033" lon="5.71855">
        <ele>734</ele>
        <time>2019-03-24T13:46:28.501Z</time>
      </trkpt>
      <trkpt lat="45.64032" lon="5.71863">
        <ele>734</ele>
        <time>2019-03-24T13:46:33.497Z</time>
      </trkpt>
      <trkpt lat="45.64031" lon="5.71863">
        <ele>734</ele>
        <time>2019-03-24T13:46:37.526Z</time>
      </trkpt>
      <trkpt lat="45.64032" lon="5.71861">
        <ele>734</ele>
        <time>2019-03-24T13:47:24.485Z</time>
      </trkpt>
      <trkpt lat="45.64036" lon="5.71864">
        <ele>734</ele>
        <time>2019-03-24T13:47:29.494Z</time>
      </trkpt>
      <trkpt lat="45.64049" lon="5.71858">
        <ele>738</ele>
        <time>2019-03-24T13:47:34.535Z</time>
      </trkpt>
      <trkpt lat="45.64056" lon="5.71854">
        <ele>738</ele>
        <time>2019-03-24T13:47:39.513Z</time>
      </trkpt>
      <trkpt lat="45.64061" lon="5.71851">
        <ele>738</ele>
        <time>2019-03-24T13:47:43.518Z</time>
      </trkpt>
      <trkpt lat="45.64067" lon="5.71851">
        <ele>738</ele>
        <time>2019-03-24T13:47:48.500Z</time>
      </trkpt>
      <trkpt lat="45.64071" lon="5.71848">
        <ele>740</ele>
        <time>2019-03-24T13:47:53.512Z</time>
      </trkpt>
      <trkpt lat="45.64077" lon="5.71854">
        <ele>740</ele>
        <time>2019-03-24T13:47:58.500Z</time>
      </trkpt>
      <trkpt lat="45.64084" lon="5.71859">
        <ele>740</ele>
        <time>2019-03-24T13:48:03.494Z</time>
      </trkpt>
      <trkpt lat="45.64089" lon="5.71864">
        <ele>740</ele>
        <time>2019-03-24T13:48:07.519Z</time>
      </trkpt>
      <trkpt lat="45.641" lon="5.71875">
        <ele>740</ele>
        <time>2019-03-24T13:48:12.495Z</time>
      </trkpt>
      <trkpt lat="45.64108" lon="5.71881">
        <ele>736</ele>
        <time>2019-03-24T13:48:17.528Z</time>
      </trkpt>
      <trkpt lat="45.64114" lon="5.71883">
        <ele>736</ele>
        <time>2019-03-24T13:48:22.495Z</time>
      </trkpt>
      <trkpt lat="45.64119" lon="5.71885">
        <ele>736</ele>
        <time>2019-03-24T13:48:27.517Z</time>
      </trkpt>
      <trkpt lat="45.64122" lon="5.71885">
        <ele>736</ele>
        <time>2019-03-24T13:48:31.525Z</time>
      </trkpt>
      <trkpt lat="45.6413" lon="5.71889">
        <ele>737</ele>
        <time>2019-03-24T13:48:36.502Z</time>
      </trkpt>
      <trkpt lat="45.64135" lon="5.7189">
        <ele>737</ele>
        <time>2019-03-24T13:48:40.515Z</time>
      </trkpt>
      <trkpt lat="45.64142" lon="5.7189">
        <ele>737</ele>
        <time>2019-03-24T13:48:45.502Z</time>
      </trkpt>
      <trkpt lat="45.64148" lon="5.7189">
        <ele>737</ele>
        <time>2019-03-24T13:48:50.506Z</time>
      </trkpt>
      <trkpt lat="45.64152" lon="5.7189">
        <ele>737</ele>
        <time>2019-03-24T13:48:54.522Z</time>
      </trkpt>
      <trkpt lat="45.64159" lon="5.7189">
        <ele>737</ele>
        <time>2019-03-24T13:48:59.507Z</time>
      </trkpt>
      <trkpt lat="45.64167" lon="5.71892">
        <ele>737</ele>
        <time>2019-03-24T13:49:04.527Z</time>
      </trkpt>
      <trkpt lat="45.64172" lon="5.71893">
        <ele>737</ele>
        <time>2019-03-24T13:49:09.502Z</time>
      </trkpt>
      <trkpt lat="45.64176" lon="5.71894">
        <ele>737</ele>
        <time>2019-03-24T13:49:14.514Z</time>
      </trkpt>
      <trkpt lat="45.64177" lon="5.71883">
        <ele>737</ele>
        <time>2019-03-24T13:49:19.507Z</time>
      </trkpt>
      <trkpt lat="45.64185" lon="5.7188">
        <ele>738</ele>
        <time>2019-03-24T13:49:23.518Z</time>
      </trkpt>
      <trkpt lat="45.64191" lon="5.7188">
        <ele>738</ele>
        <time>2019-03-24T13:49:27.540Z</time>
      </trkpt>
      <trkpt lat="45.64196" lon="5.71878">
        <ele>738</ele>
        <time>2019-03-24T13:49:32.515Z</time>
      </trkpt>
      <trkpt lat="45.64199" lon="5.71877">
        <ele>738</ele>
        <time>2019-03-24T13:49:36.526Z</time>
      </trkpt>
      <trkpt lat="45.64203" lon="5.71875">
        <ele>738</ele>
        <time>2019-03-24T13:49:41.509Z</time>
      </trkpt>
      <trkpt lat="45.64205" lon="5.71874">
        <ele>742</ele>
        <time>2019-03-24T13:49:45.522Z</time>
      </trkpt>
      <trkpt lat="45.64208" lon="5.71873">
        <ele>742</ele>
        <time>2019-03-24T13:49:50.505Z</time>
      </trkpt>
      <trkpt lat="45.6421" lon="5.71872">
        <ele>742</ele>
        <time>2019-03-24T13:49:54.512Z</time>
      </trkpt>
      <trkpt lat="45.64218" lon="5.71873">
        <ele>742</ele>
        <time>2019-03-24T13:49:59.505Z</time>
      </trkpt>
      <trkpt lat="45.64229" lon="5.71873">
        <ele>742</ele>
        <time>2019-03-24T13:50:04.540Z</time>
      </trkpt>
      <trkpt lat="45.64239" lon="5.71871">
        <ele>741</ele>
        <time>2019-03-24T13:50:09.518Z</time>
      </trkpt>
      <trkpt lat="45.64245" lon="5.71868">
        <ele>741</ele>
        <time>2019-03-24T13:50:14.514Z</time>
      </trkpt>
      <trkpt lat="45.64252" lon="5.71866">
        <ele>741</ele>
        <time>2019-03-24T13:50:19.541Z</time>
      </trkpt>
      <trkpt lat="45.6426" lon="5.71865">
        <ele>741</ele>
        <time>2019-03-24T13:50:24.504Z</time>
      </trkpt>
      <trkpt lat="45.64269" lon="5.71864">
        <ele>737</ele>
        <time>2019-03-24T13:50:29.513Z</time>
      </trkpt>
      <trkpt lat="45.64276" lon="5.71862">
        <ele>737</ele>
        <time>2019-03-24T13:50:34.521Z</time>
      </trkpt>
      <trkpt lat="45.6428" lon="5.71859">
        <ele>737</ele>
        <time>2019-03-24T13:50:38.506Z</time>
      </trkpt>
      <trkpt lat="45.64285" lon="5.71853">
        <ele>737</ele>
        <time>2019-03-24T13:50:43.504Z</time>
      </trkpt>
      <trkpt lat="45.64288" lon="5.71851">
        <ele>737</ele>
        <time>2019-03-24T13:50:47.518Z</time>
      </trkpt>
      <trkpt lat="45.64291" lon="5.71851">
        <ele>737</ele>
        <time>2019-03-24T13:50:52.509Z</time>
      </trkpt>
      <trkpt lat="45.64296" lon="5.71855">
        <ele>734</ele>
        <time>2019-03-24T13:50:57.513Z</time>
      </trkpt>
      <trkpt lat="45.64301" lon="5.7186">
        <ele>734</ele>
        <time>2019-03-24T13:51:02.507Z</time>
      </trkpt>
      <trkpt lat="45.64307" lon="5.71866">
        <ele>734</ele>
        <time>2019-03-24T13:51:07.502Z</time>
      </trkpt>
      <trkpt lat="45.64311" lon="5.71872">
        <ele>734</ele>
        <time>2019-03-24T13:51:12.506Z</time>
      </trkpt>
      <trkpt lat="45.64315" lon="5.71879">
        <ele>732</ele>
        <time>2019-03-24T13:51:17.507Z</time>
      </trkpt>
      <trkpt lat="45.64321" lon="5.71885">
        <ele>733</ele>
        <time>2019-03-24T13:51:21.503Z</time>
      </trkpt>
      <trkpt lat="45.64323" lon="5.71891">
        <ele>733</ele>
        <time>2019-03-24T13:51:26.505Z</time>
      </trkpt>
      <trkpt lat="45.64336" lon="5.71908">
        <ele>732</ele>
        <time>2019-03-24T13:51:31.497Z</time>
      </trkpt>
      <trkpt lat="45.64338" lon="5.71913">
        <ele>732</ele>
        <time>2019-03-24T13:51:35.522Z</time>
      </trkpt>
      <trkpt lat="45.6434" lon="5.71923">
        <ele>732</ele>
        <time>2019-03-24T13:51:39.529Z</time>
      </trkpt>
      <trkpt lat="45.64343" lon="5.7193">
        <ele>732</ele>
        <time>2019-03-24T13:51:44.512Z</time>
      </trkpt>
      <trkpt lat="45.64346" lon="5.71935">
        <ele>730</ele>
        <time>2019-03-24T13:51:49.513Z</time>
      </trkpt>
      <trkpt lat="45.64348" lon="5.71936">
        <ele>729</ele>
        <time>2019-03-24T13:51:54.514Z</time>
      </trkpt>
      <trkpt lat="45.64352" lon="5.71938">
        <ele>729</ele>
        <time>2019-03-24T13:51:59.494Z</time>
      </trkpt>
      <trkpt lat="45.64354" lon="5.71937">
        <ele>729</ele>
        <time>2019-03-24T13:52:04.495Z</time>
      </trkpt>
      <trkpt lat="45.64354" lon="5.71939">
        <ele>729</ele>
        <time>2019-03-24T13:52:09.498Z</time>
      </trkpt>
      <trkpt lat="45.64359" lon="5.71947">
        <ele>729</ele>
        <time>2019-03-24T13:52:14.500Z</time>
      </trkpt>
      <trkpt lat="45.64361" lon="5.71948">
        <ele>729</ele>
        <time>2019-03-24T13:52:19.499Z</time>
      </trkpt>
      <trkpt lat="45.64364" lon="5.71952">
        <ele>729</ele>
        <time>2019-03-24T13:52:24.507Z</time>
      </trkpt>
      <trkpt lat="45.64366" lon="5.71959">
        <ele>726</ele>
        <time>2019-03-24T13:52:29.512Z</time>
      </trkpt>
      <trkpt lat="45.64367" lon="5.71971">
        <ele>726</ele>
        <time>2019-03-24T13:52:34.499Z</time>
      </trkpt>
      <trkpt lat="45.6437" lon="5.71976">
        <ele>726</ele>
        <time>2019-03-24T13:52:39.521Z</time>
      </trkpt>
      <trkpt lat="45.64372" lon="5.71977">
        <ele>726</ele>
        <time>2019-03-24T13:52:44.516Z</time>
      </trkpt>
      <trkpt lat="45.64381" lon="5.71975">
        <ele>726</ele>
        <time>2019-03-24T13:52:49.516Z</time>
      </trkpt>
      <trkpt lat="45.64388" lon="5.71973">
        <ele>726</ele>
        <time>2019-03-24T13:52:54.498Z</time>
      </trkpt>
      <trkpt lat="45.64392" lon="5.71968">
        <ele>726</ele>
        <time>2019-03-24T13:52:58.500Z</time>
      </trkpt>
      <trkpt lat="45.64395" lon="5.71964">
        <ele>726</ele>
        <time>2019-03-24T13:53:03.494Z</time>
      </trkpt>
      <trkpt lat="45.644" lon="5.71964">
        <ele>726</ele>
        <time>2019-03-24T13:53:08.492Z</time>
      </trkpt>
      <trkpt lat="45.64407" lon="5.71962">
        <ele>726</ele>
        <time>2019-03-24T13:53:12.511Z</time>
      </trkpt>
      <trkpt lat="45.6441" lon="5.71959">
        <ele>726</ele>
        <time>2019-03-24T13:53:16.523Z</time>
      </trkpt>
      <trkpt lat="45.64417" lon="5.7196">
        <ele>726</ele>
        <time>2019-03-24T13:53:21.497Z</time>
      </trkpt>
      <trkpt lat="45.6442" lon="5.7196">
        <ele>726</ele>
        <time>2019-03-24T13:53:25.508Z</time>
      </trkpt>
      <trkpt lat="45.64426" lon="5.71956">
        <ele>730</ele>
        <time>2019-03-24T13:53:30.513Z</time>
      </trkpt>
      <trkpt lat="45.64433" lon="5.71956">
        <ele>729</ele>
        <time>2019-03-24T13:53:35.507Z</time>
      </trkpt>
      <trkpt lat="45.6444" lon="5.7196">
        <ele>725</ele>
        <time>2019-03-24T13:53:40.507Z</time>
      </trkpt>
      <trkpt lat="45.64445" lon="5.71958">
        <ele>729</ele>
        <time>2019-03-24T13:53:45.495Z</time>
      </trkpt>
      <trkpt lat="45.64452" lon="5.71956">
        <ele>729</ele>
        <time>2019-03-24T13:53:50.498Z</time>
      </trkpt>
      <trkpt lat="45.64459" lon="5.71955">
        <ele>729</ele>
        <time>2019-03-24T13:53:55.505Z</time>
      </trkpt>
      <trkpt lat="45.64467" lon="5.71951">
        <ele>729</ele>
        <time>2019-03-24T13:54:00.506Z</time>
      </trkpt>
      <trkpt lat="45.64473" lon="5.71948">
        <ele>729</ele>
        <time>2019-03-24T13:54:05.510Z</time>
      </trkpt>
      <trkpt lat="45.64479" lon="5.71946">
        <ele>729</ele>
        <time>2019-03-24T13:54:09.526Z</time>
      </trkpt>
      <trkpt lat="45.6448" lon="5.71944">
        <ele>729</ele>
        <time>2019-03-24T13:54:14.508Z</time>
      </trkpt>
      <trkpt lat="45.64481" lon="5.71942">
        <ele>729</ele>
        <time>2019-03-24T13:54:19.492Z</time>
      </trkpt>
      <trkpt lat="45.64484" lon="5.71942">
        <ele>729</ele>
        <time>2019-03-24T13:54:24.515Z</time>
      </trkpt>
      <trkpt lat="45.64494" lon="5.71942">
        <ele>728</ele>
        <time>2019-03-24T13:54:29.516Z</time>
      </trkpt>
      <trkpt lat="45.64497" lon="5.71942">
        <ele>728</ele>
        <time>2019-03-24T13:54:34.504Z</time>
      </trkpt>
      <trkpt lat="45.6451" lon="5.71939">
        <ele>728</ele>
        <time>2019-03-24T13:54:39.545Z</time>
      </trkpt>
      <trkpt lat="45.64524" lon="5.71942">
        <ele>729</ele>
        <time>2019-03-24T13:54:44.510Z</time>
      </trkpt>
      <trkpt lat="45.64539" lon="5.71941">
        <ele>729</ele>
        <time>2019-03-24T13:54:49.509Z</time>
      </trkpt>
      <trkpt lat="45.64544" lon="5.7194">
        <ele>728</ele>
        <time>2019-03-24T13:54:54.506Z</time>
      </trkpt>
      <trkpt lat="45.64549" lon="5.71942">
        <ele>728</ele>
        <time>2019-03-24T13:55:09.500Z</time>
      </trkpt>
      <trkpt lat="45.6455" lon="5.71942">
        <ele>728</ele>
        <time>2019-03-24T13:55:14.515Z</time>
      </trkpt>
      <trkpt lat="45.64551" lon="5.71942">
        <ele>728</ele>
        <time>2019-03-24T13:55:19.507Z</time>
      </trkpt>
      <trkpt lat="45.64558" lon="5.71953">
        <ele>728</ele>
        <time>2019-03-24T13:55:24.507Z</time>
      </trkpt>
      <trkpt lat="45.64566" lon="5.71956">
        <ele>728</ele>
        <time>2019-03-24T13:55:29.535Z</time>
      </trkpt>
      <trkpt lat="45.64573" lon="5.71958">
        <ele>727</ele>
        <time>2019-03-24T13:55:34.493Z</time>
      </trkpt>
      <trkpt lat="45.64576" lon="5.71959">
        <ele>725</ele>
        <time>2019-03-24T13:55:38.500Z</time>
      </trkpt>
      <trkpt lat="45.64578" lon="5.7196">
        <ele>725</ele>
        <time>2019-03-24T13:55:43.515Z</time>
      </trkpt>
      <trkpt lat="45.64586" lon="5.71961">
        <ele>725</ele>
        <time>2019-03-24T13:55:48.495Z</time>
      </trkpt>
      <trkpt lat="45.64592" lon="5.71964">
        <ele>725</ele>
        <time>2019-03-24T13:55:53.489Z</time>
      </trkpt>
      <trkpt lat="45.646" lon="5.71966">
        <ele>722</ele>
        <time>2019-03-24T13:55:57.525Z</time>
      </trkpt>
      <trkpt lat="45.64607" lon="5.71965">
        <ele>722</ele>
        <time>2019-03-24T13:56:02.501Z</time>
      </trkpt>
      <trkpt lat="45.64611" lon="5.71963">
        <ele>722</ele>
        <time>2019-03-24T13:56:07.512Z</time>
      </trkpt>
      <trkpt lat="45.64614" lon="5.71961">
        <ele>722</ele>
        <time>2019-03-24T13:56:12.510Z</time>
      </trkpt>
      <trkpt lat="45.64616" lon="5.7196">
        <ele>722</ele>
        <time>2019-03-24T13:56:17.520Z</time>
      </trkpt>
      <trkpt lat="45.6462" lon="5.71958">
        <ele>727</ele>
        <time>2019-03-24T13:56:22.501Z</time>
      </trkpt>
      <trkpt lat="45.64622" lon="5.71958">
        <ele>727</ele>
        <time>2019-03-24T13:56:26.510Z</time>
      </trkpt>
      <trkpt lat="45.64624" lon="5.71959">
        <ele>722</ele>
        <time>2019-03-24T13:56:31.506Z</time>
      </trkpt>
      <trkpt lat="45.64625" lon="5.7196">
        <ele>720</ele>
        <time>2019-03-24T13:56:36.503Z</time>
      </trkpt>
      <trkpt lat="45.64628" lon="5.71966">
        <ele>720</ele>
        <time>2019-03-24T13:56:41.496Z</time>
      </trkpt>
      <trkpt lat="45.64632" lon="5.71972">
        <ele>720</ele>
        <time>2019-03-24T13:56:45.540Z</time>
      </trkpt>
      <trkpt lat="45.64636" lon="5.71977">
        <ele>720</ele>
        <time>2019-03-24T13:56:50.536Z</time>
      </trkpt>
      <trkpt lat="45.64643" lon="5.71988">
        <ele>717</ele>
        <time>2019-03-24T13:56:55.500Z</time>
      </trkpt>
      <trkpt lat="45.64646" lon="5.71993">
        <ele>717</ele>
        <time>2019-03-24T13:57:00.518Z</time>
      </trkpt>
      <trkpt lat="45.64647" lon="5.71995">
        <ele>717</ele>
        <time>2019-03-24T13:57:05.508Z</time>
      </trkpt>
      <trkpt lat="45.6465" lon="5.71998">
        <ele>717</ele>
        <time>2019-03-24T13:57:09.510Z</time>
      </trkpt>
      <trkpt lat="45.64652" lon="5.72009">
        <ele>717</ele>
        <time>2019-03-24T13:57:14.525Z</time>
      </trkpt>
      <trkpt lat="45.64657" lon="5.72016">
        <ele>712</ele>
        <time>2019-03-24T13:57:19.493Z</time>
      </trkpt>
      <trkpt lat="45.64661" lon="5.72014">
        <ele>712</ele>
        <time>2019-03-24T13:57:24.515Z</time>
      </trkpt>
      <trkpt lat="45.64661" lon="5.72014">
        <ele>715</ele>
        <time>2019-03-24T13:57:29.529Z</time>
      </trkpt>
      <trkpt lat="45.64661" lon="5.72014">
        <ele>715</ele>
        <time>2019-03-24T13:57:34.508Z</time>
      </trkpt>
      <trkpt lat="45.64662" lon="5.72014">
        <ele>715</ele>
        <time>2019-03-24T13:57:39.514Z</time>
      </trkpt>
      <trkpt lat="45.64663" lon="5.72014">
        <ele>715</ele>
        <time>2019-03-24T13:57:44.503Z</time>
      </trkpt>
      <trkpt lat="45.64663" lon="5.72014">
        <ele>715</ele>
        <time>2019-03-24T13:57:49.527Z</time>
      </trkpt>
      <trkpt lat="45.64664" lon="5.72014">
        <ele>712</ele>
        <time>2019-03-24T13:57:54.512Z</time>
      </trkpt>
      <trkpt lat="45.64671" lon="5.72018">
        <ele>712</ele>
        <time>2019-03-24T13:57:58.505Z</time>
      </trkpt>
      <trkpt lat="45.64674" lon="5.72016">
        <ele>712</ele>
        <time>2019-03-24T13:58:02.538Z</time>
      </trkpt>
      <trkpt lat="45.64682" lon="5.72024">
        <ele>711</ele>
        <time>2019-03-24T13:58:07.514Z</time>
      </trkpt>
      <trkpt lat="45.64688" lon="5.72031">
        <ele>711</ele>
        <time>2019-03-24T13:58:12.542Z</time>
      </trkpt>
      <trkpt lat="45.64694" lon="5.72038">
        <ele>711</ele>
        <time>2019-03-24T13:58:17.494Z</time>
      </trkpt>
      <trkpt lat="45.64708" lon="5.72042">
        <ele>707</ele>
        <time>2019-03-24T13:58:22.530Z</time>
      </trkpt>
      <trkpt lat="45.64718" lon="5.72044">
        <ele>708</ele>
        <time>2019-03-24T13:58:27.512Z</time>
      </trkpt>
      <trkpt lat="45.64723" lon="5.72048">
        <ele>708</ele>
        <time>2019-03-24T13:58:32.507Z</time>
      </trkpt>
      <trkpt lat="45.64728" lon="5.72051">
        <ele>708</ele>
        <time>2019-03-24T13:58:37.495Z</time>
      </trkpt>
      <trkpt lat="45.64731" lon="5.72055">
        <ele>708</ele>
        <time>2019-03-24T13:58:42.497Z</time>
      </trkpt>
      <trkpt lat="45.64734" lon="5.7206">
        <ele>708</ele>
        <time>2019-03-24T13:58:47.510Z</time>
      </trkpt>
      <trkpt lat="45.64736" lon="5.72062">
        <ele>708</ele>
        <time>2019-03-24T13:58:51.540Z</time>
      </trkpt>
      <trkpt lat="45.64739" lon="5.72064">
        <ele>708</ele>
        <time>2019-03-24T13:58:56.511Z</time>
      </trkpt>
      <trkpt lat="45.64742" lon="5.7207">
        <ele>703</ele>
        <time>2019-03-24T13:59:01.502Z</time>
      </trkpt>
      <trkpt lat="45.64747" lon="5.72073">
        <ele>703</ele>
        <time>2019-03-24T13:59:06.529Z</time>
      </trkpt>
      <trkpt lat="45.64757" lon="5.72079">
        <ele>703</ele>
        <time>2019-03-24T13:59:11.524Z</time>
      </trkpt>
      <trkpt lat="45.64766" lon="5.72082">
        <ele>702</ele>
        <time>2019-03-24T13:59:16.507Z</time>
      </trkpt>
      <trkpt lat="45.64771" lon="5.72081">
        <ele>702</ele>
        <time>2019-03-24T13:59:20.513Z</time>
      </trkpt>
      <trkpt lat="45.64773" lon="5.72081">
        <ele>702</ele>
        <time>2019-03-24T13:59:25.517Z</time>
      </trkpt>
      <trkpt lat="45.64782" lon="5.72081">
        <ele>702</ele>
        <time>2019-03-24T13:59:30.496Z</time>
      </trkpt>
      <trkpt lat="45.64787" lon="5.72084">
        <ele>702</ele>
        <time>2019-03-24T13:59:34.503Z</time>
      </trkpt>
      <trkpt lat="45.64792" lon="5.72088">
        <ele>702</ele>
        <time>2019-03-24T13:59:39.496Z</time>
      </trkpt>
      <trkpt lat="45.64792" lon="5.72088">
        <ele>702</ele>
        <time>2019-03-24T13:59:44.527Z</time>
      </trkpt>
      <trkpt lat="45.64794" lon="5.72094">
        <ele>702</ele>
        <time>2019-03-24T13:59:49.536Z</time>
      </trkpt>
      <trkpt lat="45.64796" lon="5.721">
        <ele>698</ele>
        <time>2019-03-24T13:59:54.501Z</time>
      </trkpt>
      <trkpt lat="45.64799" lon="5.72099">
        <ele>698</ele>
        <time>2019-03-24T13:59:59.516Z</time>
      </trkpt>
      <trkpt lat="45.64804" lon="5.72097">
        <ele>702</ele>
        <time>2019-03-24T14:00:04.505Z</time>
      </trkpt>
      <trkpt lat="45.64807" lon="5.72099">
        <ele>698</ele>
        <time>2019-03-24T14:00:09.508Z</time>
      </trkpt>
      <trkpt lat="45.64809" lon="5.72101">
        <ele>698</ele>
        <time>2019-03-24T14:00:14.526Z</time>
      </trkpt>
      <trkpt lat="45.64814" lon="5.72105">
        <ele>698</ele>
        <time>2019-03-24T14:00:19.503Z</time>
      </trkpt>
      <trkpt lat="45.64816" lon="5.72107">
        <ele>698</ele>
        <time>2019-03-24T14:00:23.505Z</time>
      </trkpt>
      <trkpt lat="45.64816" lon="5.72108">
        <ele>698</ele>
        <time>2019-03-24T14:00:28.494Z</time>
      </trkpt>
      <trkpt lat="45.64819" lon="5.72114">
        <ele>698</ele>
        <time>2019-03-24T14:00:33.504Z</time>
      </trkpt>
      <trkpt lat="45.64816" lon="5.7212">
        <ele>698</ele>
        <time>2019-03-24T14:00:37.516Z</time>
      </trkpt>
      <trkpt lat="45.6481" lon="5.72126">
        <ele>694</ele>
        <time>2019-03-24T14:00:42.499Z</time>
      </trkpt>
      <trkpt lat="45.64806" lon="5.72131">
        <ele>694</ele>
        <time>2019-03-24T14:00:47.497Z</time>
      </trkpt>
      <trkpt lat="45.64803" lon="5.72135">
        <ele>694</ele>
        <time>2019-03-24T14:00:51.509Z</time>
      </trkpt>
      <trkpt lat="45.64801" lon="5.72142">
        <ele>694</ele>
        <time>2019-03-24T14:00:56.530Z</time>
      </trkpt>
      <trkpt lat="45.64799" lon="5.72148">
        <ele>694</ele>
        <time>2019-03-24T14:01:00.541Z</time>
      </trkpt>
      <trkpt lat="45.64795" lon="5.72154">
        <ele>692</ele>
        <time>2019-03-24T14:01:05.501Z</time>
      </trkpt>
      <trkpt lat="45.64792" lon="5.72159">
        <ele>692</ele>
        <time>2019-03-24T14:01:10.496Z</time>
      </trkpt>
      <trkpt lat="45.6479" lon="5.72163">
        <ele>692</ele>
        <time>2019-03-24T14:01:14.500Z</time>
      </trkpt>
      <trkpt lat="45.64787" lon="5.72168">
        <ele>692</ele>
        <time>2019-03-24T14:01:19.505Z</time>
      </trkpt>
      <trkpt lat="45.64785" lon="5.72176">
        <ele>692</ele>
        <time>2019-03-24T14:01:24.497Z</time>
      </trkpt>
      <trkpt lat="45.64784" lon="5.72184">
        <ele>689</ele>
        <time>2019-03-24T14:01:29.513Z</time>
      </trkpt>
      <trkpt lat="45.64781" lon="5.72189">
        <ele>689</ele>
        <time>2019-03-24T14:01:34.499Z</time>
      </trkpt>
      <trkpt lat="45.64775" lon="5.72193">
        <ele>689</ele>
        <time>2019-03-24T14:01:39.529Z</time>
      </trkpt>
      <trkpt lat="45.64772" lon="5.72196">
        <ele>689</ele>
        <time>2019-03-24T14:01:44.496Z</time>
      </trkpt>
      <trkpt lat="45.64769" lon="5.72201">
        <ele>689</ele>
        <time>2019-03-24T14:01:49.507Z</time>
      </trkpt>
      <trkpt lat="45.64766" lon="5.72207">
        <ele>689</ele>
        <time>2019-03-24T14:01:54.501Z</time>
      </trkpt>
      <trkpt lat="45.64759" lon="5.72212">
        <ele>682</ele>
        <time>2019-03-24T14:02:26.539Z</time>
      </trkpt>
      <trkpt lat="45.64758" lon="5.72213">
        <ele>682</ele>
        <time>2019-03-24T14:02:31.524Z</time>
      </trkpt>
      <trkpt lat="45.64757" lon="5.72213">
        <ele>682</ele>
        <time>2019-03-24T14:02:36.489Z</time>
      </trkpt>
      <trkpt lat="45.64758" lon="5.72214">
        <ele>682</ele>
        <time>2019-03-24T14:02:41.485Z</time>
      </trkpt>
      <trkpt lat="45.64756" lon="5.72217">
        <ele>682</ele>
        <time>2019-03-24T14:02:45.497Z</time>
      </trkpt>
      <trkpt lat="45.6475" lon="5.72221">
        <ele>682</ele>
        <time>2019-03-24T14:02:50.486Z</time>
      </trkpt>
      <trkpt lat="45.64744" lon="5.72224">
        <ele>682</ele>
        <time>2019-03-24T14:02:54.509Z</time>
      </trkpt>
      <trkpt lat="45.64737" lon="5.72228">
        <ele>682</ele>
        <time>2019-03-24T14:02:59.510Z</time>
      </trkpt>
      <trkpt lat="45.64733" lon="5.72232">
        <ele>683</ele>
        <time>2019-03-24T14:03:04.505Z</time>
      </trkpt>
      <trkpt lat="45.64727" lon="5.72233">
        <ele>683</ele>
        <time>2019-03-24T14:03:09.509Z</time>
      </trkpt>
      <trkpt lat="45.64724" lon="5.72233">
        <ele>683</ele>
        <time>2019-03-24T14:03:13.546Z</time>
      </trkpt>
      <trkpt lat="45.64718" lon="5.72233">
        <ele>683</ele>
        <time>2019-03-24T14:03:18.500Z</time>
      </trkpt>
      <trkpt lat="45.64713" lon="5.72235">
        <ele>683</ele>
        <time>2019-03-24T14:03:22.502Z</time>
      </trkpt>
      <trkpt lat="45.64707" lon="5.72236">
        <ele>678</ele>
        <time>2019-03-24T14:03:26.525Z</time>
      </trkpt>
      <trkpt lat="45.64698" lon="5.72241">
        <ele>678</ele>
        <time>2019-03-24T14:03:31.511Z</time>
      </trkpt>
      <trkpt lat="45.64689" lon="5.72249">
        <ele>678</ele>
        <time>2019-03-24T14:03:36.496Z</time>
      </trkpt>
      <trkpt lat="45.64684" lon="5.72252">
        <ele>678</ele>
        <time>2019-03-24T14:03:40.509Z</time>
      </trkpt>
      <trkpt lat="45.64683" lon="5.72253">
        <ele>678</ele>
        <time>2019-03-24T14:03:44.531Z</time>
      </trkpt>
      <trkpt lat="45.64686" lon="5.7226">
        <ele>678</ele>
        <time>2019-03-24T14:03:49.529Z</time>
      </trkpt>
      <trkpt lat="45.64692" lon="5.72265">
        <ele>672</ele>
        <time>2019-03-24T14:03:54.502Z</time>
      </trkpt>
      <trkpt lat="45.64697" lon="5.72267">
        <ele>672</ele>
        <time>2019-03-24T14:03:59.507Z</time>
      </trkpt>
      <trkpt lat="45.64702" lon="5.72273">
        <ele>672</ele>
        <time>2019-03-24T14:04:04.516Z</time>
      </trkpt>
      <trkpt lat="45.64702" lon="5.72271">
        <ele>672</ele>
        <time>2019-03-24T14:04:09.499Z</time>
      </trkpt>
      <trkpt lat="45.64707" lon="5.72269">
        <ele>672</ele>
        <time>2019-03-24T14:04:13.518Z</time>
      </trkpt>
      <trkpt lat="45.64713" lon="5.72268">
        <ele>673</ele>
        <time>2019-03-24T14:04:17.537Z</time>
      </trkpt>
      <trkpt lat="45.64711" lon="5.72263">
        <ele>679</ele>
        <time>2019-03-24T14:04:32.495Z</time>
      </trkpt>
      <trkpt lat="45.64722" lon="5.72266">
        <ele>673</ele>
        <time>2019-03-24T14:04:37.529Z</time>
      </trkpt>
      <trkpt lat="45.6473" lon="5.72268">
        <ele>673</ele>
        <time>2019-03-24T14:04:42.499Z</time>
      </trkpt>
      <trkpt lat="45.64733" lon="5.72268">
        <ele>673</ele>
        <time>2019-03-24T14:04:46.521Z</time>
      </trkpt>
      <trkpt lat="45.6474" lon="5.72267">
        <ele>671</ele>
        <time>2019-03-24T14:04:51.499Z</time>
      </trkpt>
      <trkpt lat="45.64753" lon="5.72269">
        <ele>671</ele>
        <time>2019-03-24T14:04:56.495Z</time>
      </trkpt>
      <trkpt lat="45.64759" lon="5.72266">
        <ele>671</ele>
        <time>2019-03-24T14:05:01.513Z</time>
      </trkpt>
      <trkpt lat="45.64767" lon="5.72266">
        <ele>670</ele>
        <time>2019-03-24T14:05:06.511Z</time>
      </trkpt>
      <trkpt lat="45.64773" lon="5.72268">
        <ele>670</ele>
        <time>2019-03-24T14:05:10.542Z</time>
      </trkpt>
      <trkpt lat="45.64779" lon="5.7227">
        <ele>670</ele>
        <time>2019-03-24T14:05:15.495Z</time>
      </trkpt>
      <trkpt lat="45.64784" lon="5.72272">
        <ele>670</ele>
        <time>2019-03-24T14:05:19.519Z</time>
      </trkpt>
      <trkpt lat="45.64792" lon="5.72272">
        <ele>669</ele>
        <time>2019-03-24T14:05:24.505Z</time>
      </trkpt>
      <trkpt lat="45.64799" lon="5.7227">
        <ele>669</ele>
        <time>2019-03-24T14:05:29.512Z</time>
      </trkpt>
      <trkpt lat="45.64802" lon="5.72268">
        <ele>669</ele>
        <time>2019-03-24T14:05:34.515Z</time>
      </trkpt>
      <trkpt lat="45.64808" lon="5.72262">
        <ele>678</ele>
        <time>2019-03-24T14:05:39.503Z</time>
      </trkpt>
      <trkpt lat="45.64813" lon="5.72259">
        <ele>678</ele>
        <time>2019-03-24T14:05:43.504Z</time>
      </trkpt>
      <trkpt lat="45.64818" lon="5.72255">
        <ele>678</ele>
        <time>2019-03-24T14:05:48.510Z</time>
      </trkpt>
      <trkpt lat="45.64823" lon="5.72249">
        <ele>679</ele>
        <time>2019-03-24T14:05:53.496Z</time>
      </trkpt>
      <trkpt lat="45.64828" lon="5.72247">
        <ele>679</ele>
        <time>2019-03-24T14:05:57.508Z</time>
      </trkpt>
      <trkpt lat="45.64832" lon="5.72244">
        <ele>679</ele>
        <time>2019-03-24T14:06:02.504Z</time>
      </trkpt>
      <trkpt lat="45.64837" lon="5.7224">
        <ele>679</ele>
        <time>2019-03-24T14:06:07.497Z</time>
      </trkpt>
      <trkpt lat="45.64846" lon="5.72234">
        <ele>685</ele>
        <time>2019-03-24T14:06:12.526Z</time>
      </trkpt>
      <trkpt lat="45.64852" lon="5.72229">
        <ele>683</ele>
        <time>2019-03-24T14:06:17.508Z</time>
      </trkpt>
      <trkpt lat="45.64855" lon="5.72224">
        <ele>683</ele>
        <time>2019-03-24T14:06:21.524Z</time>
      </trkpt>
      <trkpt lat="45.64862" lon="5.72219">
        <ele>683</ele>
        <time>2019-03-24T14:06:26.512Z</time>
      </trkpt>
      <trkpt lat="45.64868" lon="5.72216">
        <ele>683</ele>
        <time>2019-03-24T14:06:31.501Z</time>
      </trkpt>
      <trkpt lat="45.64875" lon="5.72215">
        <ele>683</ele>
        <time>2019-03-24T14:06:35.520Z</time>
      </trkpt>
      <trkpt lat="45.64882" lon="5.72213">
        <ele>682</ele>
        <time>2019-03-24T14:06:40.512Z</time>
      </trkpt>
      <trkpt lat="45.64892" lon="5.72213">
        <ele>682</ele>
        <time>2019-03-24T14:06:45.514Z</time>
      </trkpt>
      <trkpt lat="45.64903" lon="5.72212">
        <ele>683</ele>
        <time>2019-03-24T14:06:50.506Z</time>
      </trkpt>
      <trkpt lat="45.64908" lon="5.72209">
        <ele>683</ele>
        <time>2019-03-24T14:06:55.518Z</time>
      </trkpt>
      <trkpt lat="45.64914" lon="5.72209">
        <ele>683</ele>
        <time>2019-03-24T14:07:00.492Z</time>
      </trkpt>
      <trkpt lat="45.64919" lon="5.72212">
        <ele>683</ele>
        <time>2019-03-24T14:07:04.532Z</time>
      </trkpt>
      <trkpt lat="45.64926" lon="5.72216">
        <ele>683</ele>
        <time>2019-03-24T14:07:09.506Z</time>
      </trkpt>
      <trkpt lat="45.64933" lon="5.72219">
        <ele>683</ele>
        <time>2019-03-24T14:07:14.500Z</time>
      </trkpt>
      <trkpt lat="45.6494" lon="5.72222">
        <ele>683</ele>
        <time>2019-03-24T14:07:19.499Z</time>
      </trkpt>
      <trkpt lat="45.64948" lon="5.72224">
        <ele>683</ele>
        <time>2019-03-24T14:07:24.548Z</time>
      </trkpt>
      <trkpt lat="45.64953" lon="5.72227">
        <ele>683</ele>
        <time>2019-03-24T14:07:29.491Z</time>
      </trkpt>
      <trkpt lat="45.64955" lon="5.72226">
        <ele>683</ele>
        <time>2019-03-24T14:07:34.511Z</time>
      </trkpt>
      <trkpt lat="45.64963" lon="5.72226">
        <ele>685</ele>
        <time>2019-03-24T14:07:39.488Z</time>
      </trkpt>
      <trkpt lat="45.64966" lon="5.72223">
        <ele>685</ele>
        <time>2019-03-24T14:07:44.511Z</time>
      </trkpt>
      <trkpt lat="45.64977" lon="5.72224">
        <ele>685</ele>
        <time>2019-03-24T14:07:49.528Z</time>
      </trkpt>
      <trkpt lat="45.64986" lon="5.72225">
        <ele>685</ele>
        <time>2019-03-24T14:07:54.490Z</time>
      </trkpt>
      <trkpt lat="45.64994" lon="5.72225">
        <ele>685</ele>
        <time>2019-03-24T14:07:59.488Z</time>
      </trkpt>
      <trkpt lat="45.65001" lon="5.72225">
        <ele>685</ele>
        <time>2019-03-24T14:08:04.514Z</time>
      </trkpt>
      <trkpt lat="45.65008" lon="5.72223">
        <ele>685</ele>
        <time>2019-03-24T14:08:09.500Z</time>
      </trkpt>
      <trkpt lat="45.65013" lon="5.7222">
        <ele>685</ele>
        <time>2019-03-24T14:08:14.511Z</time>
      </trkpt>
      <trkpt lat="45.6502" lon="5.72214">
        <ele>685</ele>
        <time>2019-03-24T14:08:19.519Z</time>
      </trkpt>
      <trkpt lat="45.65024" lon="5.72212">
        <ele>685</ele>
        <time>2019-03-24T14:08:24.501Z</time>
      </trkpt>
      <trkpt lat="45.65027" lon="5.72211">
        <ele>685</ele>
        <time>2019-03-24T14:08:28.508Z</time>
      </trkpt>
      <trkpt lat="45.6503" lon="5.72208">
        <ele>689</ele>
        <time>2019-03-24T14:08:32.529Z</time>
      </trkpt>
      <trkpt lat="45.65039" lon="5.72205">
        <ele>689</ele>
        <time>2019-03-24T14:08:37.492Z</time>
      </trkpt>
      <trkpt lat="45.65043" lon="5.72203">
        <ele>687</ele>
        <time>2019-03-24T14:08:41.521Z</time>
      </trkpt>
      <trkpt lat="45.65049" lon="5.72203">
        <ele>687</ele>
        <time>2019-03-24T14:08:46.531Z</time>
      </trkpt>
      <trkpt lat="45.65055" lon="5.72205">
        <ele>687</ele>
        <time>2019-03-24T14:08:51.489Z</time>
      </trkpt>
      <trkpt lat="45.65063" lon="5.72206">
        <ele>687</ele>
        <time>2019-03-24T14:08:55.501Z</time>
      </trkpt>
      <trkpt lat="45.65078" lon="5.72205">
        <ele>683</ele>
        <time>2019-03-24T14:09:00.494Z</time>
      </trkpt>
      <trkpt lat="45.65113" lon="5.722">
        <ele>678</ele>
        <time>2019-03-24T14:09:05.499Z</time>
      </trkpt>
      <trkpt lat="45.65148" lon="5.72192">
        <ele>677</ele>
        <time>2019-03-24T14:09:10.503Z</time>
      </trkpt>
      <trkpt lat="45.65174" lon="5.72196">
        <ele>677</ele>
        <time>2019-03-24T14:09:15.490Z</time>
      </trkpt>
      <trkpt lat="45.65177" lon="5.72195">
        <ele>677</ele>
        <time>2019-03-24T14:09:20.502Z</time>
      </trkpt>
      <trkpt lat="45.6518" lon="5.7219">
        <ele>677</ele>
        <time>2019-03-24T14:09:29.512Z</time>
      </trkpt>
      <trkpt lat="45.6518" lon="5.72187">
        <ele>677</ele>
        <time>2019-03-24T14:09:34.507Z</time>
      </trkpt>
      <trkpt lat="45.65186" lon="5.72184">
        <ele>675</ele>
        <time>2019-03-24T14:09:39.492Z</time>
      </trkpt>
      <trkpt lat="45.65192" lon="5.72181">
        <ele>675</ele>
        <time>2019-03-24T14:09:44.492Z</time>
      </trkpt>
      <trkpt lat="45.65195" lon="5.72173">
        <ele>677</ele>
        <time>2019-03-24T14:09:49.529Z</time>
      </trkpt>
      <trkpt lat="45.652" lon="5.72169">
        <ele>677</ele>
        <time>2019-03-24T14:09:54.489Z</time>
      </trkpt>
      <trkpt lat="45.65202" lon="5.7217">
        <ele>677</ele>
        <time>2019-03-24T14:09:58.515Z</time>
      </trkpt>
      <trkpt lat="45.65208" lon="5.72175">
        <ele>677</ele>
        <time>2019-03-24T14:10:03.487Z</time>
      </trkpt>
      <trkpt lat="45.65218" lon="5.7218">
        <ele>672</ele>
        <time>2019-03-24T14:10:08.508Z</time>
      </trkpt>
      <trkpt lat="45.65227" lon="5.72184">
        <ele>672</ele>
        <time>2019-03-24T14:10:13.494Z</time>
      </trkpt>
      <trkpt lat="45.65235" lon="5.72187">
        <ele>672</ele>
        <time>2019-03-24T14:10:18.496Z</time>
      </trkpt>
      <trkpt lat="45.65242" lon="5.72189">
        <ele>666</ele>
        <time>2019-03-24T14:10:23.484Z</time>
      </trkpt>
      <trkpt lat="45.65245" lon="5.72189">
        <ele>666</ele>
        <time>2019-03-24T14:10:27.510Z</time>
      </trkpt>
      <trkpt lat="45.6525" lon="5.72191">
        <ele>666</ele>
        <time>2019-03-24T14:10:32.493Z</time>
      </trkpt>
      <trkpt lat="45.65258" lon="5.72194">
        <ele>666</ele>
        <time>2019-03-24T14:10:37.496Z</time>
      </trkpt>
      <trkpt lat="45.65262" lon="5.72195">
        <ele>666</ele>
        <time>2019-03-24T14:10:41.526Z</time>
      </trkpt>
      <trkpt lat="45.65268" lon="5.722">
        <ele>663</ele>
        <time>2019-03-24T14:10:46.495Z</time>
      </trkpt>
      <trkpt lat="45.65274" lon="5.72207">
        <ele>663</ele>
        <time>2019-03-24T14:10:51.490Z</time>
      </trkpt>
      <trkpt lat="45.65278" lon="5.72213">
        <ele>661</ele>
        <time>2019-03-24T14:10:55.502Z</time>
      </trkpt>
      <trkpt lat="45.6528" lon="5.72221">
        <ele>661</ele>
        <time>2019-03-24T14:11:00.493Z</time>
      </trkpt>
      <trkpt lat="45.65281" lon="5.72228">
        <ele>661</ele>
        <time>2019-03-24T14:11:04.515Z</time>
      </trkpt>
      <trkpt lat="45.65281" lon="5.72237">
        <ele>659</ele>
        <time>2019-03-24T14:11:08.535Z</time>
      </trkpt>
      <trkpt lat="45.65281" lon="5.72245">
        <ele>659</ele>
        <time>2019-03-24T14:11:13.515Z</time>
      </trkpt>
      <trkpt lat="45.65282" lon="5.72258">
        <ele>659</ele>
        <time>2019-03-24T14:11:18.518Z</time>
      </trkpt>
      <trkpt lat="45.65283" lon="5.72269">
        <ele>656</ele>
        <time>2019-03-24T14:11:23.504Z</time>
      </trkpt>
      <trkpt lat="45.65283" lon="5.72275">
        <ele>656</ele>
        <time>2019-03-24T14:11:27.514Z</time>
      </trkpt>
      <trkpt lat="45.65283" lon="5.72285">
        <ele>656</ele>
        <time>2019-03-24T14:11:32.494Z</time>
      </trkpt>
      <trkpt lat="45.65282" lon="5.72294">
        <ele>654</ele>
        <time>2019-03-24T14:11:37.500Z</time>
      </trkpt>
      <trkpt lat="45.65282" lon="5.72306">
        <ele>654</ele>
        <time>2019-03-24T14:11:42.491Z</time>
      </trkpt>
      <trkpt lat="45.65282" lon="5.72314">
        <ele>654</ele>
        <time>2019-03-24T14:11:46.507Z</time>
      </trkpt>
      <trkpt lat="45.65285" lon="5.7232">
        <ele>652</ele>
        <time>2019-03-24T14:11:51.494Z</time>
      </trkpt>
      <trkpt lat="45.65288" lon="5.72327">
        <ele>652</ele>
        <time>2019-03-24T14:11:56.485Z</time>
      </trkpt>
      <trkpt lat="45.65289" lon="5.72334">
        <ele>652</ele>
        <time>2019-03-24T14:12:00.502Z</time>
      </trkpt>
      <trkpt lat="45.65294" lon="5.72344">
        <ele>650</ele>
        <time>2019-03-24T14:12:05.527Z</time>
      </trkpt>
      <trkpt lat="45.65298" lon="5.72353">
        <ele>648</ele>
        <time>2019-03-24T14:12:10.500Z</time>
      </trkpt>
      <trkpt lat="45.65302" lon="5.72359">
        <ele>648</ele>
        <time>2019-03-24T14:12:15.492Z</time>
      </trkpt>
      <trkpt lat="45.65307" lon="5.72361">
        <ele>648</ele>
        <time>2019-03-24T14:12:19.527Z</time>
      </trkpt>
      <trkpt lat="45.65309" lon="5.72369">
        <ele>648</ele>
        <time>2019-03-24T14:12:24.535Z</time>
      </trkpt>
      <trkpt lat="45.65307" lon="5.72381">
        <ele>644</ele>
        <time>2019-03-24T14:12:29.501Z</time>
      </trkpt>
      <trkpt lat="45.65304" lon="5.72389">
        <ele>644</ele>
        <time>2019-03-24T14:12:33.527Z</time>
      </trkpt>
      <trkpt lat="45.65304" lon="5.72399">
        <ele>644</ele>
        <time>2019-03-24T14:12:38.508Z</time>
      </trkpt>
      <trkpt lat="45.65306" lon="5.72404">
        <ele>640</ele>
        <time>2019-03-24T14:12:43.505Z</time>
      </trkpt>
      <trkpt lat="45.65307" lon="5.7241">
        <ele>640</ele>
        <time>2019-03-24T14:12:48.499Z</time>
      </trkpt>
      <trkpt lat="45.6531" lon="5.72416">
        <ele>640</ele>
        <time>2019-03-24T14:12:52.510Z</time>
      </trkpt>
      <trkpt lat="45.6531" lon="5.72425">
        <ele>640</ele>
        <time>2019-03-24T14:12:57.524Z</time>
      </trkpt>
      <trkpt lat="45.65309" lon="5.72436">
        <ele>638</ele>
        <time>2019-03-24T14:13:02.510Z</time>
      </trkpt>
      <trkpt lat="45.6531" lon="5.72451">
        <ele>638</ele>
        <time>2019-03-24T14:13:07.506Z</time>
      </trkpt>
      <trkpt lat="45.6531" lon="5.72461">
        <ele>636</ele>
        <time>2019-03-24T14:13:12.495Z</time>
      </trkpt>
      <trkpt lat="45.65311" lon="5.72468">
        <ele>636</ele>
        <time>2019-03-24T14:13:17.508Z</time>
      </trkpt>
      <trkpt lat="45.65313" lon="5.72475">
        <ele>636</ele>
        <time>2019-03-24T14:13:22.500Z</time>
      </trkpt>
      <trkpt lat="45.65315" lon="5.72483">
        <ele>636</ele>
        <time>2019-03-24T14:13:26.524Z</time>
      </trkpt>
      <trkpt lat="45.65317" lon="5.7249">
        <ele>636</ele>
        <time>2019-03-24T14:13:31.503Z</time>
      </trkpt>
      <trkpt lat="45.65319" lon="5.72492">
        <ele>636</ele>
        <time>2019-03-24T14:13:35.512Z</time>
      </trkpt>
      <trkpt lat="45.65324" lon="5.72498">
        <ele>634</ele>
        <time>2019-03-24T14:13:40.538Z</time>
      </trkpt>
      <trkpt lat="45.65328" lon="5.72505">
        <ele>634</ele>
        <time>2019-03-24T14:13:45.499Z</time>
      </trkpt>
      <trkpt lat="45.6533" lon="5.72508">
        <ele>634</ele>
        <time>2019-03-24T14:13:49.508Z</time>
      </trkpt>
      <trkpt lat="45.6533" lon="5.72513">
        <ele>634</ele>
        <time>2019-03-24T14:13:53.539Z</time>
      </trkpt>
      <trkpt lat="45.65337" lon="5.72524">
        <ele>634</ele>
        <time>2019-03-24T14:13:58.525Z</time>
      </trkpt>
      <trkpt lat="45.65342" lon="5.72532">
        <ele>634</ele>
        <time>2019-03-24T14:14:03.544Z</time>
      </trkpt>
      <trkpt lat="45.65348" lon="5.72541">
        <ele>632</ele>
        <time>2019-03-24T14:14:08.550Z</time>
      </trkpt>
      <trkpt lat="45.65354" lon="5.72544">
        <ele>633</ele>
        <time>2019-03-24T14:14:13.521Z</time>
      </trkpt>
      <trkpt lat="45.65359" lon="5.72549">
        <ele>633</ele>
        <time>2019-03-24T14:14:18.520Z</time>
      </trkpt>
      <trkpt lat="45.65363" lon="5.72556">
        <ele>633</ele>
        <time>2019-03-24T14:14:23.504Z</time>
      </trkpt>
      <trkpt lat="45.65364" lon="5.7256">
        <ele>633</ele>
        <time>2019-03-24T14:14:27.526Z</time>
      </trkpt>
      <trkpt lat="45.65369" lon="5.72568">
        <ele>633</ele>
        <time>2019-03-24T14:14:32.505Z</time>
      </trkpt>
      <trkpt lat="45.65368" lon="5.72577">
        <ele>634</ele>
        <time>2019-03-24T14:14:37.523Z</time>
      </trkpt>
      <trkpt lat="45.65365" lon="5.72582">
        <ele>634</ele>
        <time>2019-03-24T14:14:42.509Z</time>
      </trkpt>
      <trkpt lat="45.65365" lon="5.72582">
        <ele>634</ele>
        <time>2019-03-24T14:14:47.516Z</time>
      </trkpt>
      <trkpt lat="45.65358" lon="5.72583">
        <ele>634</ele>
        <time>2019-03-24T14:16:15.524Z</time>
      </trkpt>
      <trkpt lat="45.65358" lon="5.72583">
        <ele>634</ele>
        <time>2019-03-24T14:16:20.529Z</time>
      </trkpt>
      <trkpt lat="45.65358" lon="5.72583">
        <ele>634</ele>
        <time>2019-03-24T14:16:25.530Z</time>
      </trkpt>
      <trkpt lat="45.65357" lon="5.72583">
        <ele>634</ele>
        <time>2019-03-24T14:16:29.548Z</time>
      </trkpt>
      <trkpt lat="45.65355" lon="5.72582">
        <ele>634</ele>
        <time>2019-03-24T14:16:34.531Z</time>
      </trkpt>
      <trkpt lat="45.65355" lon="5.72581">
        <ele>634</ele>
        <time>2019-03-24T14:18:17.488Z</time>
      </trkpt>
      <trkpt lat="45.65361" lon="5.72578">
        <ele>634</ele>
        <time>2019-03-24T14:18:21.518Z</time>
      </trkpt>
      <trkpt lat="45.65369" lon="5.72579">
        <ele>634</ele>
        <time>2019-03-24T14:18:26.535Z</time>
      </trkpt>
      <trkpt lat="45.65377" lon="5.72583">
        <ele>635</ele>
        <time>2019-03-24T14:18:31.499Z</time>
      </trkpt>
      <trkpt lat="45.65384" lon="5.72579">
        <ele>635</ele>
        <time>2019-03-24T14:18:36.529Z</time>
      </trkpt>
      <trkpt lat="45.6539" lon="5.72571">
        <ele>635</ele>
        <time>2019-03-24T14:18:41.505Z</time>
      </trkpt>
      <trkpt lat="45.65395" lon="5.72565">
        <ele>634</ele>
        <time>2019-03-24T14:18:46.505Z</time>
      </trkpt>
      <trkpt lat="45.654" lon="5.72559">
        <ele>634</ele>
        <time>2019-03-24T14:18:51.513Z</time>
      </trkpt>
      <trkpt lat="45.65403" lon="5.72554">
        <ele>632</ele>
        <time>2019-03-24T14:18:55.533Z</time>
      </trkpt>
      <trkpt lat="45.65408" lon="5.72552">
        <ele>632</ele>
        <time>2019-03-24T14:19:00.527Z</time>
      </trkpt>
      <trkpt lat="45.65414" lon="5.72555">
        <ele>632</ele>
        <time>2019-03-24T14:19:05.495Z</time>
      </trkpt>
      <trkpt lat="45.65419" lon="5.72555">
        <ele>632</ele>
        <time>2019-03-24T14:19:10.498Z</time>
      </trkpt>
      <trkpt lat="45.65422" lon="5.72555">
        <ele>632</ele>
        <time>2019-03-24T14:19:14.498Z</time>
      </trkpt>
      <trkpt lat="45.65424" lon="5.72557">
        <ele>632</ele>
        <time>2019-03-24T14:19:18.522Z</time>
      </trkpt>
      <trkpt lat="45.65434" lon="5.72553">
        <ele>628</ele>
        <time>2019-03-24T14:19:23.484Z</time>
      </trkpt>
      <trkpt lat="45.65437" lon="5.72547">
        <ele>628</ele>
        <time>2019-03-24T14:19:27.527Z</time>
      </trkpt>
      <trkpt lat="45.65441" lon="5.7254">
        <ele>626</ele>
        <time>2019-03-24T14:19:32.507Z</time>
      </trkpt>
      <trkpt lat="45.65445" lon="5.72533">
        <ele>626</ele>
        <time>2019-03-24T14:19:37.529Z</time>
      </trkpt>
      <trkpt lat="45.65447" lon="5.72526">
        <ele>626</ele>
        <time>2019-03-24T14:19:42.486Z</time>
      </trkpt>
      <trkpt lat="45.65447" lon="5.7252">
        <ele>626</ele>
        <time>2019-03-24T14:19:46.505Z</time>
      </trkpt>
      <trkpt lat="45.65446" lon="5.72512">
        <ele>623</ele>
        <time>2019-03-24T14:19:50.537Z</time>
      </trkpt>
      <trkpt lat="45.65444" lon="5.72503">
        <ele>623</ele>
        <time>2019-03-24T14:19:55.499Z</time>
      </trkpt>
      <trkpt lat="45.65443" lon="5.72501">
        <ele>623</ele>
        <time>2019-03-24T14:19:59.511Z</time>
      </trkpt>
      <trkpt lat="45.65442" lon="5.72495">
        <ele>623</ele>
        <time>2019-03-24T14:20:04.495Z</time>
      </trkpt>
      <trkpt lat="45.65441" lon="5.72487">
        <ele>623</ele>
        <time>2019-03-24T14:20:08.541Z</time>
      </trkpt>
      <trkpt lat="45.6544" lon="5.72477">
        <ele>621</ele>
        <time>2019-03-24T14:20:13.517Z</time>
      </trkpt>
      <trkpt lat="45.6544" lon="5.7247">
        <ele>621</ele>
        <time>2019-03-24T14:20:17.530Z</time>
      </trkpt>
      <trkpt lat="45.65438" lon="5.72456">
        <ele>621</ele>
        <time>2019-03-24T14:20:22.523Z</time>
      </trkpt>
      <trkpt lat="45.6544" lon="5.72447">
        <ele>621</ele>
        <time>2019-03-24T14:20:27.511Z</time>
      </trkpt>
      <trkpt lat="45.65447" lon="5.7244">
        <ele>621</ele>
        <time>2019-03-24T14:20:32.511Z</time>
      </trkpt>
      <trkpt lat="45.65454" lon="5.72437">
        <ele>621</ele>
        <time>2019-03-24T14:20:37.543Z</time>
      </trkpt>
      <trkpt lat="45.6546" lon="5.72432">
        <ele>619</ele>
        <time>2019-03-24T14:20:42.511Z</time>
      </trkpt>
      <trkpt lat="45.65466" lon="5.72427">
        <ele>621</ele>
        <time>2019-03-24T14:20:47.506Z</time>
      </trkpt>
      <trkpt lat="45.65464" lon="5.72428">
        <ele>621</ele>
        <time>2019-03-24T14:20:51.523Z</time>
      </trkpt>
      <trkpt lat="45.65471" lon="5.72427">
        <ele>621</ele>
        <time>2019-03-24T14:20:56.502Z</time>
      </trkpt>
      <trkpt lat="45.65472" lon="5.72426">
        <ele>621</ele>
        <time>2019-03-24T14:21:01.516Z</time>
      </trkpt>
      <trkpt lat="45.65473" lon="5.72422">
        <ele>621</ele>
        <time>2019-03-24T14:21:06.493Z</time>
      </trkpt>
      <trkpt lat="45.65475" lon="5.72406">
        <ele>621</ele>
        <time>2019-03-24T14:21:24.539Z</time>
      </trkpt>
      <trkpt lat="45.65475" lon="5.72405">
        <ele>621</ele>
        <time>2019-03-24T14:21:29.510Z</time>
      </trkpt>
      <trkpt lat="45.65475" lon="5.72405">
        <ele>621</ele>
        <time>2019-03-24T14:21:34.527Z</time>
      </trkpt>
      <trkpt lat="45.65475" lon="5.72404">
        <ele>621</ele>
        <time>2019-03-24T14:21:39.530Z</time>
      </trkpt>
      <trkpt lat="45.65475" lon="5.72403">
        <ele>621</ele>
        <time>2019-03-24T14:21:44.535Z</time>
      </trkpt>
      <trkpt lat="45.65475" lon="5.72403">
        <ele>621</ele>
        <time>2019-03-24T14:21:49.517Z</time>
      </trkpt>
      <trkpt lat="45.65482" lon="5.72412">
        <ele>621</ele>
        <time>2019-03-24T14:21:54.508Z</time>
      </trkpt>
      <trkpt lat="45.65488" lon="5.72414">
        <ele>621</ele>
        <time>2019-03-24T14:21:59.515Z</time>
      </trkpt>
      <trkpt lat="45.65488" lon="5.72414">
        <ele>621</ele>
        <time>2019-03-24T14:22:04.501Z</time>
      </trkpt>
      <trkpt lat="45.65488" lon="5.72414">
        <ele>621</ele>
        <time>2019-03-24T14:22:13.529Z</time>
      </trkpt>
      <trkpt lat="45.65488" lon="5.72413">
        <ele>621</ele>
        <time>2019-03-24T14:22:18.514Z</time>
      </trkpt>
      <trkpt lat="45.6549" lon="5.72415">
        <ele>621</ele>
        <time>2019-03-24T14:22:23.502Z</time>
      </trkpt>
      <trkpt lat="45.65492" lon="5.72418">
        <ele>621</ele>
        <time>2019-03-24T14:22:27.529Z</time>
      </trkpt>
      <trkpt lat="45.65498" lon="5.7242">
        <ele>621</ele>
        <time>2019-03-24T14:22:32.510Z</time>
      </trkpt>
      <trkpt lat="45.65513" lon="5.72429">
        <ele>621</ele>
        <time>2019-03-24T14:23:13.515Z</time>
      </trkpt>
      <trkpt lat="45.65515" lon="5.72431">
        <ele>615</ele>
        <time>2019-03-24T14:23:17.526Z</time>
      </trkpt>
      <trkpt lat="45.6552" lon="5.72432">
        <ele>615</ele>
        <time>2019-03-24T14:23:22.519Z</time>
      </trkpt>
      <trkpt lat="45.65527" lon="5.72432">
        <ele>615</ele>
        <time>2019-03-24T14:23:27.537Z</time>
      </trkpt>
      <trkpt lat="45.65534" lon="5.72433">
        <ele>615</ele>
        <time>2019-03-24T14:23:32.496Z</time>
      </trkpt>
      <trkpt lat="45.65538" lon="5.72434">
        <ele>615</ele>
        <time>2019-03-24T14:23:36.500Z</time>
      </trkpt>
      <trkpt lat="45.65544" lon="5.72432">
        <ele>612</ele>
        <time>2019-03-24T14:23:41.499Z</time>
      </trkpt>
      <trkpt lat="45.65552" lon="5.7243">
        <ele>620</ele>
        <time>2019-03-24T14:23:46.517Z</time>
      </trkpt>
      <trkpt lat="45.65558" lon="5.7243">
        <ele>620</ele>
        <time>2019-03-24T14:23:50.530Z</time>
      </trkpt>
      <trkpt lat="45.65563" lon="5.72428">
        <ele>620</ele>
        <time>2019-03-24T14:23:54.538Z</time>
      </trkpt>
      <trkpt lat="45.65575" lon="5.72431">
        <ele>611</ele>
        <time>2019-03-24T14:23:59.529Z</time>
      </trkpt>
      <trkpt lat="45.65581" lon="5.72433">
        <ele>611</ele>
        <time>2019-03-24T14:24:04.508Z</time>
      </trkpt>
      <trkpt lat="45.65587" lon="5.72432">
        <ele>611</ele>
        <time>2019-03-24T14:24:09.489Z</time>
      </trkpt>
      <trkpt lat="45.65591" lon="5.72432">
        <ele>611</ele>
        <time>2019-03-24T14:24:13.493Z</time>
      </trkpt>
      <trkpt lat="45.65595" lon="5.7243">
        <ele>619</ele>
        <time>2019-03-24T14:24:18.524Z</time>
      </trkpt>
      <trkpt lat="45.65601" lon="5.7243">
        <ele>616</ele>
        <time>2019-03-24T14:24:23.541Z</time>
      </trkpt>
      <trkpt lat="45.65608" lon="5.7243">
        <ele>616</ele>
        <time>2019-03-24T14:24:28.538Z</time>
      </trkpt>
      <trkpt lat="45.65616" lon="5.72431">
        <ele>616</ele>
        <time>2019-03-24T14:24:33.525Z</time>
      </trkpt>
      <trkpt lat="45.65625" lon="5.72434">
        <ele>608</ele>
        <time>2019-03-24T14:24:38.511Z</time>
      </trkpt>
      <trkpt lat="45.65631" lon="5.72434">
        <ele>604</ele>
        <time>2019-03-24T14:24:43.503Z</time>
      </trkpt>
      <trkpt lat="45.65635" lon="5.72435">
        <ele>604</ele>
        <time>2019-03-24T14:24:47.524Z</time>
      </trkpt>
      <trkpt lat="45.65645" lon="5.7244">
        <ele>604</ele>
        <time>2019-03-24T14:24:52.498Z</time>
      </trkpt>
      <trkpt lat="45.65653" lon="5.72438">
        <ele>604</ele>
        <time>2019-03-24T14:24:57.500Z</time>
      </trkpt>
      <trkpt lat="45.65657" lon="5.72434">
        <ele>604</ele>
        <time>2019-03-24T14:25:01.540Z</time>
      </trkpt>
      <trkpt lat="45.65662" lon="5.72435">
        <ele>604</ele>
        <time>2019-03-24T14:25:06.527Z</time>
      </trkpt>
      <trkpt lat="45.65666" lon="5.72432">
        <ele>604</ele>
        <time>2019-03-24T14:25:11.522Z</time>
      </trkpt>
      <trkpt lat="45.65669" lon="5.72432">
        <ele>604</ele>
        <time>2019-03-24T14:25:16.495Z</time>
      </trkpt>
      <trkpt lat="45.65674" lon="5.72432">
        <ele>604</ele>
        <time>2019-03-24T14:25:21.514Z</time>
      </trkpt>
      <trkpt lat="45.65681" lon="5.72432">
        <ele>603</ele>
        <time>2019-03-24T14:25:26.484Z</time>
      </trkpt>
      <trkpt lat="45.65688" lon="5.72431">
        <ele>612</ele>
        <time>2019-03-24T14:25:30.529Z</time>
      </trkpt>
      <trkpt lat="45.65693" lon="5.72433">
        <ele>603</ele>
        <time>2019-03-24T14:25:35.500Z</time>
      </trkpt>
      <trkpt lat="45.65694" lon="5.72434">
        <ele>603</ele>
        <time>2019-03-24T14:25:39.520Z</time>
      </trkpt>
      <trkpt lat="45.65699" lon="5.72436">
        <ele>603</ele>
        <time>2019-03-24T14:25:44.539Z</time>
      </trkpt>
      <trkpt lat="45.65706" lon="5.72437">
        <ele>603</ele>
        <time>2019-03-24T14:25:49.503Z</time>
      </trkpt>
      <trkpt lat="45.65711" lon="5.72439">
        <ele>602</ele>
        <time>2019-03-24T14:25:54.528Z</time>
      </trkpt>
      <trkpt lat="45.65719" lon="5.72442">
        <ele>602</ele>
        <time>2019-03-24T14:25:59.497Z</time>
      </trkpt>
      <trkpt lat="45.65724" lon="5.72445">
        <ele>602</ele>
        <time>2019-03-24T14:26:03.504Z</time>
      </trkpt>
      <trkpt lat="45.6573" lon="5.72448">
        <ele>602</ele>
        <time>2019-03-24T14:26:08.520Z</time>
      </trkpt>
      <trkpt lat="45.65744" lon="5.72447">
        <ele>598</ele>
        <time>2019-03-24T14:26:13.500Z</time>
      </trkpt>
      <trkpt lat="45.65754" lon="5.72447">
        <ele>598</ele>
        <time>2019-03-24T14:26:18.534Z</time>
      </trkpt>
      <trkpt lat="45.65755" lon="5.72449">
        <ele>598</ele>
        <time>2019-03-24T14:26:23.503Z</time>
      </trkpt>
      <trkpt lat="45.65758" lon="5.72452">
        <ele>598</ele>
        <time>2019-03-24T14:26:51.524Z</time>
      </trkpt>
      <trkpt lat="45.65759" lon="5.72453">
        <ele>598</ele>
        <time>2019-03-24T14:26:55.540Z</time>
      </trkpt>
      <trkpt lat="45.65759" lon="5.72453">
        <ele>598</ele>
        <time>2019-03-24T14:27:00.489Z</time>
      </trkpt>
      <trkpt lat="45.65761" lon="5.72454">
        <ele>598</ele>
        <time>2019-03-24T14:27:05.485Z</time>
      </trkpt>
      <trkpt lat="45.65765" lon="5.72454">
        <ele>595</ele>
        <time>2019-03-24T14:27:09.491Z</time>
      </trkpt>
      <trkpt lat="45.65769" lon="5.72451">
        <ele>595</ele>
        <time>2019-03-24T14:27:28.506Z</time>
      </trkpt>
      <trkpt lat="45.6577" lon="5.72451">
        <ele>595</ele>
        <time>2019-03-24T14:27:33.531Z</time>
      </trkpt>
      <trkpt lat="45.6577" lon="5.72451">
        <ele>595</ele>
        <time>2019-03-24T14:27:38.532Z</time>
      </trkpt>
      <trkpt lat="45.65773" lon="5.72448">
        <ele>595</ele>
        <time>2019-03-24T14:27:43.512Z</time>
      </trkpt>
      <trkpt lat="45.65782" lon="5.7245">
        <ele>595</ele>
        <time>2019-03-24T14:27:48.492Z</time>
      </trkpt>
      <trkpt lat="45.65788" lon="5.72452">
        <ele>595</ele>
        <time>2019-03-24T14:27:52.520Z</time>
      </trkpt>
      <trkpt lat="45.65792" lon="5.72454">
        <ele>592</ele>
        <time>2019-03-24T14:27:57.500Z</time>
      </trkpt>
      <trkpt lat="45.65795" lon="5.72456">
        <ele>592</ele>
        <time>2019-03-24T14:28:01.537Z</time>
      </trkpt>
      <trkpt lat="45.658" lon="5.7246">
        <ele>584</ele>
        <time>2019-03-24T14:28:06.501Z</time>
      </trkpt>
      <trkpt lat="45.65809" lon="5.72459">
        <ele>584</ele>
        <time>2019-03-24T14:28:11.538Z</time>
      </trkpt>
      <trkpt lat="45.65814" lon="5.72461">
        <ele>584</ele>
        <time>2019-03-24T14:28:16.514Z</time>
      </trkpt>
      <trkpt lat="45.6582" lon="5.72462">
        <ele>584</ele>
        <time>2019-03-24T14:28:21.509Z</time>
      </trkpt>
      <trkpt lat="45.65824" lon="5.72464">
        <ele>584</ele>
        <time>2019-03-24T14:28:26.529Z</time>
      </trkpt>
      <trkpt lat="45.65829" lon="5.72465">
        <ele>584</ele>
        <time>2019-03-24T14:28:31.515Z</time>
      </trkpt>
      <trkpt lat="45.65836" lon="5.72467">
        <ele>584</ele>
        <time>2019-03-24T14:28:36.486Z</time>
      </trkpt>
      <trkpt lat="45.6584" lon="5.72468">
        <ele>584</ele>
        <time>2019-03-24T14:28:40.517Z</time>
      </trkpt>
      <trkpt lat="45.65844" lon="5.7247">
        <ele>584</ele>
        <time>2019-03-24T14:28:45.508Z</time>
      </trkpt>
      <trkpt lat="45.6585" lon="5.72472">
        <ele>582</ele>
        <time>2019-03-24T14:28:50.487Z</time>
      </trkpt>
      <trkpt lat="45.65857" lon="5.72475">
        <ele>582</ele>
        <time>2019-03-24T14:28:55.537Z</time>
      </trkpt>
      <trkpt lat="45.65863" lon="5.72475">
        <ele>582</ele>
        <time>2019-03-24T14:29:00.482Z</time>
      </trkpt>
      <trkpt lat="45.65867" lon="5.72478">
        <ele>582</ele>
        <time>2019-03-24T14:29:05.517Z</time>
      </trkpt>
      <trkpt lat="45.65873" lon="5.72477">
        <ele>582</ele>
        <time>2019-03-24T14:29:10.505Z</time>
      </trkpt>
      <trkpt lat="45.6588" lon="5.72478">
        <ele>580</ele>
        <time>2019-03-24T14:29:15.513Z</time>
      </trkpt>
      <trkpt lat="45.65886" lon="5.72479">
        <ele>580</ele>
        <time>2019-03-24T14:29:20.508Z</time>
      </trkpt>
      <trkpt lat="45.65891" lon="5.7248">
        <ele>580</ele>
        <time>2019-03-24T14:29:25.507Z</time>
      </trkpt>
      <trkpt lat="45.65904" lon="5.72485">
        <ele>579</ele>
        <time>2019-03-24T14:29:53.507Z</time>
      </trkpt>
      <trkpt lat="45.65905" lon="5.72485">
        <ele>579</ele>
        <time>2019-03-24T14:29:58.514Z</time>
      </trkpt>
      <trkpt lat="45.65909" lon="5.72489">
        <ele>571</ele>
        <time>2019-03-24T14:30:03.509Z</time>
      </trkpt>
      <trkpt lat="45.65911" lon="5.72495">
        <ele>571</ele>
        <time>2019-03-24T14:30:08.535Z</time>
      </trkpt>
      <trkpt lat="45.65914" lon="5.72502">
        <ele>571</ele>
        <time>2019-03-24T14:30:13.518Z</time>
      </trkpt>
      <trkpt lat="45.65919" lon="5.72508">
        <ele>571</ele>
        <time>2019-03-24T14:30:18.528Z</time>
      </trkpt>
      <trkpt lat="45.65924" lon="5.7251">
        <ele>571</ele>
        <time>2019-03-24T14:30:23.511Z</time>
      </trkpt>
      <trkpt lat="45.65929" lon="5.72513">
        <ele>571</ele>
        <time>2019-03-24T14:30:28.505Z</time>
      </trkpt>
      <trkpt lat="45.65932" lon="5.72517">
        <ele>568</ele>
        <time>2019-03-24T14:30:33.497Z</time>
      </trkpt>
      <trkpt lat="45.65936" lon="5.72519">
        <ele>568</ele>
        <time>2019-03-24T14:30:38.520Z</time>
      </trkpt>
      <trkpt lat="45.65939" lon="5.72521">
        <ele>568</ele>
        <time>2019-03-24T14:30:42.535Z</time>
      </trkpt>
      <trkpt lat="45.65947" lon="5.72524">
        <ele>568</ele>
        <time>2019-03-24T14:30:47.509Z</time>
      </trkpt>
      <trkpt lat="45.65952" lon="5.72528">
        <ele>568</ele>
        <time>2019-03-24T14:30:52.522Z</time>
      </trkpt>
      <trkpt lat="45.65957" lon="5.72531">
        <ele>568</ele>
        <time>2019-03-24T14:30:57.505Z</time>
      </trkpt>
      <trkpt lat="45.65958" lon="5.72535">
        <ele>568</ele>
        <time>2019-03-24T14:31:01.535Z</time>
      </trkpt>
      <trkpt lat="45.65965" lon="5.72539">
        <ele>568</ele>
        <time>2019-03-24T14:31:06.510Z</time>
      </trkpt>
      <trkpt lat="45.65968" lon="5.72544">
        <ele>563</ele>
        <time>2019-03-24T14:31:11.484Z</time>
      </trkpt>
      <trkpt lat="45.65973" lon="5.72548">
        <ele>563</ele>
        <time>2019-03-24T14:31:16.519Z</time>
      </trkpt>
      <trkpt lat="45.65979" lon="5.72553">
        <ele>563</ele>
        <time>2019-03-24T14:31:21.523Z</time>
      </trkpt>
      <trkpt lat="45.65985" lon="5.72557">
        <ele>563</ele>
        <time>2019-03-24T14:31:26.490Z</time>
      </trkpt>
      <trkpt lat="45.65989" lon="5.72561">
        <ele>560</ele>
        <time>2019-03-24T14:31:30.500Z</time>
      </trkpt>
      <trkpt lat="45.65992" lon="5.72562">
        <ele>560</ele>
        <time>2019-03-24T14:32:32.508Z</time>
      </trkpt>
      <trkpt lat="45.65991" lon="5.72563">
        <ele>560</ele>
        <time>2019-03-24T14:32:37.524Z</time>
      </trkpt>
      <trkpt lat="45.65995" lon="5.72562">
        <ele>560</ele>
        <time>2019-03-24T14:32:42.513Z</time>
      </trkpt>
      <trkpt lat="45.66" lon="5.72563">
        <ele>560</ele>
        <time>2019-03-24T14:32:47.499Z</time>
      </trkpt>
      <trkpt lat="45.66006" lon="5.72563">
        <ele>560</ele>
        <time>2019-03-24T14:32:51.511Z</time>
      </trkpt>
      <trkpt lat="45.66012" lon="5.72564">
        <ele>560</ele>
        <time>2019-03-24T14:32:56.511Z</time>
      </trkpt>
      <trkpt lat="45.66018" lon="5.72565">
        <ele>559</ele>
        <time>2019-03-24T14:33:01.523Z</time>
      </trkpt>
      <trkpt lat="45.66024" lon="5.72567">
        <ele>559</ele>
        <time>2019-03-24T14:33:06.519Z</time>
      </trkpt>
      <trkpt lat="45.66029" lon="5.72567">
        <ele>559</ele>
        <time>2019-03-24T14:33:10.544Z</time>
      </trkpt>
      <trkpt lat="45.66033" lon="5.72566">
        <ele>559</ele>
        <time>2019-03-24T14:33:15.534Z</time>
      </trkpt>
      <trkpt lat="45.66039" lon="5.72569">
        <ele>559</ele>
        <time>2019-03-24T14:33:20.520Z</time>
      </trkpt>
      <trkpt lat="45.66047" lon="5.72572">
        <ele>557</ele>
        <time>2019-03-24T14:33:25.500Z</time>
      </trkpt>
      <trkpt lat="45.66054" lon="5.72577">
        <ele>557</ele>
        <time>2019-03-24T14:33:29.533Z</time>
      </trkpt>
      <trkpt lat="45.66062" lon="5.72581">
        <ele>557</ele>
        <time>2019-03-24T14:33:34.498Z</time>
      </trkpt>
      <trkpt lat="45.66068" lon="5.72583">
        <ele>557</ele>
        <time>2019-03-24T14:33:38.516Z</time>
      </trkpt>
      <trkpt lat="45.66073" lon="5.72585">
        <ele>555</ele>
        <time>2019-03-24T14:33:43.510Z</time>
      </trkpt>
      <trkpt lat="45.66077" lon="5.72585">
        <ele>555</ele>
        <time>2019-03-24T14:33:47.546Z</time>
      </trkpt>
      <trkpt lat="45.66085" lon="5.72586">
        <ele>555</ele>
        <time>2019-03-24T14:33:52.503Z</time>
      </trkpt>
      <trkpt lat="45.66088" lon="5.72589">
        <ele>555</ele>
        <time>2019-03-24T14:33:57.503Z</time>
      </trkpt>
      <trkpt lat="45.66091" lon="5.72591">
        <ele>555</ele>
        <time>2019-03-24T14:34:01.522Z</time>
      </trkpt>
      <trkpt lat="45.66097" lon="5.72591">
        <ele>555</ele>
        <time>2019-03-24T14:34:06.518Z</time>
      </trkpt>
      <trkpt lat="45.661" lon="5.72598">
        <ele>547</ele>
        <time>2019-03-24T14:34:11.498Z</time>
      </trkpt>
      <trkpt lat="45.66105" lon="5.72605">
        <ele>547</ele>
        <time>2019-03-24T14:34:15.516Z</time>
      </trkpt>
      <trkpt lat="45.66108" lon="5.72607">
        <ele>547</ele>
        <time>2019-03-24T14:34:19.528Z</time>
      </trkpt>
      <trkpt lat="45.66112" lon="5.72612">
        <ele>547</ele>
        <time>2019-03-24T14:34:24.528Z</time>
      </trkpt>
      <trkpt lat="45.66114" lon="5.72615">
        <ele>547</ele>
        <time>2019-03-24T14:34:29.492Z</time>
      </trkpt>
      <trkpt lat="45.66117" lon="5.72619">
        <ele>547</ele>
        <time>2019-03-24T14:34:33.510Z</time>
      </trkpt>
      <trkpt lat="45.6612" lon="5.72621">
        <ele>547</ele>
        <time>2019-03-24T14:34:38.509Z</time>
      </trkpt>
      <trkpt lat="45.66122" lon="5.72624">
        <ele>547</ele>
        <time>2019-03-24T14:34:42.517Z</time>
      </trkpt>
      <trkpt lat="45.66127" lon="5.7263">
        <ele>538</ele>
        <time>2019-03-24T14:34:47.503Z</time>
      </trkpt>
      <trkpt lat="45.66132" lon="5.72636">
        <ele>538</ele>
        <time>2019-03-24T14:34:52.490Z</time>
      </trkpt>
      <trkpt lat="45.66135" lon="5.72641">
        <ele>538</ele>
        <time>2019-03-24T14:34:56.502Z</time>
      </trkpt>
      <trkpt lat="45.66138" lon="5.72644">
        <ele>538</ele>
        <time>2019-03-24T14:35:01.532Z</time>
      </trkpt>
      <trkpt lat="45.66144" lon="5.72649">
        <ele>538</ele>
        <time>2019-03-24T14:35:06.527Z</time>
      </trkpt>
      <trkpt lat="45.66151" lon="5.72655">
        <ele>535</ele>
        <time>2019-03-24T14:35:11.535Z</time>
      </trkpt>
      <trkpt lat="45.66156" lon="5.7266">
        <ele>533</ele>
        <time>2019-03-24T14:35:16.528Z</time>
      </trkpt>
      <trkpt lat="45.6616" lon="5.72665">
        <ele>533</ele>
        <time>2019-03-24T14:35:21.500Z</time>
      </trkpt>
      <trkpt lat="45.66165" lon="5.72667">
        <ele>533</ele>
        <time>2019-03-24T14:35:26.541Z</time>
      </trkpt>
      <trkpt lat="45.66171" lon="5.72674">
        <ele>533</ele>
        <time>2019-03-24T14:35:31.536Z</time>
      </trkpt>
      <trkpt lat="45.66176" lon="5.72679">
        <ele>533</ele>
        <time>2019-03-24T14:35:36.527Z</time>
      </trkpt>
      <trkpt lat="45.6618" lon="5.72682">
        <ele>531</ele>
        <time>2019-03-24T14:35:41.517Z</time>
      </trkpt>
      <trkpt lat="45.66185" lon="5.72688">
        <ele>530</ele>
        <time>2019-03-24T14:35:45.515Z</time>
      </trkpt>
      <trkpt lat="45.6619" lon="5.72694">
        <ele>530</ele>
        <time>2019-03-24T14:35:50.515Z</time>
      </trkpt>
      <trkpt lat="45.66197" lon="5.72695">
        <ele>530</ele>
        <time>2019-03-24T14:35:55.512Z</time>
      </trkpt>
      <trkpt lat="45.66203" lon="5.72698">
        <ele>530</ele>
        <time>2019-03-24T14:36:00.492Z</time>
      </trkpt>
      <trkpt lat="45.66213" lon="5.72701">
        <ele>529</ele>
        <time>2019-03-24T14:36:14.506Z</time>
      </trkpt>
      <trkpt lat="45.66206" lon="5.7269">
        <ele>530</ele>
        <time>2019-03-24T14:36:19.507Z</time>
      </trkpt>
      <trkpt lat="45.66206" lon="5.72686">
        <ele>530</ele>
        <time>2019-03-24T14:36:23.534Z</time>
      </trkpt>
      <trkpt lat="45.662" lon="5.72675">
        <ele>531</ele>
        <time>2019-03-24T14:36:28.526Z</time>
      </trkpt>
      <trkpt lat="45.66198" lon="5.72672">
        <ele>531</ele>
        <time>2019-03-24T14:36:33.515Z</time>
      </trkpt>
      <trkpt lat="45.662" lon="5.72668">
        <ele>531</ele>
        <time>2019-03-24T14:37:09.480Z</time>
      </trkpt>
      <trkpt lat="45.66202" lon="5.72666">
        <ele>531</ele>
        <time>2019-03-24T14:37:13.508Z</time>
      </trkpt>
      <trkpt lat="45.66205" lon="5.72639">
        <ele>532</ele>
        <time>2019-03-24T14:37:18.530Z</time>
      </trkpt>
      <trkpt lat="45.66217" lon="5.7261">
        <ele>534</ele>
        <time>2019-03-24T14:37:23.517Z</time>
      </trkpt>
      <trkpt lat="45.66245" lon="5.72604">
        <ele>537</ele>
        <time>2019-03-24T14:37:28.537Z</time>
      </trkpt>
      <trkpt lat="45.66266" lon="5.72596">
        <ele>543</ele>
        <time>2019-03-24T14:37:33.510Z</time>
      </trkpt>
      <trkpt lat="45.66273" lon="5.72589">
        <ele>543</ele>
        <time>2019-03-24T14:37:38.487Z</time>
      </trkpt>
      <trkpt lat="45.66278" lon="5.72589">
        <ele>543</ele>
        <time>2019-03-24T14:37:42.517Z</time>
      </trkpt>
      <trkpt lat="45.66279" lon="5.72588">
        <ele>543</ele>
        <time>2019-03-24T14:37:47.518Z</time>
      </trkpt>
      <trkpt lat="45.66285" lon="5.72582">
        <ele>543</ele>
        <time>2019-03-24T14:37:52.507Z</time>
      </trkpt>
      <trkpt lat="45.66289" lon="5.72575">
        <ele>543</ele>
        <time>2019-03-24T14:37:57.513Z</time>
      </trkpt>
      <trkpt lat="45.66297" lon="5.72565">
        <ele>547</ele>
        <time>2019-03-24T14:38:02.515Z</time>
      </trkpt>
      <trkpt lat="45.663" lon="5.72551">
        <ele>547</ele>
        <time>2019-03-24T14:38:07.506Z</time>
      </trkpt>
      <trkpt lat="45.66304" lon="5.72544">
        <ele>547</ele>
        <time>2019-03-24T14:38:12.492Z</time>
      </trkpt>
      <trkpt lat="45.66308" lon="5.72537">
        <ele>549</ele>
        <time>2019-03-24T14:38:16.507Z</time>
      </trkpt>
      <trkpt lat="45.66314" lon="5.72526">
        <ele>549</ele>
        <time>2019-03-24T14:38:20.515Z</time>
      </trkpt>
      <trkpt lat="45.66323" lon="5.72507">
        <ele>551</ele>
        <time>2019-03-24T14:38:25.513Z</time>
      </trkpt>
      <trkpt lat="45.66334" lon="5.72483">
        <ele>553</ele>
        <time>2019-03-24T14:38:29.524Z</time>
      </trkpt>
      <trkpt lat="45.66342" lon="5.72443">
        <ele>556</ele>
        <time>2019-03-24T14:38:34.517Z</time>
      </trkpt>
      <trkpt lat="45.66342" lon="5.72424">
        <ele>559</ele>
        <time>2019-03-24T14:38:39.527Z</time>
      </trkpt>
      <trkpt lat="45.66342" lon="5.72414">
        <ele>559</ele>
        <time>2019-03-24T14:38:44.506Z</time>
      </trkpt>
      <trkpt lat="45.66343" lon="5.72405">
        <ele>559</ele>
        <time>2019-03-24T14:38:49.521Z</time>
      </trkpt>
      <trkpt lat="45.66345" lon="5.72397">
        <ele>562</ele>
        <time>2019-03-24T14:38:58.504Z</time>
      </trkpt>
      <trkpt lat="45.66361" lon="5.724">
        <ele>560</ele>
        <time>2019-03-24T14:39:07.516Z</time>
      </trkpt>
      <trkpt lat="45.6637" lon="5.7241">
        <ele>557</ele>
        <time>2019-03-24T14:39:12.494Z</time>
      </trkpt>
      <trkpt lat="45.66376" lon="5.72415">
        <ele>555</ele>
        <time>2019-03-24T14:39:16.512Z</time>
      </trkpt>
      <trkpt lat="45.66381" lon="5.72417">
        <ele>555</ele>
        <time>2019-03-24T14:39:20.541Z</time>
      </trkpt>
      <trkpt lat="45.66387" lon="5.72418">
        <ele>555</ele>
        <time>2019-03-24T14:39:25.512Z</time>
      </trkpt>
      <trkpt lat="45.66394" lon="5.72419">
        <ele>555</ele>
        <time>2019-03-24T14:39:30.520Z</time>
      </trkpt>
      <trkpt lat="45.664" lon="5.72419">
        <ele>555</ele>
        <time>2019-03-24T14:39:35.483Z</time>
      </trkpt>
      <trkpt lat="45.66405" lon="5.72419">
        <ele>554</ele>
        <time>2019-03-24T14:39:39.524Z</time>
      </trkpt>
      <trkpt lat="45.66413" lon="5.7242">
        <ele>554</ele>
        <time>2019-03-24T14:39:44.486Z</time>
      </trkpt>
      <trkpt lat="45.66419" lon="5.7242">
        <ele>554</ele>
        <time>2019-03-24T14:39:48.507Z</time>
      </trkpt>
      <trkpt lat="45.66426" lon="5.7242">
        <ele>554</ele>
        <time>2019-03-24T14:39:52.529Z</time>
      </trkpt>
      <trkpt lat="45.66437" lon="5.72419">
        <ele>551</ele>
        <time>2019-03-24T14:39:57.483Z</time>
      </trkpt>
      <trkpt lat="45.66446" lon="5.7242">
        <ele>551</ele>
        <time>2019-03-24T14:40:01.540Z</time>
      </trkpt>
      <trkpt lat="45.66454" lon="5.72423">
        <ele>551</ele>
        <time>2019-03-24T14:40:06.494Z</time>
      </trkpt>
      <trkpt lat="45.66463" lon="5.72422">
        <ele>548</ele>
        <time>2019-03-24T14:40:10.501Z</time>
      </trkpt>
      <trkpt lat="45.66474" lon="5.72422">
        <ele>548</ele>
        <time>2019-03-24T14:40:15.490Z</time>
      </trkpt>
      <trkpt lat="45.66476" lon="5.72419">
        <ele>548</ele>
        <time>2019-03-24T14:40:19.507Z</time>
      </trkpt>
      <trkpt lat="45.66479" lon="5.72415">
        <ele>548</ele>
        <time>2019-03-24T14:40:24.504Z</time>
      </trkpt>
      <trkpt lat="45.66489" lon="5.72405">
        <ele>547</ele>
        <time>2019-03-24T14:40:29.514Z</time>
      </trkpt>
      <trkpt lat="45.66504" lon="5.72381">
        <ele>551</ele>
        <time>2019-03-24T14:40:34.525Z</time>
      </trkpt>
      <trkpt lat="45.66517" lon="5.72356">
        <ele>552</ele>
        <time>2019-03-24T14:40:39.498Z</time>
      </trkpt>
      <trkpt lat="45.66526" lon="5.7234">
        <ele>554</ele>
        <time>2019-03-24T14:40:43.530Z</time>
      </trkpt>
      <trkpt lat="45.66531" lon="5.72322">
        <ele>554</ele>
        <time>2019-03-24T14:40:48.496Z</time>
      </trkpt>
      <trkpt lat="45.66535" lon="5.72301">
        <ele>556</ele>
        <time>2019-03-24T14:40:53.509Z</time>
      </trkpt>
      <trkpt lat="45.66534" lon="5.72289">
        <ele>557</ele>
        <time>2019-03-24T14:40:57.515Z</time>
      </trkpt>
      <trkpt lat="45.6653" lon="5.72277">
        <ele>557</ele>
        <time>2019-03-24T14:41:02.501Z</time>
      </trkpt>
      <trkpt lat="45.66527" lon="5.72269">
        <ele>557</ele>
        <time>2019-03-24T14:41:06.512Z</time>
      </trkpt>
      <trkpt lat="45.66524" lon="5.72263">
        <ele>555</ele>
        <time>2019-03-24T14:41:10.506Z</time>
      </trkpt>
      <trkpt lat="45.66521" lon="5.72253">
        <ele>555</ele>
        <time>2019-03-24T14:41:15.514Z</time>
      </trkpt>
      <trkpt lat="45.66515" lon="5.72242">
        <ele>555</ele>
        <time>2019-03-24T14:41:20.505Z</time>
      </trkpt>
      <trkpt lat="45.66512" lon="5.72231">
        <ele>561</ele>
        <time>2019-03-24T14:41:25.534Z</time>
      </trkpt>
      <trkpt lat="45.66512" lon="5.7222">
        <ele>561</ele>
        <time>2019-03-24T14:41:30.514Z</time>
      </trkpt>
      <trkpt lat="45.66521" lon="5.72191">
        <ele>557</ele>
        <time>2019-03-24T14:41:35.521Z</time>
      </trkpt>
      <trkpt lat="45.66531" lon="5.72163">
        <ele>561</ele>
        <time>2019-03-24T14:41:40.519Z</time>
      </trkpt>
      <trkpt lat="45.66532" lon="5.72137">
        <ele>563</ele>
        <time>2019-03-24T14:41:45.506Z</time>
      </trkpt>
      <trkpt lat="45.66524" lon="5.72112">
        <ele>564</ele>
        <time>2019-03-24T14:41:50.511Z</time>
      </trkpt>
      <trkpt lat="45.66509" lon="5.72102">
        <ele>569</ele>
        <time>2019-03-24T14:41:55.503Z</time>
      </trkpt>
      <trkpt lat="45.665" lon="5.72089">
        <ele>568</ele>
        <time>2019-03-24T14:42:00.489Z</time>
      </trkpt>
      <trkpt lat="45.66494" lon="5.7208">
        <ele>568</ele>
        <time>2019-03-24T14:42:05.483Z</time>
      </trkpt>
      <trkpt lat="45.66489" lon="5.72076">
        <ele>568</ele>
        <time>2019-03-24T14:42:09.490Z</time>
      </trkpt>
      <trkpt lat="45.66485" lon="5.72072">
        <ele>572</ele>
        <time>2019-03-24T14:42:14.512Z</time>
      </trkpt>
      <trkpt lat="45.66485" lon="5.72071">
        <ele>572</ele>
        <time>2019-03-24T14:42:19.490Z</time>
      </trkpt>
      <trkpt lat="45.66487" lon="5.72062">
        <ele>567</ele>
        <time>2019-03-24T14:42:24.509Z</time>
      </trkpt>
      <trkpt lat="45.66486" lon="5.72053">
        <ele>567</ele>
        <time>2019-03-24T14:42:29.520Z</time>
      </trkpt>
      <trkpt lat="45.66481" lon="5.72047">
        <ele>571</ele>
        <time>2019-03-24T14:42:34.503Z</time>
      </trkpt>
      <trkpt lat="45.66478" lon="5.72044">
        <ele>571</ele>
        <time>2019-03-24T14:42:38.533Z</time>
      </trkpt>
      <trkpt lat="45.66477" lon="5.72048">
        <ele>571</ele>
        <time>2019-03-24T14:42:43.490Z</time>
      </trkpt>
      <trkpt lat="45.6647" lon="5.72051">
        <ele>571</ele>
        <time>2019-03-24T14:42:47.508Z</time>
      </trkpt>
      <trkpt lat="45.6646" lon="5.72052">
        <ele>571</ele>
        <time>2019-03-24T14:42:51.519Z</time>
      </trkpt>
      <trkpt lat="45.66453" lon="5.72048">
        <ele>577</ele>
        <time>2019-03-24T14:42:55.532Z</time>
      </trkpt>
      <trkpt lat="45.66434" lon="5.72029">
        <ele>577</ele>
        <time>2019-03-24T14:43:00.487Z</time>
      </trkpt>
      <trkpt lat="45.66414" lon="5.7201">
        <ele>585</ele>
        <time>2019-03-24T14:43:05.507Z</time>
      </trkpt>
      <trkpt lat="45.66386" lon="5.71985">
        <ele>589</ele>
        <time>2019-03-24T14:43:10.507Z</time>
      </trkpt>
      <trkpt lat="45.66368" lon="5.7197">
        <ele>595</ele>
        <time>2019-03-24T14:43:14.512Z</time>
      </trkpt>
      <trkpt lat="45.66349" lon="5.71957">
        <ele>595</ele>
        <time>2019-03-24T14:43:19.519Z</time>
      </trkpt>
      <trkpt lat="45.66349" lon="5.71948">
        <ele>595</ele>
        <time>2019-03-24T14:43:24.485Z</time>
      </trkpt>
      <trkpt lat="45.66353" lon="5.7194">
        <ele>595</ele>
        <time>2019-03-24T14:43:28.526Z</time>
      </trkpt>
      <trkpt lat="45.66357" lon="5.7193">
        <ele>595</ele>
        <time>2019-03-24T14:43:33.506Z</time>
      </trkpt>
      <trkpt lat="45.66355" lon="5.71921">
        <ele>595</ele>
        <time>2019-03-24T14:43:38.506Z</time>
      </trkpt>
      <trkpt lat="45.66356" lon="5.71914">
        <ele>595</ele>
        <time>2019-03-24T14:43:43.515Z</time>
      </trkpt>
      <trkpt lat="45.66359" lon="5.7191">
        <ele>595</ele>
        <time>2019-03-24T14:43:48.490Z</time>
      </trkpt>
      <trkpt lat="45.66364" lon="5.71908">
        <ele>595</ele>
        <time>2019-03-24T14:43:53.517Z</time>
      </trkpt>
      <trkpt lat="45.66372" lon="5.71903">
        <ele>596</ele>
        <time>2019-03-24T14:43:58.497Z</time>
      </trkpt>
      <trkpt lat="45.66379" lon="5.71896">
        <ele>589</ele>
        <time>2019-03-24T14:44:02.526Z</time>
      </trkpt>
      <trkpt lat="45.66385" lon="5.7189">
        <ele>589</ele>
        <time>2019-03-24T14:44:07.496Z</time>
      </trkpt>
      <trkpt lat="45.66389" lon="5.71883">
        <ele>589</ele>
        <time>2019-03-24T14:44:11.526Z</time>
      </trkpt>
      <trkpt lat="45.66393" lon="5.71878">
        <ele>589</ele>
        <time>2019-03-24T14:44:16.483Z</time>
      </trkpt>
      <trkpt lat="45.66399" lon="5.7187">
        <ele>588</ele>
        <time>2019-03-24T14:44:20.525Z</time>
      </trkpt>
      <trkpt lat="45.66405" lon="5.71863">
        <ele>583</ele>
        <time>2019-03-24T14:44:25.513Z</time>
      </trkpt>
      <trkpt lat="45.66408" lon="5.7185">
        <ele>583</ele>
        <time>2019-03-24T14:44:30.506Z</time>
      </trkpt>
      <trkpt lat="45.66409" lon="5.71839">
        <ele>583</ele>
        <time>2019-03-24T14:44:35.511Z</time>
      </trkpt>
      <trkpt lat="45.66406" lon="5.71828">
        <ele>583</ele>
        <time>2019-03-24T14:44:40.490Z</time>
      </trkpt>
      <trkpt lat="45.66405" lon="5.71819">
        <ele>583</ele>
        <time>2019-03-24T14:44:44.518Z</time>
      </trkpt>
      <trkpt lat="45.66406" lon="5.7181">
        <ele>583</ele>
        <time>2019-03-24T14:44:49.504Z</time>
      </trkpt>
      <trkpt lat="45.66405" lon="5.71804">
        <ele>583</ele>
        <time>2019-03-24T14:44:53.507Z</time>
      </trkpt>
      <trkpt lat="45.66406" lon="5.71791">
        <ele>585</ele>
        <time>2019-03-24T14:44:58.502Z</time>
      </trkpt>
      <trkpt lat="45.66408" lon="5.7178">
        <ele>585</ele>
        <time>2019-03-24T14:45:03.489Z</time>
      </trkpt>
      <trkpt lat="45.66409" lon="5.71769">
        <ele>585</ele>
        <time>2019-03-24T14:45:07.507Z</time>
      </trkpt>
      <trkpt lat="45.66413" lon="5.71757">
        <ele>588</ele>
        <time>2019-03-24T14:45:12.501Z</time>
      </trkpt>
      <trkpt lat="45.66418" lon="5.71751">
        <ele>588</ele>
        <time>2019-03-24T14:45:17.513Z</time>
      </trkpt>
      <trkpt lat="45.66428" lon="5.71748">
        <ele>588</ele>
        <time>2019-03-24T14:45:22.507Z</time>
      </trkpt>
      <trkpt lat="45.66435" lon="5.71743">
        <ele>583</ele>
        <time>2019-03-24T14:45:26.526Z</time>
      </trkpt>
      <trkpt lat="45.66447" lon="5.71744">
        <ele>583</ele>
        <time>2019-03-24T14:45:31.505Z</time>
      </trkpt>
      <trkpt lat="45.66454" lon="5.71748">
        <ele>583</ele>
        <time>2019-03-24T14:45:36.504Z</time>
      </trkpt>
      <trkpt lat="45.66459" lon="5.71755">
        <ele>582</ele>
        <time>2019-03-24T14:45:41.532Z</time>
      </trkpt>
      <trkpt lat="45.66461" lon="5.71763">
        <ele>582</ele>
        <time>2019-03-24T14:45:46.502Z</time>
      </trkpt>
      <trkpt lat="45.66465" lon="5.71768">
        <ele>580</ele>
        <time>2019-03-24T14:45:51.514Z</time>
      </trkpt>
      <trkpt lat="45.6647" lon="5.71775">
        <ele>580</ele>
        <time>2019-03-24T14:45:56.497Z</time>
      </trkpt>
      <trkpt lat="45.66479" lon="5.71783">
        <ele>580</ele>
        <time>2019-03-24T14:46:01.505Z</time>
      </trkpt>
      <trkpt lat="45.66483" lon="5.71788">
        <ele>580</ele>
        <time>2019-03-24T14:46:05.527Z</time>
      </trkpt>
      <trkpt lat="45.6649" lon="5.71793">
        <ele>579</ele>
        <time>2019-03-24T14:46:10.520Z</time>
      </trkpt>
      <trkpt lat="45.66494" lon="5.718">
        <ele>579</ele>
        <time>2019-03-24T14:46:15.533Z</time>
      </trkpt>
      <trkpt lat="45.66498" lon="5.71806">
        <ele>579</ele>
        <time>2019-03-24T14:46:20.497Z</time>
      </trkpt>
      <trkpt lat="45.66501" lon="5.71807">
        <ele>579</ele>
        <time>2019-03-24T14:46:24.507Z</time>
      </trkpt>
      <trkpt lat="45.66505" lon="5.71807">
        <ele>579</ele>
        <time>2019-03-24T14:46:29.498Z</time>
      </trkpt>
      <trkpt lat="45.66509" lon="5.71807">
        <ele>579</ele>
        <time>2019-03-24T14:46:33.524Z</time>
      </trkpt>
      <trkpt lat="45.66517" lon="5.71808">
        <ele>577</ele>
        <time>2019-03-24T14:46:38.493Z</time>
      </trkpt>
      <trkpt lat="45.66522" lon="5.71809">
        <ele>577</ele>
        <time>2019-03-24T14:46:42.518Z</time>
      </trkpt>
      <trkpt lat="45.66533" lon="5.71808">
        <ele>577</ele>
        <time>2019-03-24T14:46:47.515Z</time>
      </trkpt>
      <trkpt lat="45.66541" lon="5.71807">
        <ele>577</ele>
        <time>2019-03-24T14:46:52.494Z</time>
      </trkpt>
      <trkpt lat="45.66544" lon="5.71806">
        <ele>577</ele>
        <time>2019-03-24T14:46:56.520Z</time>
      </trkpt>
      <trkpt lat="45.6655" lon="5.71805">
        <ele>577</ele>
        <time>2019-03-24T14:47:01.544Z</time>
      </trkpt>
      <trkpt lat="45.66558" lon="5.71805">
        <ele>577</ele>
        <time>2019-03-24T14:47:06.524Z</time>
      </trkpt>
      <trkpt lat="45.66565" lon="5.71806">
        <ele>577</ele>
        <time>2019-03-24T14:47:10.541Z</time>
      </trkpt>
      <trkpt lat="45.66569" lon="5.71801">
        <ele>577</ele>
        <time>2019-03-24T14:47:15.507Z</time>
      </trkpt>
      <trkpt lat="45.66576" lon="5.71799">
        <ele>576</ele>
        <time>2019-03-24T14:47:20.512Z</time>
      </trkpt>
      <trkpt lat="45.66584" lon="5.71798">
        <ele>576</ele>
        <time>2019-03-24T14:47:24.525Z</time>
      </trkpt>
      <trkpt lat="45.66592" lon="5.71795">
        <ele>576</ele>
        <time>2019-03-24T14:47:29.530Z</time>
      </trkpt>
      <trkpt lat="45.66599" lon="5.71793">
        <ele>573</ele>
        <time>2019-03-24T14:47:34.515Z</time>
      </trkpt>
      <trkpt lat="45.66605" lon="5.71792">
        <ele>573</ele>
        <time>2019-03-24T14:47:39.547Z</time>
      </trkpt>
      <trkpt lat="45.66613" lon="5.71794">
        <ele>573</ele>
        <time>2019-03-24T14:47:44.512Z</time>
      </trkpt>
      <trkpt lat="45.66617" lon="5.71796">
        <ele>573</ele>
        <time>2019-03-24T14:47:48.528Z</time>
      </trkpt>
      <trkpt lat="45.66624" lon="5.71799">
        <ele>573</ele>
        <time>2019-03-24T14:47:53.499Z</time>
      </trkpt>
      <trkpt lat="45.6663" lon="5.71801">
        <ele>571</ele>
        <time>2019-03-24T14:47:57.529Z</time>
      </trkpt>
      <trkpt lat="45.66636" lon="5.71801">
        <ele>571</ele>
        <time>2019-03-24T14:48:02.498Z</time>
      </trkpt>
      <trkpt lat="45.6664" lon="5.71803">
        <ele>571</ele>
        <time>2019-03-24T14:48:06.508Z</time>
      </trkpt>
      <trkpt lat="45.66646" lon="5.71806">
        <ele>571</ele>
        <time>2019-03-24T14:48:11.506Z</time>
      </trkpt>
      <trkpt lat="45.66653" lon="5.71809">
        <ele>570</ele>
        <time>2019-03-24T14:48:16.505Z</time>
      </trkpt>
      <trkpt lat="45.6666" lon="5.71813">
        <ele>570</ele>
        <time>2019-03-24T14:48:21.494Z</time>
      </trkpt>
      <trkpt lat="45.66666" lon="5.71811">
        <ele>570</ele>
        <time>2019-03-24T14:48:25.500Z</time>
      </trkpt>
      <trkpt lat="45.66678" lon="5.71818">
        <ele>570</ele>
        <time>2019-03-24T14:48:29.507Z</time>
      </trkpt>
      <trkpt lat="45.66686" lon="5.71825">
        <ele>567</ele>
        <time>2019-03-24T14:48:34.528Z</time>
      </trkpt>
      <trkpt lat="45.66692" lon="5.71832">
        <ele>567</ele>
        <time>2019-03-24T14:48:39.489Z</time>
      </trkpt>
      <trkpt lat="45.66697" lon="5.71833">
        <ele>567</ele>
        <time>2019-03-24T14:48:43.515Z</time>
      </trkpt>
      <trkpt lat="45.66704" lon="5.71826">
        <ele>567</ele>
        <time>2019-03-24T14:48:48.499Z</time>
      </trkpt>
      <trkpt lat="45.66706" lon="5.71815">
        <ele>569</ele>
        <time>2019-03-24T14:48:53.514Z</time>
      </trkpt>
      <trkpt lat="45.66708" lon="5.71808">
        <ele>569</ele>
        <time>2019-03-24T14:48:57.520Z</time>
      </trkpt>
      <trkpt lat="45.6671" lon="5.71804">
        <ele>566</ele>
        <time>2019-03-24T14:49:02.500Z</time>
      </trkpt>
      <trkpt lat="45.66711" lon="5.71799">
        <ele>566</ele>
        <time>2019-03-24T14:49:06.515Z</time>
      </trkpt>
      <trkpt lat="45.66714" lon="5.71792">
        <ele>566</ele>
        <time>2019-03-24T14:49:11.512Z</time>
      </trkpt>
      <trkpt lat="45.66718" lon="5.71788">
        <ele>569</ele>
        <time>2019-03-24T14:49:15.534Z</time>
      </trkpt>
      <trkpt lat="45.66729" lon="5.71778">
        <ele>569</ele>
        <time>2019-03-24T14:49:20.500Z</time>
      </trkpt>
      <trkpt lat="45.66738" lon="5.71771">
        <ele>571</ele>
        <time>2019-03-24T14:49:25.508Z</time>
      </trkpt>
      <trkpt lat="45.66754" lon="5.71766">
        <ele>571</ele>
        <time>2019-03-24T14:49:30.502Z</time>
      </trkpt>
      <trkpt lat="45.66772" lon="5.71769">
        <ele>572</ele>
        <time>2019-03-24T14:49:34.514Z</time>
      </trkpt>
      <trkpt lat="45.66786" lon="5.71775">
        <ele>572</ele>
        <time>2019-03-24T14:49:39.528Z</time>
      </trkpt>
      <trkpt lat="45.66791" lon="5.71779">
        <ele>572</ele>
        <time>2019-03-24T14:49:44.508Z</time>
      </trkpt>
      <trkpt lat="45.66797" lon="5.71782">
        <ele>574</ele>
        <time>2019-03-24T14:49:48.558Z</time>
      </trkpt>
      <trkpt lat="45.66802" lon="5.71789">
        <ele>574</ele>
        <time>2019-03-24T14:49:53.501Z</time>
      </trkpt>
      <trkpt lat="45.66804" lon="5.71793">
        <ele>570</ele>
        <time>2019-03-24T14:49:57.536Z</time>
      </trkpt>
      <trkpt lat="45.66814" lon="5.71801">
        <ele>570</ele>
        <time>2019-03-24T14:50:02.519Z</time>
      </trkpt>
      <trkpt lat="45.66818" lon="5.718">
        <ele>570</ele>
        <time>2019-03-24T14:50:07.527Z</time>
      </trkpt>
      <trkpt lat="45.66823" lon="5.71801">
        <ele>575</ele>
        <time>2019-03-24T14:50:12.515Z</time>
      </trkpt>
      <trkpt lat="45.66831" lon="5.71807">
        <ele>575</ele>
        <time>2019-03-24T14:50:17.504Z</time>
      </trkpt>
      <trkpt lat="45.66836" lon="5.71814">
        <ele>575</ele>
        <time>2019-03-24T14:50:22.500Z</time>
      </trkpt>
      <trkpt lat="45.66841" lon="5.7182">
        <ele>573</ele>
        <time>2019-03-24T14:50:26.504Z</time>
      </trkpt>
      <trkpt lat="45.66846" lon="5.71824">
        <ele>573</ele>
        <time>2019-03-24T14:50:30.533Z</time>
      </trkpt>
      <trkpt lat="45.66852" lon="5.7182">
        <ele>576</ele>
        <time>2019-03-24T14:50:35.524Z</time>
      </trkpt>
      <trkpt lat="45.66858" lon="5.71821">
        <ele>576</ele>
        <time>2019-03-24T14:50:39.541Z</time>
      </trkpt>
      <trkpt lat="45.66865" lon="5.71821">
        <ele>576</ele>
        <time>2019-03-24T14:50:44.518Z</time>
      </trkpt>
      <trkpt lat="45.66876" lon="5.71826">
        <ele>577</ele>
        <time>2019-03-24T14:50:49.510Z</time>
      </trkpt>
      <trkpt lat="45.66882" lon="5.71833">
        <ele>577</ele>
        <time>2019-03-24T14:50:54.527Z</time>
      </trkpt>
      <trkpt lat="45.66886" lon="5.71837">
        <ele>577</ele>
        <time>2019-03-24T14:50:59.506Z</time>
      </trkpt>
      <trkpt lat="45.66894" lon="5.71842">
        <ele>577</ele>
        <time>2019-03-24T14:51:04.502Z</time>
      </trkpt>
      <trkpt lat="45.66896" lon="5.71842">
        <ele>577</ele>
        <time>2019-03-24T14:51:09.511Z</time>
      </trkpt>
      <trkpt lat="45.66902" lon="5.71841">
        <ele>577</ele>
        <time>2019-03-24T14:51:14.506Z</time>
      </trkpt>
      <trkpt lat="45.66907" lon="5.71838">
        <ele>574</ele>
        <time>2019-03-24T14:51:18.527Z</time>
      </trkpt>
      <trkpt lat="45.66914" lon="5.71836">
        <ele>574</ele>
        <time>2019-03-24T14:51:23.511Z</time>
      </trkpt>
      <trkpt lat="45.66919" lon="5.71834">
        <ele>574</ele>
        <time>2019-03-24T14:51:27.514Z</time>
      </trkpt>
      <trkpt lat="45.66929" lon="5.71835">
        <ele>574</ele>
        <time>2019-03-24T14:51:32.506Z</time>
      </trkpt>
      <trkpt lat="45.66934" lon="5.71836">
        <ele>569</ele>
        <time>2019-03-24T14:51:37.515Z</time>
      </trkpt>
      <trkpt lat="45.6694" lon="5.71834">
        <ele>569</ele>
        <time>2019-03-24T14:51:42.518Z</time>
      </trkpt>
      <trkpt lat="45.66945" lon="5.71831">
        <ele>569</ele>
        <time>2019-03-24T14:51:47.507Z</time>
      </trkpt>
      <trkpt lat="45.6695" lon="5.71829">
        <ele>569</ele>
        <time>2019-03-24T14:51:51.531Z</time>
      </trkpt>
      <trkpt lat="45.66958" lon="5.7183">
        <ele>569</ele>
        <time>2019-03-24T14:51:56.505Z</time>
      </trkpt>
      <trkpt lat="45.66963" lon="5.71831">
        <ele>567</ele>
        <time>2019-03-24T14:52:01.513Z</time>
      </trkpt>
      <trkpt lat="45.66969" lon="5.71831">
        <ele>567</ele>
        <time>2019-03-24T14:52:06.505Z</time>
      </trkpt>
      <trkpt lat="45.66977" lon="5.71831">
        <ele>567</ele>
        <time>2019-03-24T14:52:11.514Z</time>
      </trkpt>
      <trkpt lat="45.66982" lon="5.71829">
        <ele>567</ele>
        <time>2019-03-24T14:52:15.513Z</time>
      </trkpt>
      <trkpt lat="45.66987" lon="5.71826">
        <ele>567</ele>
        <time>2019-03-24T14:52:20.503Z</time>
      </trkpt>
      <trkpt lat="45.66993" lon="5.71824">
        <ele>567</ele>
        <time>2019-03-24T14:52:25.523Z</time>
      </trkpt>
      <trkpt lat="45.66999" lon="5.71823">
        <ele>567</ele>
        <time>2019-03-24T14:52:30.528Z</time>
      </trkpt>
      <trkpt lat="45.67005" lon="5.71822">
        <ele>567</ele>
        <time>2019-03-24T14:52:35.489Z</time>
      </trkpt>
      <trkpt lat="45.6701" lon="5.71822">
        <ele>567</ele>
        <time>2019-03-24T14:52:39.523Z</time>
      </trkpt>
      <trkpt lat="45.67018" lon="5.71824">
        <ele>567</ele>
        <time>2019-03-24T14:52:44.530Z</time>
      </trkpt>
      <trkpt lat="45.67023" lon="5.71825">
        <ele>567</ele>
        <time>2019-03-24T14:52:48.539Z</time>
      </trkpt>
      <trkpt lat="45.67028" lon="5.71822">
        <ele>567</ele>
        <time>2019-03-24T14:52:53.515Z</time>
      </trkpt>
      <trkpt lat="45.67039" lon="5.71824">
        <ele>567</ele>
        <time>2019-03-24T14:52:58.514Z</time>
      </trkpt>
      <trkpt lat="45.67046" lon="5.71827">
        <ele>566</ele>
        <time>2019-03-24T14:53:03.507Z</time>
      </trkpt>
      <trkpt lat="45.67053" lon="5.71829">
        <ele>566</ele>
        <time>2019-03-24T14:53:08.528Z</time>
      </trkpt>
      <trkpt lat="45.67058" lon="5.71831">
        <ele>566</ele>
        <time>2019-03-24T14:53:13.495Z</time>
      </trkpt>
      <trkpt lat="45.67063" lon="5.71831">
        <ele>566</ele>
        <time>2019-03-24T14:53:17.525Z</time>
      </trkpt>
      <trkpt lat="45.6707" lon="5.71833">
        <ele>566</ele>
        <time>2019-03-24T14:53:22.513Z</time>
      </trkpt>
      <trkpt lat="45.67074" lon="5.71834">
        <ele>566</ele>
        <time>2019-03-24T14:53:26.534Z</time>
      </trkpt>
      <trkpt lat="45.67082" lon="5.71838">
        <ele>566</ele>
        <time>2019-03-24T14:53:31.500Z</time>
      </trkpt>
      <trkpt lat="45.67087" lon="5.71839">
        <ele>566</ele>
        <time>2019-03-24T14:53:36.479Z</time>
      </trkpt>
      <trkpt lat="45.67091" lon="5.71837">
        <ele>566</ele>
        <time>2019-03-24T14:53:40.522Z</time>
      </trkpt>
      <trkpt lat="45.67098" lon="5.71832">
        <ele>566</ele>
        <time>2019-03-24T14:53:45.511Z</time>
      </trkpt>
      <trkpt lat="45.67106" lon="5.7183">
        <ele>566</ele>
        <time>2019-03-24T14:53:50.489Z</time>
      </trkpt>
      <trkpt lat="45.67113" lon="5.7183">
        <ele>566</ele>
        <time>2019-03-24T14:53:54.506Z</time>
      </trkpt>
      <trkpt lat="45.6712" lon="5.7183">
        <ele>566</ele>
        <time>2019-03-24T14:53:59.508Z</time>
      </trkpt>
      <trkpt lat="45.67125" lon="5.71828">
        <ele>566</ele>
        <time>2019-03-24T14:54:04.496Z</time>
      </trkpt>
      <trkpt lat="45.67133" lon="5.71833">
        <ele>562</ele>
        <time>2019-03-24T14:54:08.519Z</time>
      </trkpt>
      <trkpt lat="45.67141" lon="5.71834">
        <ele>562</ele>
        <time>2019-03-24T14:54:13.491Z</time>
      </trkpt>
      <trkpt lat="45.67148" lon="5.71833">
        <ele>562</ele>
        <time>2019-03-24T14:54:17.525Z</time>
      </trkpt>
      <trkpt lat="45.67155" lon="5.71832">
        <ele>557</ele>
        <time>2019-03-24T14:54:22.517Z</time>
      </trkpt>
      <trkpt lat="45.67165" lon="5.71832">
        <ele>557</ele>
        <time>2019-03-24T14:54:27.513Z</time>
      </trkpt>
      <trkpt lat="45.67176" lon="5.71834">
        <ele>557</ele>
        <time>2019-03-24T14:54:32.483Z</time>
      </trkpt>
      <trkpt lat="45.67183" lon="5.71835">
        <ele>555</ele>
        <time>2019-03-24T14:54:36.498Z</time>
      </trkpt>
      <trkpt lat="45.67191" lon="5.71839">
        <ele>555</ele>
        <time>2019-03-24T14:54:41.514Z</time>
      </trkpt>
      <trkpt lat="45.67198" lon="5.71845">
        <ele>555</ele>
        <time>2019-03-24T14:54:46.504Z</time>
      </trkpt>
      <trkpt lat="45.67203" lon="5.71844">
        <ele>555</ele>
        <time>2019-03-24T14:54:50.530Z</time>
      </trkpt>
      <trkpt lat="45.67208" lon="5.71842">
        <ele>556</ele>
        <time>2019-03-24T14:54:55.507Z</time>
      </trkpt>
      <trkpt lat="45.67214" lon="5.71843">
        <ele>556</ele>
        <time>2019-03-24T14:55:00.485Z</time>
      </trkpt>
      <trkpt lat="45.67221" lon="5.71845">
        <ele>556</ele>
        <time>2019-03-24T14:55:04.525Z</time>
      </trkpt>
      <trkpt lat="45.67225" lon="5.71847">
        <ele>556</ele>
        <time>2019-03-24T14:55:09.528Z</time>
      </trkpt>
      <trkpt lat="45.67233" lon="5.7185">
        <ele>559</ele>
        <time>2019-03-24T14:55:14.528Z</time>
      </trkpt>
      <trkpt lat="45.67239" lon="5.71855">
        <ele>557</ele>
        <time>2019-03-24T14:55:19.512Z</time>
      </trkpt>
      <trkpt lat="45.67248" lon="5.71858">
        <ele>557</ele>
        <time>2019-03-24T14:55:24.510Z</time>
      </trkpt>
      <trkpt lat="45.67256" lon="5.71856">
        <ele>557</ele>
        <time>2019-03-24T14:55:29.494Z</time>
      </trkpt>
      <trkpt lat="45.67258" lon="5.71852">
        <ele>557</ele>
        <time>2019-03-24T14:55:34.519Z</time>
      </trkpt>
      <trkpt lat="45.67263" lon="5.71851">
        <ele>557</ele>
        <time>2019-03-24T14:55:39.534Z</time>
      </trkpt>
      <trkpt lat="45.67272" lon="5.71847">
        <ele>554</ele>
        <time>2019-03-24T14:55:44.515Z</time>
      </trkpt>
      <trkpt lat="45.67278" lon="5.71846">
        <ele>554</ele>
        <time>2019-03-24T14:55:49.493Z</time>
      </trkpt>
      <trkpt lat="45.67282" lon="5.71851">
        <ele>554</ele>
        <time>2019-03-24T14:55:53.509Z</time>
      </trkpt>
      <trkpt lat="45.67286" lon="5.71866">
        <ele>554</ele>
        <time>2019-03-24T14:55:58.504Z</time>
      </trkpt>
      <trkpt lat="45.67286" lon="5.71876">
        <ele>555</ele>
        <time>2019-03-24T14:56:03.490Z</time>
      </trkpt>
      <trkpt lat="45.67289" lon="5.71883">
        <ele>555</ele>
        <time>2019-03-24T14:56:07.525Z</time>
      </trkpt>
      <trkpt lat="45.67296" lon="5.71886">
        <ele>553</ele>
        <time>2019-03-24T14:56:40.512Z</time>
      </trkpt>
      <trkpt lat="45.67297" lon="5.71886">
        <ele>553</ele>
        <time>2019-03-24T14:56:45.534Z</time>
      </trkpt>
      <trkpt lat="45.67296" lon="5.71885">
        <ele>553</ele>
        <time>2019-03-24T14:56:50.486Z</time>
      </trkpt>
      <trkpt lat="45.67299" lon="5.71887">
        <ele>553</ele>
        <time>2019-03-24T14:56:55.500Z</time>
      </trkpt>
      <trkpt lat="45.67306" lon="5.71895">
        <ele>553</ele>
        <time>2019-03-24T14:57:00.484Z</time>
      </trkpt>
      <trkpt lat="45.67313" lon="5.71902">
        <ele>553</ele>
        <time>2019-03-24T14:57:05.508Z</time>
      </trkpt>
      <trkpt lat="45.67322" lon="5.7191">
        <ele>559</ele>
        <time>2019-03-24T14:57:10.527Z</time>
      </trkpt>
      <trkpt lat="45.6733" lon="5.71918">
        <ele>559</ele>
        <time>2019-03-24T14:57:15.526Z</time>
      </trkpt>
      <trkpt lat="45.67332" lon="5.71918">
        <ele>559</ele>
        <time>2019-03-24T14:57:20.511Z</time>
      </trkpt>
      <trkpt lat="45.6733" lon="5.71911">
        <ele>559</ele>
        <time>2019-03-24T14:57:24.522Z</time>
      </trkpt>
      <trkpt lat="45.67329" lon="5.71905">
        <ele>559</ele>
        <time>2019-03-24T14:57:28.534Z</time>
      </trkpt>
      <trkpt lat="45.67325" lon="5.71897">
        <ele>555</ele>
        <time>2019-03-24T14:57:33.502Z</time>
      </trkpt>
      <trkpt lat="45.67321" lon="5.71887">
        <ele>555</ele>
        <time>2019-03-24T14:57:37.519Z</time>
      </trkpt>
      <trkpt lat="45.6732" lon="5.71877">
        <ele>555</ele>
        <time>2019-03-24T14:57:42.520Z</time>
      </trkpt>
      <trkpt lat="45.67318" lon="5.7187">
        <ele>552</ele>
        <time>2019-03-24T14:57:47.545Z</time>
      </trkpt>
      <trkpt lat="45.67313" lon="5.71866">
        <ele>552</ele>
        <time>2019-03-24T14:57:52.525Z</time>
      </trkpt>
      <trkpt lat="45.67306" lon="5.71853">
        <ele>552</ele>
        <time>2019-03-24T14:57:57.523Z</time>
      </trkpt>
      <trkpt lat="45.67302" lon="5.71851">
        <ele>552</ele>
        <time>2019-03-24T14:58:02.525Z</time>
      </trkpt>
      <trkpt lat="45.67301" lon="5.71838">
        <ele>551</ele>
        <time>2019-03-24T14:58:07.503Z</time>
      </trkpt>
      <trkpt lat="45.67302" lon="5.71825">
        <ele>551</ele>
        <time>2019-03-24T14:58:12.517Z</time>
      </trkpt>
      <trkpt lat="45.67306" lon="5.71813">
        <ele>550</ele>
        <time>2019-03-24T14:58:17.506Z</time>
      </trkpt>
      <trkpt lat="45.67314" lon="5.71806">
        <ele>550</ele>
        <time>2019-03-24T14:58:22.520Z</time>
      </trkpt>
      <trkpt lat="45.67317" lon="5.71797">
        <ele>550</ele>
        <time>2019-03-24T14:58:27.515Z</time>
      </trkpt>
      <trkpt lat="45.67321" lon="5.7179">
        <ele>550</ele>
        <time>2019-03-24T14:58:32.514Z</time>
      </trkpt>
      <trkpt lat="45.67326" lon="5.71779">
        <ele>550</ele>
        <time>2019-03-24T14:58:37.534Z</time>
      </trkpt>
      <trkpt lat="45.67331" lon="5.71772">
        <ele>550</ele>
        <time>2019-03-24T14:58:42.497Z</time>
      </trkpt>
      <trkpt lat="45.67334" lon="5.71768">
        <ele>550</ele>
        <time>2019-03-24T14:58:46.525Z</time>
      </trkpt>
      <trkpt lat="45.67338" lon="5.71757">
        <ele>548</ele>
        <time>2019-03-24T14:58:51.489Z</time>
      </trkpt>
      <trkpt lat="45.67342" lon="5.71751">
        <ele>548</ele>
        <time>2019-03-24T14:58:55.513Z</time>
      </trkpt>
      <trkpt lat="45.67348" lon="5.71744">
        <ele>552</ele>
        <time>2019-03-24T14:59:00.497Z</time>
      </trkpt>
      <trkpt lat="45.67345" lon="5.71726">
        <ele>546</ele>
        <time>2019-03-24T14:59:05.511Z</time>
      </trkpt>
      <trkpt lat="45.67349" lon="5.71725">
        <ele>551</ele>
        <time>2019-03-24T14:59:10.519Z</time>
      </trkpt>
      <trkpt lat="45.67352" lon="5.71716">
        <ele>551</ele>
        <time>2019-03-24T14:59:15.508Z</time>
      </trkpt>
      <trkpt lat="45.67352" lon="5.71706">
        <ele>548</ele>
        <time>2019-03-24T14:59:20.520Z</time>
      </trkpt>
      <trkpt lat="45.67358" lon="5.71693">
        <ele>548</ele>
        <time>2019-03-24T14:59:25.502Z</time>
      </trkpt>
      <trkpt lat="45.67361" lon="5.71686">
        <ele>548</ele>
        <time>2019-03-24T14:59:29.539Z</time>
      </trkpt>
      <trkpt lat="45.67365" lon="5.71682">
        <ele>548</ele>
        <time>2019-03-24T14:59:34.484Z</time>
      </trkpt>
      <trkpt lat="45.67367" lon="5.71676">
        <ele>547</ele>
        <time>2019-03-24T14:59:38.512Z</time>
      </trkpt>
      <trkpt lat="45.67369" lon="5.71668">
        <ele>547</ele>
        <time>2019-03-24T14:59:43.502Z</time>
      </trkpt>
      <trkpt lat="45.67369" lon="5.71664">
        <ele>547</ele>
        <time>2019-03-24T14:59:47.536Z</time>
      </trkpt>
      <trkpt lat="45.67369" lon="5.71659">
        <ele>547</ele>
        <time>2019-03-24T14:59:52.501Z</time>
      </trkpt>
      <trkpt lat="45.67369" lon="5.71645">
        <ele>547</ele>
        <time>2019-03-24T14:59:56.514Z</time>
      </trkpt>
      <trkpt lat="45.67367" lon="5.71635">
        <ele>547</ele>
        <time>2019-03-24T15:00:01.528Z</time>
      </trkpt>
      <trkpt lat="45.67364" lon="5.71624">
        <ele>547</ele>
        <time>2019-03-24T15:00:06.514Z</time>
      </trkpt>
      <trkpt lat="45.67362" lon="5.71618">
        <ele>547</ele>
        <time>2019-03-24T15:00:10.537Z</time>
      </trkpt>
      <trkpt lat="45.6736" lon="5.7161">
        <ele>547</ele>
        <time>2019-03-24T15:00:15.511Z</time>
      </trkpt>
      <trkpt lat="45.6736" lon="5.71609">
        <ele>547</ele>
        <time>2019-03-24T15:00:19.535Z</time>
      </trkpt>
      <trkpt lat="45.67359" lon="5.71604">
        <ele>547</ele>
        <time>2019-03-24T15:00:24.504Z</time>
      </trkpt>
      <trkpt lat="45.67353" lon="5.7159">
        <ele>546</ele>
        <time>2019-03-24T15:00:29.490Z</time>
      </trkpt>
      <trkpt lat="45.67349" lon="5.7158">
        <ele>546</ele>
        <time>2019-03-24T15:00:33.496Z</time>
      </trkpt>
      <trkpt lat="45.67345" lon="5.71572">
        <ele>543</ele>
        <time>2019-03-24T15:00:38.494Z</time>
      </trkpt>
      <trkpt lat="45.67343" lon="5.71565">
        <ele>541</ele>
        <time>2019-03-24T15:00:42.502Z</time>
      </trkpt>
      <trkpt lat="45.67342" lon="5.71564">
        <ele>541</ele>
        <time>2019-03-24T15:00:47.495Z</time>
      </trkpt>
      <trkpt lat="45.67336" lon="5.71577">
        <ele>543</ele>
        <time>2019-03-24T15:00:51.514Z</time>
      </trkpt>
      <trkpt lat="45.67333" lon="5.71585">
        <ele>543</ele>
        <time>2019-03-24T15:00:55.524Z</time>
      </trkpt>
      <trkpt lat="45.67328" lon="5.71591">
        <ele>543</ele>
        <time>2019-03-24T15:01:00.485Z</time>
      </trkpt>
      <trkpt lat="45.67325" lon="5.71592">
        <ele>543</ele>
        <time>2019-03-24T15:01:04.537Z</time>
      </trkpt>
      <trkpt lat="45.67321" lon="5.71602">
        <ele>544</ele>
        <time>2019-03-24T15:01:09.517Z</time>
      </trkpt>
      <trkpt lat="45.67317" lon="5.71612">
        <ele>540</ele>
        <time>2019-03-24T15:01:14.508Z</time>
      </trkpt>
      <trkpt lat="45.67313" lon="5.71621">
        <ele>540</ele>
        <time>2019-03-24T15:01:19.485Z</time>
      </trkpt>
      <trkpt lat="45.67308" lon="5.71624">
        <ele>540</ele>
        <time>2019-03-24T15:01:23.515Z</time>
      </trkpt>
      <trkpt lat="45.67302" lon="5.71632">
        <ele>541</ele>
        <time>2019-03-24T15:01:28.483Z</time>
      </trkpt>
      <trkpt lat="45.67285" lon="5.71644">
        <ele>538</ele>
        <time>2019-03-24T15:01:32.526Z</time>
      </trkpt>
      <trkpt lat="45.67265" lon="5.71661">
        <ele>541</ele>
        <time>2019-03-24T15:01:37.495Z</time>
      </trkpt>
      <trkpt lat="45.67244" lon="5.71672">
        <ele>539</ele>
        <time>2019-03-24T15:01:41.526Z</time>
      </trkpt>
      <trkpt lat="45.67215" lon="5.71685">
        <ele>542</ele>
        <time>2019-03-24T15:01:46.514Z</time>
      </trkpt>
      <trkpt lat="45.67193" lon="5.71677">
        <ele>544</ele>
        <time>2019-03-24T15:01:50.519Z</time>
      </trkpt>
      <trkpt lat="45.6718" lon="5.71659">
        <ele>545</ele>
        <time>2019-03-24T15:01:54.522Z</time>
      </trkpt>
      <trkpt lat="45.67172" lon="5.7165">
        <ele>543</ele>
        <time>2019-03-24T15:01:59.512Z</time>
      </trkpt>
      <trkpt lat="45.67165" lon="5.71646">
        <ele>543</ele>
        <time>2019-03-24T15:02:03.523Z</time>
      </trkpt>
      <trkpt lat="45.67159" lon="5.71641">
        <ele>543</ele>
        <time>2019-03-24T15:02:08.523Z</time>
      </trkpt>
      <trkpt lat="45.67155" lon="5.71632">
        <ele>543</ele>
        <time>2019-03-24T15:02:13.531Z</time>
      </trkpt>
      <trkpt lat="45.67149" lon="5.7163">
        <ele>545</ele>
        <time>2019-03-24T15:02:18.530Z</time>
      </trkpt>
      <trkpt lat="45.67141" lon="5.7163">
        <ele>545</ele>
        <time>2019-03-24T15:02:23.537Z</time>
      </trkpt>
      <trkpt lat="45.67131" lon="5.71632">
        <ele>545</ele>
        <time>2019-03-24T15:02:28.512Z</time>
      </trkpt>
      <trkpt lat="45.6712" lon="5.71637">
        <ele>549</ele>
        <time>2019-03-24T15:02:33.489Z</time>
      </trkpt>
      <trkpt lat="45.67103" lon="5.71641">
        <ele>549</ele>
        <time>2019-03-24T15:02:37.500Z</time>
      </trkpt>
      <trkpt lat="45.67075" lon="5.71637">
        <ele>555</ele>
        <time>2019-03-24T15:02:42.492Z</time>
      </trkpt>
      <trkpt lat="45.67049" lon="5.71627">
        <ele>561</ele>
        <time>2019-03-24T15:02:46.519Z</time>
      </trkpt>
      <trkpt lat="45.6702" lon="5.7162">
        <ele>561</ele>
        <time>2019-03-24T15:02:51.526Z</time>
      </trkpt>
      <trkpt lat="45.67001" lon="5.71621">
        <ele>563</ele>
        <time>2019-03-24T15:02:56.531Z</time>
      </trkpt>
      <trkpt lat="45.66973" lon="5.71611">
        <ele>567</ele>
        <time>2019-03-24T15:03:01.511Z</time>
      </trkpt>
      <trkpt lat="45.66958" lon="5.71592">
        <ele>564</ele>
        <time>2019-03-24T15:03:06.495Z</time>
      </trkpt>
      <trkpt lat="45.66956" lon="5.71584">
        <ele>564</ele>
        <time>2019-03-24T15:03:10.513Z</time>
      </trkpt>
      <trkpt lat="45.66954" lon="5.71571">
        <ele>564</ele>
        <time>2019-03-24T15:03:15.548Z</time>
      </trkpt>
      <trkpt lat="45.66949" lon="5.71563">
        <ele>557</ele>
        <time>2019-03-24T15:03:20.520Z</time>
      </trkpt>
      <trkpt lat="45.66944" lon="5.71556">
        <ele>557</ele>
        <time>2019-03-24T15:03:25.518Z</time>
      </trkpt>
      <trkpt lat="45.66938" lon="5.71546">
        <ele>557</ele>
        <time>2019-03-24T15:03:30.500Z</time>
      </trkpt>
      <trkpt lat="45.66929" lon="5.71541">
        <ele>553</ele>
        <time>2019-03-24T15:03:34.516Z</time>
      </trkpt>
      <trkpt lat="45.66925" lon="5.71536">
        <ele>553</ele>
        <time>2019-03-24T15:03:39.510Z</time>
      </trkpt>
      <trkpt lat="45.66917" lon="5.71529">
        <ele>553</ele>
        <time>2019-03-24T15:03:44.521Z</time>
      </trkpt>
      <trkpt lat="45.6691" lon="5.71521">
        <ele>553</ele>
        <time>2019-03-24T15:03:49.494Z</time>
      </trkpt>
      <trkpt lat="45.66908" lon="5.71519">
        <ele>553</ele>
        <time>2019-03-24T15:03:53.515Z</time>
      </trkpt>
      <trkpt lat="45.66903" lon="5.71517">
        <ele>553</ele>
        <time>2019-03-24T15:03:58.502Z</time>
      </trkpt>
      <trkpt lat="45.66894" lon="5.71511">
        <ele>550</ele>
        <time>2019-03-24T15:04:03.498Z</time>
      </trkpt>
      <trkpt lat="45.66885" lon="5.71513">
        <ele>550</ele>
        <time>2019-03-24T15:04:07.507Z</time>
      </trkpt>
      <trkpt lat="45.66874" lon="5.71514">
        <ele>558</ele>
        <time>2019-03-24T15:04:11.527Z</time>
      </trkpt>
      <trkpt lat="45.66852" lon="5.71517">
        <ele>558</ele>
        <time>2019-03-24T15:04:16.502Z</time>
      </trkpt>
      <trkpt lat="45.66825" lon="5.71506">
        <ele>558</ele>
        <time>2019-03-24T15:04:21.493Z</time>
      </trkpt>
      <trkpt lat="45.66808" lon="5.71496">
        <ele>562</ele>
        <time>2019-03-24T15:04:26.523Z</time>
      </trkpt>
      <trkpt lat="45.66775" lon="5.71481">
        <ele>559</ele>
        <time>2019-03-24T15:04:31.499Z</time>
      </trkpt>
      <trkpt lat="45.66761" lon="5.71473">
        <ele>562</ele>
        <time>2019-03-24T15:04:35.510Z</time>
      </trkpt>
      <trkpt lat="45.66752" lon="5.71465">
        <ele>562</ele>
        <time>2019-03-24T15:04:40.489Z</time>
      </trkpt>
      <trkpt lat="45.66751" lon="5.71461">
        <ele>562</ele>
        <time>2019-03-24T15:04:44.517Z</time>
      </trkpt>
      <trkpt lat="45.66747" lon="5.71445">
        <ele>557</ele>
        <time>2019-03-24T15:04:49.485Z</time>
      </trkpt>
      <trkpt lat="45.66744" lon="5.71438">
        <ele>557</ele>
        <time>2019-03-24T15:04:53.525Z</time>
      </trkpt>
      <trkpt lat="45.66735" lon="5.71437">
        <ele>559</ele>
        <time>2019-03-24T15:04:58.521Z</time>
      </trkpt>
      <trkpt lat="45.66729" lon="5.7144">
        <ele>559</ele>
        <time>2019-03-24T15:05:03.487Z</time>
      </trkpt>
      <trkpt lat="45.66723" lon="5.71444">
        <ele>559</ele>
        <time>2019-03-24T15:05:07.497Z</time>
      </trkpt>
      <trkpt lat="45.66714" lon="5.71446">
        <ele>559</ele>
        <time>2019-03-24T15:05:11.512Z</time>
      </trkpt>
      <trkpt lat="45.66709" lon="5.71447">
        <ele>559</ele>
        <time>2019-03-24T15:05:16.512Z</time>
      </trkpt>
      <trkpt lat="45.66707" lon="5.71451">
        <ele>560</ele>
        <time>2019-03-24T15:05:20.522Z</time>
      </trkpt>
      <trkpt lat="45.667" lon="5.71458">
        <ele>560</ele>
        <time>2019-03-24T15:05:25.499Z</time>
      </trkpt>
      <trkpt lat="45.66693" lon="5.71468">
        <ele>563</ele>
        <time>2019-03-24T15:05:29.505Z</time>
      </trkpt>
      <trkpt lat="45.66689" lon="5.71472">
        <ele>563</ele>
        <time>2019-03-24T15:05:34.497Z</time>
      </trkpt>
      <trkpt lat="45.66685" lon="5.71477">
        <ele>563</ele>
        <time>2019-03-24T15:05:39.498Z</time>
      </trkpt>
      <trkpt lat="45.66679" lon="5.71479">
        <ele>563</ele>
        <time>2019-03-24T15:05:44.504Z</time>
      </trkpt>
      <trkpt lat="45.66665" lon="5.71483">
        <ele>563</ele>
        <time>2019-03-24T15:05:49.494Z</time>
      </trkpt>
      <trkpt lat="45.66663" lon="5.71485">
        <ele>563</ele>
        <time>2019-03-24T15:05:53.506Z</time>
      </trkpt>
      <trkpt lat="45.66658" lon="5.715">
        <ele>564</ele>
        <time>2019-03-24T15:05:58.479Z</time>
      </trkpt>
      <trkpt lat="45.66657" lon="5.71507">
        <ele>564</ele>
        <time>2019-03-24T15:06:02.506Z</time>
      </trkpt>
      <trkpt lat="45.66657" lon="5.71515">
        <ele>565</ele>
        <time>2019-03-24T15:06:07.510Z</time>
      </trkpt>
      <trkpt lat="45.66659" lon="5.71528">
        <ele>565</ele>
        <time>2019-03-24T15:06:12.503Z</time>
      </trkpt>
      <trkpt lat="45.66661" lon="5.71534">
        <ele>565</ele>
        <time>2019-03-24T15:06:16.519Z</time>
      </trkpt>
      <trkpt lat="45.66662" lon="5.71542">
        <ele>567</ele>
        <time>2019-03-24T15:06:21.527Z</time>
      </trkpt>
      <trkpt lat="45.66667" lon="5.71555">
        <ele>567</ele>
        <time>2019-03-24T15:06:26.507Z</time>
      </trkpt>
      <trkpt lat="45.66664" lon="5.71577">
        <ele>568</ele>
        <time>2019-03-24T15:06:31.507Z</time>
      </trkpt>
      <trkpt lat="45.66667" lon="5.71583">
        <ele>568</ele>
        <time>2019-03-24T15:06:35.526Z</time>
      </trkpt>
      <trkpt lat="45.6667" lon="5.71594">
        <ele>568</ele>
        <time>2019-03-24T15:06:40.499Z</time>
      </trkpt>
      <trkpt lat="45.66666" lon="5.71605">
        <ele>570</ele>
        <time>2019-03-24T15:06:45.502Z</time>
      </trkpt>
      <trkpt lat="45.66676" lon="5.71627">
        <ele>571</ele>
        <time>2019-03-24T15:06:50.509Z</time>
      </trkpt>
      <trkpt lat="45.66679" lon="5.71633">
        <ele>571</ele>
        <time>2019-03-24T15:06:55.500Z</time>
      </trkpt>
      <trkpt lat="45.6668" lon="5.71641">
        <ele>571</ele>
        <time>2019-03-24T15:07:00.486Z</time>
      </trkpt>
      <trkpt lat="45.66676" lon="5.71659">
        <ele>572</ele>
        <time>2019-03-24T15:07:04.508Z</time>
      </trkpt>
      <trkpt lat="45.66672" lon="5.71662">
        <ele>572</ele>
        <time>2019-03-24T15:07:08.531Z</time>
      </trkpt>
      <trkpt lat="45.66674" lon="5.71674">
        <ele>572</ele>
        <time>2019-03-24T15:07:13.509Z</time>
      </trkpt>
      <trkpt lat="45.66669" lon="5.71687">
        <ele>573</ele>
        <time>2019-03-24T15:07:18.514Z</time>
      </trkpt>
      <trkpt lat="45.66667" lon="5.71696">
        <ele>573</ele>
        <time>2019-03-24T15:07:22.516Z</time>
      </trkpt>
      <trkpt lat="45.66655" lon="5.71686">
        <ele>573</ele>
        <time>2019-03-24T15:07:27.505Z</time>
      </trkpt>
      <trkpt lat="45.66649" lon="5.71675">
        <ele>575</ele>
        <time>2019-03-24T15:07:31.522Z</time>
      </trkpt>
      <trkpt lat="45.66644" lon="5.71666">
        <ele>575</ele>
        <time>2019-03-24T15:07:36.509Z</time>
      </trkpt>
      <trkpt lat="45.66641" lon="5.71659">
        <ele>575</ele>
        <time>2019-03-24T15:07:40.528Z</time>
      </trkpt>
      <trkpt lat="45.66637" lon="5.7165">
        <ele>575</ele>
        <time>2019-03-24T15:07:45.508Z</time>
      </trkpt>
      <trkpt lat="45.66633" lon="5.71639">
        <ele>575</ele>
        <time>2019-03-24T15:07:50.500Z</time>
      </trkpt>
      <trkpt lat="45.66628" lon="5.71628">
        <ele>575</ele>
        <time>2019-03-24T15:07:55.501Z</time>
      </trkpt>
      <trkpt lat="45.66621" lon="5.71621">
        <ele>580</ele>
        <time>2019-03-24T15:08:00.479Z</time>
      </trkpt>
      <trkpt lat="45.66616" lon="5.71616">
        <ele>580</ele>
        <time>2019-03-24T15:08:04.518Z</time>
      </trkpt>
      <trkpt lat="45.66611" lon="5.71611">
        <ele>580</ele>
        <time>2019-03-24T15:08:09.499Z</time>
      </trkpt>
      <trkpt lat="45.66605" lon="5.71604">
        <ele>580</ele>
        <time>2019-03-24T15:08:13.517Z</time>
      </trkpt>
      <trkpt lat="45.666" lon="5.71596">
        <ele>579</ele>
        <time>2019-03-24T15:08:18.507Z</time>
      </trkpt>
      <trkpt lat="45.66589" lon="5.71592">
        <ele>584</ele>
        <time>2019-03-24T15:08:23.483Z</time>
      </trkpt>
      <trkpt lat="45.66583" lon="5.71589">
        <ele>584</ele>
        <time>2019-03-24T15:08:27.512Z</time>
      </trkpt>
      <trkpt lat="45.66575" lon="5.71585">
        <ele>584</ele>
        <time>2019-03-24T15:08:32.514Z</time>
      </trkpt>
      <trkpt lat="45.66568" lon="5.71583">
        <ele>587</ele>
        <time>2019-03-24T15:08:37.512Z</time>
      </trkpt>
      <trkpt lat="45.6656" lon="5.71582">
        <ele>587</ele>
        <time>2019-03-24T15:08:42.500Z</time>
      </trkpt>
      <trkpt lat="45.66555" lon="5.7158">
        <ele>587</ele>
        <time>2019-03-24T15:08:47.496Z</time>
      </trkpt>
      <trkpt lat="45.66549" lon="5.71579">
        <ele>587</ele>
        <time>2019-03-24T15:08:51.510Z</time>
      </trkpt>
      <trkpt lat="45.66536" lon="5.71571">
        <ele>590</ele>
        <time>2019-03-24T15:08:56.514Z</time>
      </trkpt>
      <trkpt lat="45.66517" lon="5.71556">
        <ele>590</ele>
        <time>2019-03-24T15:09:01.523Z</time>
      </trkpt>
      <trkpt lat="45.66499" lon="5.71542">
        <ele>595</ele>
        <time>2019-03-24T15:09:06.500Z</time>
      </trkpt>
      <trkpt lat="45.66482" lon="5.7152">
        <ele>599</ele>
        <time>2019-03-24T15:09:11.496Z</time>
      </trkpt>
      <trkpt lat="45.6646" lon="5.71499">
        <ele>598</ele>
        <time>2019-03-24T15:09:15.506Z</time>
      </trkpt>
      <trkpt lat="45.6644" lon="5.71485">
        <ele>600</ele>
        <time>2019-03-24T15:09:20.498Z</time>
      </trkpt>
      <trkpt lat="45.66427" lon="5.71487">
        <ele>598</ele>
        <time>2019-03-24T15:09:24.509Z</time>
      </trkpt>
      <trkpt lat="45.66413" lon="5.71478">
        <ele>599</ele>
        <time>2019-03-24T15:09:29.493Z</time>
      </trkpt>
      <trkpt lat="45.66406" lon="5.71474">
        <ele>599</ele>
        <time>2019-03-24T15:09:33.523Z</time>
      </trkpt>
      <trkpt lat="45.66394" lon="5.71469">
        <ele>597</ele>
        <time>2019-03-24T15:09:38.512Z</time>
      </trkpt>
      <trkpt lat="45.66385" lon="5.71457">
        <ele>599</ele>
        <time>2019-03-24T15:09:43.496Z</time>
      </trkpt>
      <trkpt lat="45.66376" lon="5.71452">
        <ele>599</ele>
        <time>2019-03-24T15:09:48.514Z</time>
      </trkpt>
      <trkpt lat="45.66368" lon="5.71447">
        <ele>600</ele>
        <time>2019-03-24T15:09:53.494Z</time>
      </trkpt>
      <trkpt lat="45.66362" lon="5.71444">
        <ele>600</ele>
        <time>2019-03-24T15:09:58.496Z</time>
      </trkpt>
      <trkpt lat="45.66355" lon="5.71441">
        <ele>600</ele>
        <time>2019-03-24T15:10:02.507Z</time>
      </trkpt>
      <trkpt lat="45.66347" lon="5.71438">
        <ele>602</ele>
        <time>2019-03-24T15:10:07.501Z</time>
      </trkpt>
      <trkpt lat="45.66341" lon="5.71437">
        <ele>602</ele>
        <time>2019-03-24T15:10:11.523Z</time>
      </trkpt>
      <trkpt lat="45.6633" lon="5.71434">
        <ele>602</ele>
        <time>2019-03-24T15:10:16.503Z</time>
      </trkpt>
      <trkpt lat="45.6632" lon="5.71429">
        <ele>604</ele>
        <time>2019-03-24T15:10:21.499Z</time>
      </trkpt>
      <trkpt lat="45.663" lon="5.71419">
        <ele>606</ele>
        <time>2019-03-24T15:10:26.504Z</time>
      </trkpt>
      <trkpt lat="45.66279" lon="5.71408">
        <ele>609</ele>
        <time>2019-03-24T15:10:31.506Z</time>
      </trkpt>
      <trkpt lat="45.66253" lon="5.71395">
        <ele>614</ele>
        <time>2019-03-24T15:10:36.497Z</time>
      </trkpt>
      <trkpt lat="45.66223" lon="5.71382">
        <ele>622</ele>
        <time>2019-03-24T15:10:41.508Z</time>
      </trkpt>
      <trkpt lat="45.66201" lon="5.71363">
        <ele>626</ele>
        <time>2019-03-24T15:10:46.502Z</time>
      </trkpt>
      <trkpt lat="45.66184" lon="5.71348">
        <ele>626</ele>
        <time>2019-03-24T15:10:51.494Z</time>
      </trkpt>
      <trkpt lat="45.66157" lon="5.71338">
        <ele>627</ele>
        <time>2019-03-24T15:10:55.502Z</time>
      </trkpt>
      <trkpt lat="45.66132" lon="5.71324">
        <ele>627</ele>
        <time>2019-03-24T15:11:00.536Z</time>
      </trkpt>
      <trkpt lat="45.6611" lon="5.71304">
        <ele>628</ele>
        <time>2019-03-24T15:11:05.492Z</time>
      </trkpt>
      <trkpt lat="45.66095" lon="5.71299">
        <ele>630</ele>
        <time>2019-03-24T15:11:09.518Z</time>
      </trkpt>
      <trkpt lat="45.66083" lon="5.71291">
        <ele>631</ele>
        <time>2019-03-24T15:11:14.521Z</time>
      </trkpt>
      <trkpt lat="45.66074" lon="5.71288">
        <ele>631</ele>
        <time>2019-03-24T15:11:19.491Z</time>
      </trkpt>
      <trkpt lat="45.66061" lon="5.71295">
        <ele>634</ele>
        <time>2019-03-24T15:11:23.517Z</time>
      </trkpt>
      <trkpt lat="45.66054" lon="5.71296">
        <ele>634</ele>
        <time>2019-03-24T15:11:28.494Z</time>
      </trkpt>
      <trkpt lat="45.66046" lon="5.71298">
        <ele>634</ele>
        <time>2019-03-24T15:11:33.513Z</time>
      </trkpt>
      <trkpt lat="45.66039" lon="5.71306">
        <ele>641</ele>
        <time>2019-03-24T15:11:38.520Z</time>
      </trkpt>
      <trkpt lat="45.66033" lon="5.71312">
        <ele>641</ele>
        <time>2019-03-24T15:11:43.515Z</time>
      </trkpt>
      <trkpt lat="45.66028" lon="5.71317">
        <ele>641</ele>
        <time>2019-03-24T15:11:48.514Z</time>
      </trkpt>
      <trkpt lat="45.66023" lon="5.71322">
        <ele>641</ele>
        <time>2019-03-24T15:11:52.490Z</time>
      </trkpt>
      <trkpt lat="45.66021" lon="5.71323">
        <ele>641</ele>
        <time>2019-03-24T15:11:57.490Z</time>
      </trkpt>
      <trkpt lat="45.66017" lon="5.71335">
        <ele>641</ele>
        <time>2019-03-24T15:12:02.498Z</time>
      </trkpt>
      <trkpt lat="45.66015" lon="5.7135">
        <ele>641</ele>
        <time>2019-03-24T15:12:07.513Z</time>
      </trkpt>
      <trkpt lat="45.66013" lon="5.71361">
        <ele>642</ele>
        <time>2019-03-24T15:12:12.502Z</time>
      </trkpt>
      <trkpt lat="45.66012" lon="5.71371">
        <ele>642</ele>
        <time>2019-03-24T15:12:17.484Z</time>
      </trkpt>
      <trkpt lat="45.66013" lon="5.71381">
        <ele>643</ele>
        <time>2019-03-24T15:12:21.494Z</time>
      </trkpt>
      <trkpt lat="45.66011" lon="5.71389">
        <ele>643</ele>
        <time>2019-03-24T15:12:25.511Z</time>
      </trkpt>
      <trkpt lat="45.6601" lon="5.71399">
        <ele>643</ele>
        <time>2019-03-24T15:12:30.508Z</time>
      </trkpt>
      <trkpt lat="45.66009" lon="5.71406">
        <ele>644</ele>
        <time>2019-03-24T15:12:35.501Z</time>
      </trkpt>
      <trkpt lat="45.66007" lon="5.71413">
        <ele>644</ele>
        <time>2019-03-24T15:12:39.510Z</time>
      </trkpt>
      <trkpt lat="45.66004" lon="5.71417">
        <ele>644</ele>
        <time>2019-03-24T15:12:43.521Z</time>
      </trkpt>
      <trkpt lat="45.65999" lon="5.7142">
        <ele>644</ele>
        <time>2019-03-24T15:12:48.527Z</time>
      </trkpt>
      <trkpt lat="45.6599" lon="5.71424">
        <ele>644</ele>
        <time>2019-03-24T15:12:53.534Z</time>
      </trkpt>
      <trkpt lat="45.65983" lon="5.71405">
        <ele>647</ele>
        <time>2019-03-24T15:12:58.492Z</time>
      </trkpt>
      <trkpt lat="45.65972" lon="5.71371">
        <ele>645</ele>
        <time>2019-03-24T15:13:03.497Z</time>
      </trkpt>
      <trkpt lat="45.65955" lon="5.71335">
        <ele>650</ele>
        <time>2019-03-24T15:13:08.508Z</time>
      </trkpt>
      <trkpt lat="45.65941" lon="5.71303">
        <ele>650</ele>
        <time>2019-03-24T15:13:13.505Z</time>
      </trkpt>
      <trkpt lat="45.65926" lon="5.71276">
        <ele>653</ele>
        <time>2019-03-24T15:13:18.499Z</time>
      </trkpt>
      <trkpt lat="45.65914" lon="5.71254">
        <ele>650</ele>
        <time>2019-03-24T15:13:23.507Z</time>
      </trkpt>
      <trkpt lat="45.65902" lon="5.7123">
        <ele>652</ele>
        <time>2019-03-24T15:13:28.506Z</time>
      </trkpt>
      <trkpt lat="45.65891" lon="5.71209">
        <ele>652</ele>
        <time>2019-03-24T15:13:33.524Z</time>
      </trkpt>
      <trkpt lat="45.65881" lon="5.71187">
        <ele>649</ele>
        <time>2019-03-24T15:13:38.531Z</time>
      </trkpt>
      <trkpt lat="45.6587" lon="5.7117">
        <ele>653</ele>
        <time>2019-03-24T15:14:25.496Z</time>
      </trkpt>
      <trkpt lat="45.65869" lon="5.71169">
        <ele>653</ele>
        <time>2019-03-24T15:14:30.497Z</time>
      </trkpt>
      <trkpt lat="45.65869" lon="5.71168">
        <ele>653</ele>
        <time>2019-03-24T15:14:35.496Z</time>
      </trkpt>
      <trkpt lat="45.65868" lon="5.71168">
        <ele>653</ele>
        <time>2019-03-24T15:14:39.516Z</time>
      </trkpt>
      <trkpt lat="45.65868" lon="5.71168">
        <ele>653</ele>
        <time>2019-03-24T15:14:44.507Z</time>
      </trkpt>
      <trkpt lat="45.65859" lon="5.71172">
        <ele>653</ele>
        <time>2019-03-24T15:15:47.516Z</time>
      </trkpt>
      <trkpt lat="45.65859" lon="5.71172">
        <ele>653</ele>
        <time>2019-03-24T15:15:52.503Z</time>
      </trkpt>
      <trkpt lat="45.65859" lon="5.71172">
        <ele>653</ele>
        <time>2019-03-24T15:15:56.510Z</time>
      </trkpt>
      <trkpt lat="45.65857" lon="5.71172">
        <ele>653</ele>
        <time>2019-03-24T15:16:01.491Z</time>
      </trkpt>
      <trkpt lat="45.65857" lon="5.71172">
        <ele>653</ele>
        <time>2019-03-24T15:16:06.516Z</time>
      </trkpt>
      <trkpt lat="45.65856" lon="5.71173">
        <ele>653</ele>
        <time>2019-03-24T15:16:11.509Z</time>
      </trkpt>
      <trkpt lat="45.65853" lon="5.71179">
        <ele>653</ele>
        <time>2019-03-24T15:16:16.520Z</time>
      </trkpt>
      <trkpt lat="45.65846" lon="5.71183">
        <ele>659</ele>
        <time>2019-03-24T15:16:21.503Z</time>
      </trkpt>
      <trkpt lat="45.65842" lon="5.71185">
        <ele>659</ele>
        <time>2019-03-24T15:16:26.504Z</time>
      </trkpt>
      <trkpt lat="45.65841" lon="5.71184">
        <ele>659</ele>
        <time>2019-03-24T15:16:31.483Z</time>
      </trkpt>
      <trkpt lat="45.65835" lon="5.71184">
        <ele>659</ele>
        <time>2019-03-24T15:16:35.501Z</time>
      </trkpt>
      <trkpt lat="45.65829" lon="5.71185">
        <ele>659</ele>
        <time>2019-03-24T15:16:40.500Z</time>
      </trkpt>
      <trkpt lat="45.65825" lon="5.71189">
        <ele>659</ele>
        <time>2019-03-24T15:16:45.497Z</time>
      </trkpt>
      <trkpt lat="45.65824" lon="5.71205">
        <ele>659</ele>
        <time>2019-03-24T15:16:50.492Z</time>
      </trkpt>
      <trkpt lat="45.65823" lon="5.71218">
        <ele>661</ele>
        <time>2019-03-24T15:16:54.499Z</time>
      </trkpt>
      <trkpt lat="45.65822" lon="5.71231">
        <ele>661</ele>
        <time>2019-03-24T15:16:59.503Z</time>
      </trkpt>
      <trkpt lat="45.65819" lon="5.71243">
        <ele>668</ele>
        <time>2019-03-24T15:17:04.487Z</time>
      </trkpt>
      <trkpt lat="45.6582" lon="5.71249">
        <ele>662</ele>
        <time>2019-03-24T15:17:08.505Z</time>
      </trkpt>
      <trkpt lat="45.65819" lon="5.71257">
        <ele>668</ele>
        <time>2019-03-24T15:17:12.524Z</time>
      </trkpt>
      <trkpt lat="45.65818" lon="5.71266">
        <ele>670</ele>
        <time>2019-03-24T15:17:17.515Z</time>
      </trkpt>
      <trkpt lat="45.65819" lon="5.71274">
        <ele>670</ele>
        <time>2019-03-24T15:17:22.523Z</time>
      </trkpt>
      <trkpt lat="45.65823" lon="5.71283">
        <ele>663</ele>
        <time>2019-03-24T15:17:27.512Z</time>
      </trkpt>
      <trkpt lat="45.65828" lon="5.71288">
        <ele>663</ele>
        <time>2019-03-24T15:17:32.501Z</time>
      </trkpt>
      <trkpt lat="45.65836" lon="5.71294">
        <ele>666</ele>
        <time>2019-03-24T15:17:36.500Z</time>
      </trkpt>
      <trkpt lat="45.65839" lon="5.71299">
        <ele>666</ele>
        <time>2019-03-24T15:17:40.530Z</time>
      </trkpt>
      <trkpt lat="45.65845" lon="5.71307">
        <ele>666</ele>
        <time>2019-03-24T15:17:45.516Z</time>
      </trkpt>
      <trkpt lat="45.65849" lon="5.71316">
        <ele>661</ele>
        <time>2019-03-24T15:17:49.518Z</time>
      </trkpt>
      <trkpt lat="45.65853" lon="5.7133">
        <ele>664</ele>
        <time>2019-03-24T15:17:54.504Z</time>
      </trkpt>
      <trkpt lat="45.65854" lon="5.71339">
        <ele>664</ele>
        <time>2019-03-24T15:17:59.501Z</time>
      </trkpt>
      <trkpt lat="45.65853" lon="5.71346">
        <ele>664</ele>
        <time>2019-03-24T15:18:03.511Z</time>
      </trkpt>
      <trkpt lat="45.65855" lon="5.71356">
        <ele>668</ele>
        <time>2019-03-24T15:18:08.503Z</time>
      </trkpt>
      <trkpt lat="45.65856" lon="5.71362">
        <ele>668</ele>
        <time>2019-03-24T15:18:13.511Z</time>
      </trkpt>
      <trkpt lat="45.65859" lon="5.71367">
        <ele>668</ele>
        <time>2019-03-24T15:18:17.518Z</time>
      </trkpt>
      <trkpt lat="45.65863" lon="5.71373">
        <ele>668</ele>
        <time>2019-03-24T15:18:22.529Z</time>
      </trkpt>
      <trkpt lat="45.65869" lon="5.71377">
        <ele>672</ele>
        <time>2019-03-24T15:18:27.497Z</time>
      </trkpt>
      <trkpt lat="45.65875" lon="5.7138">
        <ele>672</ele>
        <time>2019-03-24T15:18:32.516Z</time>
      </trkpt>
      <trkpt lat="45.65883" lon="5.71387">
        <ele>669</ele>
        <time>2019-03-24T15:18:37.495Z</time>
      </trkpt>
      <trkpt lat="45.65889" lon="5.71388">
        <ele>669</ele>
        <time>2019-03-24T15:18:42.500Z</time>
      </trkpt>
      <trkpt lat="45.65898" lon="5.71393">
        <ele>669</ele>
        <time>2019-03-24T15:18:47.518Z</time>
      </trkpt>
      <trkpt lat="45.65901" lon="5.71399">
        <ele>669</ele>
        <time>2019-03-24T15:18:52.503Z</time>
      </trkpt>
      <trkpt lat="45.65902" lon="5.71405">
        <ele>673</ele>
        <time>2019-03-24T15:18:56.507Z</time>
      </trkpt>
      <trkpt lat="45.65902" lon="5.71411">
        <ele>673</ele>
        <time>2019-03-24T15:19:01.515Z</time>
      </trkpt>
      <trkpt lat="45.65904" lon="5.7142">
        <ele>667</ele>
        <time>2019-03-24T15:19:06.499Z</time>
      </trkpt>
      <trkpt lat="45.65902" lon="5.71426">
        <ele>673</ele>
        <time>2019-03-24T15:19:10.511Z</time>
      </trkpt>
      <trkpt lat="45.65898" lon="5.71431">
        <ele>674</ele>
        <time>2019-03-24T15:19:15.508Z</time>
      </trkpt>
      <trkpt lat="45.65892" lon="5.71437">
        <ele>674</ele>
        <time>2019-03-24T15:19:20.502Z</time>
      </trkpt>
      <trkpt lat="45.65885" lon="5.71445">
        <ele>674</ele>
        <time>2019-03-24T15:19:25.510Z</time>
      </trkpt>
      <trkpt lat="45.65882" lon="5.71452">
        <ele>674</ele>
        <time>2019-03-24T15:19:30.514Z</time>
      </trkpt>
      <trkpt lat="45.65881" lon="5.71462">
        <ele>676</ele>
        <time>2019-03-24T15:19:35.502Z</time>
      </trkpt>
      <trkpt lat="45.65883" lon="5.7147">
        <ele>676</ele>
        <time>2019-03-24T15:19:39.509Z</time>
      </trkpt>
      <trkpt lat="45.65886" lon="5.71476">
        <ele>676</ele>
        <time>2019-03-24T15:19:43.521Z</time>
      </trkpt>
      <trkpt lat="45.65884" lon="5.71492">
        <ele>679</ele>
        <time>2019-03-24T15:19:48.498Z</time>
      </trkpt>
      <trkpt lat="45.65879" lon="5.71506">
        <ele>679</ele>
        <time>2019-03-24T15:19:52.511Z</time>
      </trkpt>
      <trkpt lat="45.65879" lon="5.71511">
        <ele>679</ele>
        <time>2019-03-24T15:19:57.507Z</time>
      </trkpt>
      <trkpt lat="45.65879" lon="5.71519">
        <ele>683</ele>
        <time>2019-03-24T15:20:02.503Z</time>
      </trkpt>
      <trkpt lat="45.65887" lon="5.71523">
        <ele>683</ele>
        <time>2019-03-24T15:20:07.495Z</time>
      </trkpt>
      <trkpt lat="45.65891" lon="5.71525">
        <ele>683</ele>
        <time>2019-03-24T15:20:11.504Z</time>
      </trkpt>
      <trkpt lat="45.65899" lon="5.71531">
        <ele>683</ele>
        <time>2019-03-24T15:20:15.516Z</time>
      </trkpt>
      <trkpt lat="45.65905" lon="5.71539">
        <ele>676</ele>
        <time>2019-03-24T15:20:20.529Z</time>
      </trkpt>
      <trkpt lat="45.6591" lon="5.71546">
        <ele>680</ele>
        <time>2019-03-24T15:20:25.504Z</time>
      </trkpt>
      <trkpt lat="45.65909" lon="5.71548">
        <ele>680</ele>
        <time>2019-03-24T15:20:30.504Z</time>
      </trkpt>
      <trkpt lat="45.65901" lon="5.71553">
        <ele>689</ele>
        <time>2019-03-24T15:20:35.514Z</time>
      </trkpt>
      <trkpt lat="45.65893" lon="5.71555">
        <ele>689</ele>
        <time>2019-03-24T15:20:40.497Z</time>
      </trkpt>
      <trkpt lat="45.65879" lon="5.71542">
        <ele>689</ele>
        <time>2019-03-24T15:20:44.515Z</time>
      </trkpt>
      <trkpt lat="45.65856" lon="5.71534">
        <ele>689</ele>
        <time>2019-03-24T15:20:49.491Z</time>
      </trkpt>
      <trkpt lat="45.65834" lon="5.71502">
        <ele>690</ele>
        <time>2019-03-24T15:20:54.508Z</time>
      </trkpt>
      <trkpt lat="45.6581" lon="5.71474">
        <ele>693</ele>
        <time>2019-03-24T15:20:59.487Z</time>
      </trkpt>
      <trkpt lat="45.65791" lon="5.71447">
        <ele>696</ele>
        <time>2019-03-24T15:21:03.499Z</time>
      </trkpt>
      <trkpt lat="45.65768" lon="5.71426">
        <ele>692</ele>
        <time>2019-03-24T15:21:08.510Z</time>
      </trkpt>
      <trkpt lat="45.65756" lon="5.71409">
        <ele>699</ele>
        <time>2019-03-24T15:21:13.515Z</time>
      </trkpt>
      <trkpt lat="45.65746" lon="5.71396">
        <ele>695</ele>
        <time>2019-03-24T15:21:18.485Z</time>
      </trkpt>
      <trkpt lat="45.65731" lon="5.71376">
        <ele>701</ele>
        <time>2019-03-24T15:21:22.502Z</time>
      </trkpt>
      <trkpt lat="45.65718" lon="5.71362">
        <ele>697</ele>
        <time>2019-03-24T15:21:27.496Z</time>
      </trkpt>
      <trkpt lat="45.65698" lon="5.71341">
        <ele>702</ele>
        <time>2019-03-24T15:21:32.504Z</time>
      </trkpt>
      <trkpt lat="45.65669" lon="5.71309">
        <ele>705</ele>
        <time>2019-03-24T15:21:37.500Z</time>
      </trkpt>
      <trkpt lat="45.65639" lon="5.71269">
        <ele>709</ele>
        <time>2019-03-24T15:21:42.506Z</time>
      </trkpt>
      <trkpt lat="45.65615" lon="5.71248">
        <ele>714</ele>
        <time>2019-03-24T15:21:47.501Z</time>
      </trkpt>
      <trkpt lat="45.65585" lon="5.71248">
        <ele>721</ele>
        <time>2019-03-24T15:21:52.500Z</time>
      </trkpt>
      <trkpt lat="45.65568" lon="5.71256">
        <ele>727</ele>
        <time>2019-03-24T15:21:57.494Z</time>
      </trkpt>
      <trkpt lat="45.65553" lon="5.71259">
        <ele>727</ele>
        <time>2019-03-24T15:22:06.507Z</time>
      </trkpt>
      <trkpt lat="45.65547" lon="5.71259">
        <ele>727</ele>
        <time>2019-03-24T15:22:11.504Z</time>
      </trkpt>
      <trkpt lat="45.65541" lon="5.71257">
        <ele>733</ele>
        <time>2019-03-24T15:22:16.490Z</time>
      </trkpt>
      <trkpt lat="45.65536" lon="5.71256">
        <ele>733</ele>
        <time>2019-03-24T15:22:20.511Z</time>
      </trkpt>
      <trkpt lat="45.65525" lon="5.71254">
        <ele>733</ele>
        <time>2019-03-24T15:22:25.502Z</time>
      </trkpt>
      <trkpt lat="45.65511" lon="5.71255">
        <ele>741</ele>
        <time>2019-03-24T15:22:30.502Z</time>
      </trkpt>
      <trkpt lat="45.65502" lon="5.71261">
        <ele>741</ele>
        <time>2019-03-24T15:22:35.496Z</time>
      </trkpt>
      <trkpt lat="45.65495" lon="5.71269">
        <ele>746</ele>
        <time>2019-03-24T15:22:40.509Z</time>
      </trkpt>
      <trkpt lat="45.65489" lon="5.71268">
        <ele>746</ele>
        <time>2019-03-24T15:22:45.512Z</time>
      </trkpt>
      <trkpt lat="45.65482" lon="5.71265">
        <ele>751</ele>
        <time>2019-03-24T15:22:50.502Z</time>
      </trkpt>
      <trkpt lat="45.65471" lon="5.71258">
        <ele>748</ele>
        <time>2019-03-24T15:22:54.519Z</time>
      </trkpt>
      <trkpt lat="45.65464" lon="5.71251">
        <ele>748</ele>
        <time>2019-03-24T15:22:59.506Z</time>
      </trkpt>
      <trkpt lat="45.65461" lon="5.71245">
        <ele>748</ele>
        <time>2019-03-24T15:23:04.489Z</time>
      </trkpt>
      <trkpt lat="45.65454" lon="5.71242">
        <ele>753</ele>
        <time>2019-03-24T15:23:09.492Z</time>
      </trkpt>
      <trkpt lat="45.65449" lon="5.71238">
        <ele>753</ele>
        <time>2019-03-24T15:23:13.516Z</time>
      </trkpt>
      <trkpt lat="45.65445" lon="5.71235">
        <ele>750</ele>
        <time>2019-03-24T15:23:17.524Z</time>
      </trkpt>
      <trkpt lat="45.65441" lon="5.71233">
        <ele>750</ele>
        <time>2019-03-24T15:23:22.499Z</time>
      </trkpt>
      <trkpt lat="45.65434" lon="5.71236">
        <ele>750</ele>
        <time>2019-03-24T15:23:27.493Z</time>
      </trkpt>
      <trkpt lat="45.65426" lon="5.71238">
        <ele>757</ele>
        <time>2019-03-24T15:23:31.508Z</time>
      </trkpt>
      <trkpt lat="45.6542" lon="5.7124">
        <ele>757</ele>
        <time>2019-03-24T15:23:36.522Z</time>
      </trkpt>
      <trkpt lat="45.65414" lon="5.71241">
        <ele>757</ele>
        <time>2019-03-24T15:23:41.518Z</time>
      </trkpt>
      <trkpt lat="45.6541" lon="5.71242">
        <ele>757</ele>
        <time>2019-03-24T15:23:46.505Z</time>
      </trkpt>
      <trkpt lat="45.65401" lon="5.71244">
        <ele>759</ele>
        <time>2019-03-24T15:23:51.492Z</time>
      </trkpt>
      <trkpt lat="45.65396" lon="5.71244">
        <ele>759</ele>
        <time>2019-03-24T15:23:56.492Z</time>
      </trkpt>
      <trkpt lat="45.65395" lon="5.71245">
        <ele>759</ele>
        <time>2019-03-24T15:24:00.489Z</time>
      </trkpt>
      <trkpt lat="45.6539" lon="5.71247">
        <ele>759</ele>
        <time>2019-03-24T15:24:05.496Z</time>
      </trkpt>
      <trkpt lat="45.65386" lon="5.7125">
        <ele>759</ele>
        <time>2019-03-24T15:24:10.493Z</time>
      </trkpt>
      <trkpt lat="45.65384" lon="5.71251">
        <ele>759</ele>
        <time>2019-03-24T15:24:14.503Z</time>
      </trkpt>
      <trkpt lat="45.65379" lon="5.71252">
        <ele>759</ele>
        <time>2019-03-24T15:24:19.487Z</time>
      </trkpt>
      <trkpt lat="45.65377" lon="5.71252">
        <ele>759</ele>
        <time>2019-03-24T15:24:23.501Z</time>
      </trkpt>
      <trkpt lat="45.65374" lon="5.71254">
        <ele>758</ele>
        <time>2019-03-24T15:24:27.509Z</time>
      </trkpt>
      <trkpt lat="45.65364" lon="5.71254">
        <ele>758</ele>
        <time>2019-03-24T15:24:31.515Z</time>
      </trkpt>
      <trkpt lat="45.65351" lon="5.71255">
        <ele>758</ele>
        <time>2019-03-24T15:24:36.505Z</time>
      </trkpt>
      <trkpt lat="45.65347" lon="5.71252">
        <ele>756</ele>
        <time>2019-03-24T15:24:41.506Z</time>
      </trkpt>
      <trkpt lat="45.65346" lon="5.71253">
        <ele>756</ele>
        <time>2019-03-24T15:24:46.494Z</time>
      </trkpt>
      <trkpt lat="45.65343" lon="5.71252">
        <ele>756</ele>
        <time>2019-03-24T15:24:50.509Z</time>
      </trkpt>
      <trkpt lat="45.65342" lon="5.71251">
        <ele>756</ele>
        <time>2019-03-24T15:24:55.506Z</time>
      </trkpt>
      <trkpt lat="45.65339" lon="5.71251">
        <ele>756</ele>
        <time>2019-03-24T15:25:00.488Z</time>
      </trkpt>
      <trkpt lat="45.65336" lon="5.71251">
        <ele>756</ele>
        <time>2019-03-24T15:25:04.497Z</time>
      </trkpt>
      <trkpt lat="45.65317" lon="5.71251">
        <ele>752</ele>
        <time>2019-03-24T15:25:09.494Z</time>
      </trkpt>
      <trkpt lat="45.65306" lon="5.71255">
        <ele>752</ele>
        <time>2019-03-24T15:25:13.508Z</time>
      </trkpt>
      <trkpt lat="45.65296" lon="5.71262">
        <ele>752</ele>
        <time>2019-03-24T15:25:18.501Z</time>
      </trkpt>
      <trkpt lat="45.65287" lon="5.71273">
        <ele>747</ele>
        <time>2019-03-24T15:25:22.510Z</time>
      </trkpt>
      <trkpt lat="45.65282" lon="5.71277">
        <ele>747</ele>
        <time>2019-03-24T15:25:27.501Z</time>
      </trkpt>
      <trkpt lat="45.65274" lon="5.7129">
        <ele>747</ele>
        <time>2019-03-24T15:25:32.492Z</time>
      </trkpt>
      <trkpt lat="45.6527" lon="5.71293">
        <ele>746</ele>
        <time>2019-03-24T15:25:36.508Z</time>
      </trkpt>
      <trkpt lat="45.65267" lon="5.71297">
        <ele>746</ele>
        <time>2019-03-24T15:25:40.530Z</time>
      </trkpt>
      <trkpt lat="45.65261" lon="5.71301">
        <ele>739</ele>
        <time>2019-03-24T15:25:45.507Z</time>
      </trkpt>
      <trkpt lat="45.65253" lon="5.71297">
        <ele>739</ele>
        <time>2019-03-24T15:25:50.500Z</time>
      </trkpt>
      <trkpt lat="45.65247" lon="5.71297">
        <ele>739</ele>
        <time>2019-03-24T15:25:55.491Z</time>
      </trkpt>
      <trkpt lat="45.65243" lon="5.71297">
        <ele>739</ele>
        <time>2019-03-24T15:25:59.508Z</time>
      </trkpt>
      <trkpt lat="45.6524" lon="5.71293">
        <ele>739</ele>
        <time>2019-03-24T15:26:18.498Z</time>
      </trkpt>
      <trkpt lat="45.65243" lon="5.713">
        <ele>739</ele>
        <time>2019-03-24T15:26:23.483Z</time>
      </trkpt>
      <trkpt lat="45.6524" lon="5.71307">
        <ele>739</ele>
        <time>2019-03-24T15:26:27.507Z</time>
      </trkpt>
      <trkpt lat="45.65229" lon="5.7131">
        <ele>735</ele>
        <time>2019-03-24T15:26:32.495Z</time>
      </trkpt>
      <trkpt lat="45.65216" lon="5.71295">
        <ele>735</ele>
        <time>2019-03-24T15:26:36.511Z</time>
      </trkpt>
      <trkpt lat="45.65208" lon="5.7129">
        <ele>733</ele>
        <time>2019-03-24T15:26:41.498Z</time>
      </trkpt>
      <trkpt lat="45.65201" lon="5.7128">
        <ele>733</ele>
        <time>2019-03-24T15:26:46.502Z</time>
      </trkpt>
      <trkpt lat="45.65193" lon="5.71269">
        <ele>733</ele>
        <time>2019-03-24T15:26:51.495Z</time>
      </trkpt>
      <trkpt lat="45.65184" lon="5.71263">
        <ele>736</ele>
        <time>2019-03-24T15:26:56.505Z</time>
      </trkpt>
      <trkpt lat="45.65178" lon="5.71255">
        <ele>734</ele>
        <time>2019-03-24T15:27:01.489Z</time>
      </trkpt>
      <trkpt lat="45.65174" lon="5.71257">
        <ele>734</ele>
        <time>2019-03-24T15:27:06.488Z</time>
      </trkpt>
      <trkpt lat="45.65164" lon="5.71264">
        <ele>734</ele>
        <time>2019-03-24T15:27:11.492Z</time>
      </trkpt>
      <trkpt lat="45.65163" lon="5.71263">
        <ele>734</ele>
        <time>2019-03-24T15:27:16.490Z</time>
      </trkpt>
      <trkpt lat="45.65159" lon="5.71255">
        <ele>734</ele>
        <time>2019-03-24T15:27:21.499Z</time>
      </trkpt>
      <trkpt lat="45.65156" lon="5.71253">
        <ele>734</ele>
        <time>2019-03-24T15:27:26.490Z</time>
      </trkpt>
      <trkpt lat="45.65153" lon="5.71251">
        <ele>734</ele>
        <time>2019-03-24T15:27:31.491Z</time>
      </trkpt>
      <trkpt lat="45.65149" lon="5.71245">
        <ele>735</ele>
        <time>2019-03-24T15:27:35.494Z</time>
      </trkpt>
      <trkpt lat="45.65145" lon="5.71242">
        <ele>735</ele>
        <time>2019-03-24T15:27:40.504Z</time>
      </trkpt>
      <trkpt lat="45.6514" lon="5.71238">
        <ele>735</ele>
        <time>2019-03-24T15:27:45.494Z</time>
      </trkpt>
      <trkpt lat="45.65138" lon="5.71231">
        <ele>736</ele>
        <time>2019-03-24T15:27:50.517Z</time>
      </trkpt>
      <trkpt lat="45.65136" lon="5.71228">
        <ele>736</ele>
        <time>2019-03-24T15:27:55.493Z</time>
      </trkpt>
      <trkpt lat="45.65133" lon="5.71222">
        <ele>736</ele>
        <time>2019-03-24T15:27:59.504Z</time>
      </trkpt>
      <trkpt lat="45.65128" lon="5.71217">
        <ele>736</ele>
        <time>2019-03-24T15:28:04.486Z</time>
      </trkpt>
      <trkpt lat="45.65116" lon="5.71199">
        <ele>743</ele>
        <time>2019-03-24T15:28:08.494Z</time>
      </trkpt>
      <trkpt lat="45.65101" lon="5.71187">
        <ele>743</ele>
        <time>2019-03-24T15:28:13.489Z</time>
      </trkpt>
      <trkpt lat="45.65092" lon="5.71184">
        <ele>749</ele>
        <time>2019-03-24T15:28:18.498Z</time>
      </trkpt>
      <trkpt lat="45.65085" lon="5.71188">
        <ele>749</ele>
        <time>2019-03-24T15:28:23.482Z</time>
      </trkpt>
      <trkpt lat="45.65079" lon="5.71195">
        <ele>749</ele>
        <time>2019-03-24T15:28:27.499Z</time>
      </trkpt>
      <trkpt lat="45.65071" lon="5.712">
        <ele>749</ele>
        <time>2019-03-24T15:28:31.521Z</time>
      </trkpt>
      <trkpt lat="45.65067" lon="5.71199">
        <ele>755</ele>
        <time>2019-03-24T15:28:36.507Z</time>
      </trkpt>
      <trkpt lat="45.65062" lon="5.712">
        <ele>755</ele>
        <time>2019-03-24T15:28:41.494Z</time>
      </trkpt>
      <trkpt lat="45.65057" lon="5.71202">
        <ele>755</ele>
        <time>2019-03-24T15:28:45.507Z</time>
      </trkpt>
      <trkpt lat="45.65051" lon="5.71204">
        <ele>755</ele>
        <time>2019-03-24T15:28:50.513Z</time>
      </trkpt>
      <trkpt lat="45.65047" lon="5.71205">
        <ele>755</ele>
        <time>2019-03-24T15:28:55.495Z</time>
      </trkpt>
      <trkpt lat="45.65042" lon="5.71202">
        <ele>755</ele>
        <time>2019-03-24T15:29:00.483Z</time>
      </trkpt>
      <trkpt lat="45.65038" lon="5.71201">
        <ele>761</ele>
        <time>2019-03-24T15:29:04.496Z</time>
      </trkpt>
      <trkpt lat="45.65035" lon="5.71202">
        <ele>761</ele>
        <time>2019-03-24T15:29:08.507Z</time>
      </trkpt>
      <trkpt lat="45.65033" lon="5.71205">
        <ele>761</ele>
        <time>2019-03-24T15:29:13.514Z</time>
      </trkpt>
      <trkpt lat="45.65023" lon="5.71207">
        <ele>761</ele>
        <time>2019-03-24T15:29:18.510Z</time>
      </trkpt>
      <trkpt lat="45.65014" lon="5.71205">
        <ele>761</ele>
        <time>2019-03-24T15:29:23.494Z</time>
      </trkpt>
      <trkpt lat="45.6501" lon="5.71205">
        <ele>767</ele>
        <time>2019-03-24T15:29:27.504Z</time>
      </trkpt>
      <trkpt lat="45.65005" lon="5.71204">
        <ele>767</ele>
        <time>2019-03-24T15:29:31.512Z</time>
      </trkpt>
      <trkpt lat="45.64996" lon="5.71206">
        <ele>767</ele>
        <time>2019-03-24T15:29:36.498Z</time>
      </trkpt>
      <trkpt lat="45.64991" lon="5.71209">
        <ele>768</ele>
        <time>2019-03-24T15:29:40.529Z</time>
      </trkpt>
      <trkpt lat="45.64988" lon="5.71212">
        <ele>768</ele>
        <time>2019-03-24T15:29:45.482Z</time>
      </trkpt>
      <trkpt lat="45.64985" lon="5.71213">
        <ele>770</ele>
        <time>2019-03-24T15:29:49.493Z</time>
      </trkpt>
      <trkpt lat="45.64977" lon="5.71209">
        <ele>770</ele>
        <time>2019-03-24T15:29:53.510Z</time>
      </trkpt>
      <trkpt lat="45.6497" lon="5.71205">
        <ele>770</ele>
        <time>2019-03-24T15:29:58.497Z</time>
      </trkpt>
      <trkpt lat="45.64968" lon="5.71204">
        <ele>770</ele>
        <time>2019-03-24T15:30:02.517Z</time>
      </trkpt>
      <trkpt lat="45.64958" lon="5.71201">
        <ele>773</ele>
        <time>2019-03-24T15:30:07.527Z</time>
      </trkpt>
      <trkpt lat="45.64953" lon="5.71199">
        <ele>773</ele>
        <time>2019-03-24T15:30:12.506Z</time>
      </trkpt>
      <trkpt lat="45.64948" lon="5.71198">
        <ele>773</ele>
        <time>2019-03-24T15:30:16.524Z</time>
      </trkpt>
      <trkpt lat="45.64941" lon="5.71196">
        <ele>773</ele>
        <time>2019-03-24T15:30:21.519Z</time>
      </trkpt>
      <trkpt lat="45.64936" lon="5.71195">
        <ele>773</ele>
        <time>2019-03-24T15:30:26.535Z</time>
      </trkpt>
      <trkpt lat="45.64931" lon="5.71191">
        <ele>773</ele>
        <time>2019-03-24T15:30:31.507Z</time>
      </trkpt>
      <trkpt lat="45.64925" lon="5.71187">
        <ele>775</ele>
        <time>2019-03-24T15:30:36.496Z</time>
      </trkpt>
      <trkpt lat="45.64919" lon="5.71184">
        <ele>775</ele>
        <time>2019-03-24T15:30:41.498Z</time>
      </trkpt>
      <trkpt lat="45.64911" lon="5.71181">
        <ele>775</ele>
        <time>2019-03-24T15:30:46.494Z</time>
      </trkpt>
      <trkpt lat="45.64902" lon="5.7118">
        <ele>776</ele>
        <time>2019-03-24T15:30:51.511Z</time>
      </trkpt>
      <trkpt lat="45.64894" lon="5.71183">
        <ele>776</ele>
        <time>2019-03-24T15:30:56.492Z</time>
      </trkpt>
      <trkpt lat="45.6489" lon="5.71184">
        <ele>776</ele>
        <time>2019-03-24T15:31:01.480Z</time>
      </trkpt>
      <trkpt lat="45.64884" lon="5.71177">
        <ele>776</ele>
        <time>2019-03-24T15:31:05.523Z</time>
      </trkpt>
      <trkpt lat="45.64879" lon="5.71169">
        <ele>776</ele>
        <time>2019-03-24T15:31:10.488Z</time>
      </trkpt>
      <trkpt lat="45.64877" lon="5.71163">
        <ele>776</ele>
        <time>2019-03-24T15:31:14.519Z</time>
      </trkpt>
      <trkpt lat="45.64875" lon="5.71156">
        <ele>776</ele>
        <time>2019-03-24T15:31:19.498Z</time>
      </trkpt>
      <trkpt lat="45.64871" lon="5.71151">
        <ele>782</ele>
        <time>2019-03-24T15:31:23.526Z</time>
      </trkpt>
      <trkpt lat="45.64863" lon="5.71153">
        <ele>780</ele>
        <time>2019-03-24T15:31:28.512Z</time>
      </trkpt>
      <trkpt lat="45.64853" lon="5.71154">
        <ele>780</ele>
        <time>2019-03-24T15:31:33.499Z</time>
      </trkpt>
      <trkpt lat="45.64846" lon="5.71149">
        <ele>785</ele>
        <time>2019-03-24T15:31:37.528Z</time>
      </trkpt>
      <trkpt lat="45.64844" lon="5.71149">
        <ele>785</ele>
        <time>2019-03-24T15:31:42.504Z</time>
      </trkpt>
      <trkpt lat="45.64839" lon="5.71145">
        <ele>785</ele>
        <time>2019-03-24T15:31:47.500Z</time>
      </trkpt>
      <trkpt lat="45.64836" lon="5.71144">
        <ele>785</ele>
        <time>2019-03-24T15:31:52.491Z</time>
      </trkpt>
      <trkpt lat="45.64829" lon="5.71144">
        <ele>785</ele>
        <time>2019-03-24T15:31:57.525Z</time>
      </trkpt>
      <trkpt lat="45.64817" lon="5.7114">
        <ele>787</ele>
        <time>2019-03-24T15:32:02.518Z</time>
      </trkpt>
      <trkpt lat="45.64808" lon="5.71135">
        <ele>787</ele>
        <time>2019-03-24T15:32:06.525Z</time>
      </trkpt>
      <trkpt lat="45.64803" lon="5.71134">
        <ele>787</ele>
        <time>2019-03-24T15:32:11.481Z</time>
      </trkpt>
      <trkpt lat="45.648" lon="5.71131">
        <ele>787</ele>
        <time>2019-03-24T15:32:15.518Z</time>
      </trkpt>
      <trkpt lat="45.64796" lon="5.71128">
        <ele>787</ele>
        <time>2019-03-24T15:32:20.480Z</time>
      </trkpt>
      <trkpt lat="45.64794" lon="5.71123">
        <ele>787</ele>
        <time>2019-03-24T15:32:24.508Z</time>
      </trkpt>
      <trkpt lat="45.64789" lon="5.71119">
        <ele>790</ele>
        <time>2019-03-24T15:32:29.530Z</time>
      </trkpt>
      <trkpt lat="45.64783" lon="5.71115">
        <ele>790</ele>
        <time>2019-03-24T15:32:34.501Z</time>
      </trkpt>
      <trkpt lat="45.64778" lon="5.7111">
        <ele>790</ele>
        <time>2019-03-24T15:32:39.516Z</time>
      </trkpt>
      <trkpt lat="45.64775" lon="5.71104">
        <ele>790</ele>
        <time>2019-03-24T15:32:43.512Z</time>
      </trkpt>
      <trkpt lat="45.64772" lon="5.71099">
        <ele>790</ele>
        <time>2019-03-24T15:32:48.505Z</time>
      </trkpt>
      <trkpt lat="45.64767" lon="5.71093">
        <ele>792</ele>
        <time>2019-03-24T15:32:53.497Z</time>
      </trkpt>
      <trkpt lat="45.64763" lon="5.71085">
        <ele>795</ele>
        <time>2019-03-24T15:32:58.488Z</time>
      </trkpt>
      <trkpt lat="45.6476" lon="5.71079">
        <ele>795</ele>
        <time>2019-03-24T15:33:02.513Z</time>
      </trkpt>
      <trkpt lat="45.64756" lon="5.71068">
        <ele>797</ele>
        <time>2019-03-24T15:33:07.524Z</time>
      </trkpt>
      <trkpt lat="45.64755" lon="5.71062">
        <ele>797</ele>
        <time>2019-03-24T15:33:12.501Z</time>
      </trkpt>
      <trkpt lat="45.64753" lon="5.71057">
        <ele>797</ele>
        <time>2019-03-24T15:33:17.472Z</time>
      </trkpt>
      <trkpt lat="45.64751" lon="5.71056">
        <ele>797</ele>
        <time>2019-03-24T15:33:21.497Z</time>
      </trkpt>
      <trkpt lat="45.64746" lon="5.7105">
        <ele>797</ele>
        <time>2019-03-24T15:33:26.516Z</time>
      </trkpt>
      <trkpt lat="45.64736" lon="5.71049">
        <ele>801</ele>
        <time>2019-03-24T15:33:31.512Z</time>
      </trkpt>
      <trkpt lat="45.64728" lon="5.71051">
        <ele>801</ele>
        <time>2019-03-24T15:33:36.490Z</time>
      </trkpt>
      <trkpt lat="45.6472" lon="5.71051">
        <ele>801</ele>
        <time>2019-03-24T15:33:41.508Z</time>
      </trkpt>
      <trkpt lat="45.64716" lon="5.71055">
        <ele>801</ele>
        <time>2019-03-24T15:33:46.488Z</time>
      </trkpt>
      <trkpt lat="45.64712" lon="5.71055">
        <ele>801</ele>
        <time>2019-03-24T15:33:50.501Z</time>
      </trkpt>
      <trkpt lat="45.64709" lon="5.71051">
        <ele>801</ele>
        <time>2019-03-24T15:33:55.517Z</time>
      </trkpt>
      <trkpt lat="45.64701" lon="5.7104">
        <ele>809</ele>
        <time>2019-03-24T15:34:00.478Z</time>
      </trkpt>
      <trkpt lat="45.647" lon="5.71026">
        <ele>809</ele>
        <time>2019-03-24T15:34:04.499Z</time>
      </trkpt>
      <trkpt lat="45.64701" lon="5.71025">
        <ele>809</ele>
        <time>2019-03-24T15:34:08.533Z</time>
      </trkpt>
      <trkpt lat="45.64701" lon="5.71018">
        <ele>809</ele>
        <time>2019-03-24T15:34:13.475Z</time>
      </trkpt>
      <trkpt lat="45.64699" lon="5.71015">
        <ele>809</ele>
        <time>2019-03-24T15:34:17.523Z</time>
      </trkpt>
      <trkpt lat="45.64694" lon="5.71007">
        <ele>813</ele>
        <time>2019-03-24T15:34:22.488Z</time>
      </trkpt>
      <trkpt lat="45.64691" lon="5.71002">
        <ele>813</ele>
        <time>2019-03-24T15:34:27.498Z</time>
      </trkpt>
      <trkpt lat="45.64688" lon="5.70994">
        <ele>813</ele>
        <time>2019-03-24T15:34:32.498Z</time>
      </trkpt>
      <trkpt lat="45.64688" lon="5.70988">
        <ele>813</ele>
        <time>2019-03-24T15:34:36.513Z</time>
      </trkpt>
      <trkpt lat="45.64689" lon="5.70983">
        <ele>817</ele>
        <time>2019-03-24T15:34:40.524Z</time>
      </trkpt>
      <trkpt lat="45.64688" lon="5.70981">
        <ele>817</ele>
        <time>2019-03-24T15:34:45.535Z</time>
      </trkpt>
      <trkpt lat="45.64686" lon="5.70977">
        <ele>817</ele>
        <time>2019-03-24T15:35:04.514Z</time>
      </trkpt>
      <trkpt lat="45.64683" lon="5.70972">
        <ele>817</ele>
        <time>2019-03-24T15:35:09.508Z</time>
      </trkpt>
      <trkpt lat="45.64681" lon="5.70962">
        <ele>817</ele>
        <time>2019-03-24T15:35:14.496Z</time>
      </trkpt>
      <trkpt lat="45.6468" lon="5.70958">
        <ele>821</ele>
        <time>2019-03-24T15:35:18.501Z</time>
      </trkpt>
      <trkpt lat="45.64675" lon="5.7095">
        <ele>821</ele>
        <time>2019-03-24T15:35:22.513Z</time>
      </trkpt>
      <trkpt lat="45.64667" lon="5.70939">
        <ele>821</ele>
        <time>2019-03-24T15:35:27.516Z</time>
      </trkpt>
      <trkpt lat="45.64666" lon="5.70935">
        <ele>821</ele>
        <time>2019-03-24T15:35:32.515Z</time>
      </trkpt>
      <trkpt lat="45.64661" lon="5.70924">
        <ele>824</ele>
        <time>2019-03-24T15:35:37.502Z</time>
      </trkpt>
      <trkpt lat="45.64659" lon="5.70919">
        <ele>824</ele>
        <time>2019-03-24T15:35:42.491Z</time>
      </trkpt>
      <trkpt lat="45.64657" lon="5.70911">
        <ele>824</ele>
        <time>2019-03-24T15:35:46.507Z</time>
      </trkpt>
      <trkpt lat="45.64654" lon="5.70905">
        <ele>824</ele>
        <time>2019-03-24T15:35:50.521Z</time>
      </trkpt>
      <trkpt lat="45.64647" lon="5.70901">
        <ele>825</ele>
        <time>2019-03-24T15:35:55.494Z</time>
      </trkpt>
      <trkpt lat="45.64642" lon="5.70896">
        <ele>825</ele>
        <time>2019-03-24T15:35:59.520Z</time>
      </trkpt>
      <trkpt lat="45.64638" lon="5.70892">
        <ele>825</ele>
        <time>2019-03-24T15:36:04.531Z</time>
      </trkpt>
      <trkpt lat="45.64635" lon="5.70884">
        <ele>825</ele>
        <time>2019-03-24T15:36:08.516Z</time>
      </trkpt>
      <trkpt lat="45.64633" lon="5.70875">
        <ele>828</ele>
        <time>2019-03-24T15:36:13.517Z</time>
      </trkpt>
      <trkpt lat="45.64631" lon="5.70869">
        <ele>828</ele>
        <time>2019-03-24T15:36:18.519Z</time>
      </trkpt>
      <trkpt lat="45.64627" lon="5.70865">
        <ele>828</ele>
        <time>2019-03-24T15:36:23.510Z</time>
      </trkpt>
      <trkpt lat="45.6462" lon="5.7086">
        <ele>828</ele>
        <time>2019-03-24T15:36:28.522Z</time>
      </trkpt>
      <trkpt lat="45.64619" lon="5.70851">
        <ele>828</ele>
        <time>2019-03-24T15:36:33.514Z</time>
      </trkpt>
      <trkpt lat="45.64616" lon="5.70847">
        <ele>828</ele>
        <time>2019-03-24T15:36:37.511Z</time>
      </trkpt>
      <trkpt lat="45.64613" lon="5.70838">
        <ele>828</ele>
        <time>2019-03-24T15:36:42.503Z</time>
      </trkpt>
      <trkpt lat="45.64611" lon="5.70832">
        <ele>828</ele>
        <time>2019-03-24T15:36:47.486Z</time>
      </trkpt>
      <trkpt lat="45.64611" lon="5.70825">
        <ele>828</ele>
        <time>2019-03-24T15:36:51.497Z</time>
      </trkpt>
      <trkpt lat="45.6461" lon="5.7082">
        <ele>828</ele>
        <time>2019-03-24T15:36:55.524Z</time>
      </trkpt>
      <trkpt lat="45.64609" lon="5.70816">
        <ele>830</ele>
        <time>2019-03-24T15:37:00.498Z</time>
      </trkpt>
      <trkpt lat="45.64607" lon="5.70806">
        <ele>830</ele>
        <time>2019-03-24T15:37:04.512Z</time>
      </trkpt>
      <trkpt lat="45.64606" lon="5.70801">
        <ele>830</ele>
        <time>2019-03-24T15:37:08.526Z</time>
      </trkpt>
      <trkpt lat="45.64604" lon="5.70795">
        <ele>830</ele>
        <time>2019-03-24T15:37:13.524Z</time>
      </trkpt>
      <trkpt lat="45.64601" lon="5.70786">
        <ele>830</ele>
        <time>2019-03-24T15:37:18.518Z</time>
      </trkpt>
      <trkpt lat="45.64596" lon="5.7077">
        <ele>831</ele>
        <time>2019-03-24T15:37:23.521Z</time>
      </trkpt>
      <trkpt lat="45.64594" lon="5.70764">
        <ele>831</ele>
        <time>2019-03-24T15:37:28.496Z</time>
      </trkpt>
      <trkpt lat="45.64592" lon="5.70755">
        <ele>831</ele>
        <time>2019-03-24T15:37:33.507Z</time>
      </trkpt>
      <trkpt lat="45.6459" lon="5.70748">
        <ele>831</ele>
        <time>2019-03-24T15:37:37.526Z</time>
      </trkpt>
      <trkpt lat="45.64586" lon="5.70736">
        <ele>831</ele>
        <time>2019-03-24T15:37:42.514Z</time>
      </trkpt>
      <trkpt lat="45.64581" lon="5.70731">
        <ele>827</ele>
        <time>2019-03-24T15:37:47.483Z</time>
      </trkpt>
      <trkpt lat="45.64577" lon="5.70729">
        <ele>827</ele>
        <time>2019-03-24T15:37:51.498Z</time>
      </trkpt>
      <trkpt lat="45.64567" lon="5.70717">
        <ele>832</ele>
        <time>2019-03-24T15:37:55.512Z</time>
      </trkpt>
      <trkpt lat="45.64563" lon="5.70712">
        <ele>832</ele>
        <time>2019-03-24T15:38:00.521Z</time>
      </trkpt>
      <trkpt lat="45.64556" lon="5.70707">
        <ele>828</ele>
        <time>2019-03-24T15:38:05.494Z</time>
      </trkpt>
      <trkpt lat="45.64551" lon="5.70704">
        <ele>828</ele>
        <time>2019-03-24T15:38:09.502Z</time>
      </trkpt>
      <trkpt lat="45.64545" lon="5.70702">
        <ele>828</ele>
        <time>2019-03-24T15:38:13.517Z</time>
      </trkpt>
      <trkpt lat="45.64539" lon="5.70706">
        <ele>830</ele>
        <time>2019-03-24T15:38:18.505Z</time>
      </trkpt>
      <trkpt lat="45.64533" lon="5.70706">
        <ele>830</ele>
        <time>2019-03-24T15:38:22.508Z</time>
      </trkpt>
      <trkpt lat="45.64525" lon="5.70708">
        <ele>830</ele>
        <time>2019-03-24T15:38:27.506Z</time>
      </trkpt>
      <trkpt lat="45.64519" lon="5.70711">
        <ele>836</ele>
        <time>2019-03-24T15:38:32.509Z</time>
      </trkpt>
      <trkpt lat="45.64512" lon="5.70714">
        <ele>839</ele>
        <time>2019-03-24T15:38:37.508Z</time>
      </trkpt>
      <trkpt lat="45.64506" lon="5.70711">
        <ele>839</ele>
        <time>2019-03-24T15:38:42.488Z</time>
      </trkpt>
      <trkpt lat="45.64499" lon="5.70715">
        <ele>839</ele>
        <time>2019-03-24T15:38:46.514Z</time>
      </trkpt>
      <trkpt lat="45.64492" lon="5.7072">
        <ele>839</ele>
        <time>2019-03-24T15:38:51.495Z</time>
      </trkpt>
      <trkpt lat="45.64485" lon="5.70728">
        <ele>842</ele>
        <time>2019-03-24T15:38:55.538Z</time>
      </trkpt>
      <trkpt lat="45.64478" lon="5.70729">
        <ele>842</ele>
        <time>2019-03-24T15:38:59.544Z</time>
      </trkpt>
      <trkpt lat="45.64473" lon="5.70731">
        <ele>842</ele>
        <time>2019-03-24T15:39:04.490Z</time>
      </trkpt>
      <trkpt lat="45.64472" lon="5.70732">
        <ele>842</ele>
        <time>2019-03-24T15:39:08.502Z</time>
      </trkpt>
      <trkpt lat="45.64469" lon="5.70739">
        <ele>843</ele>
        <time>2019-03-24T15:39:13.489Z</time>
      </trkpt>
      <trkpt lat="45.64468" lon="5.70741">
        <ele>843</ele>
        <time>2019-03-24T15:39:17.512Z</time>
      </trkpt>
      <trkpt lat="45.64467" lon="5.70743">
        <ele>843</ele>
        <time>2019-03-24T15:39:21.528Z</time>
      </trkpt>
      <trkpt lat="45.64464" lon="5.70746">
        <ele>843</ele>
        <time>2019-03-24T15:39:26.485Z</time>
      </trkpt>
      <trkpt lat="45.64455" lon="5.70746">
        <ele>842</ele>
        <time>2019-03-24T15:39:31.496Z</time>
      </trkpt>
      <trkpt lat="45.64453" lon="5.70746">
        <ele>842</ele>
        <time>2019-03-24T15:39:35.512Z</time>
      </trkpt>
      <trkpt lat="45.64447" lon="5.70742">
        <ele>842</ele>
        <time>2019-03-24T15:39:40.500Z</time>
      </trkpt>
      <trkpt lat="45.64445" lon="5.70734">
        <ele>843</ele>
        <time>2019-03-24T15:39:44.512Z</time>
      </trkpt>
      <trkpt lat="45.64441" lon="5.70729">
        <ele>843</ele>
        <time>2019-03-24T15:39:49.505Z</time>
      </trkpt>
      <trkpt lat="45.6444" lon="5.70725">
        <ele>843</ele>
        <time>2019-03-24T15:39:53.517Z</time>
      </trkpt>
      <trkpt lat="45.64435" lon="5.70716">
        <ele>843</ele>
        <time>2019-03-24T15:39:58.512Z</time>
      </trkpt>
      <trkpt lat="45.6443" lon="5.7071">
        <ele>848</ele>
        <time>2019-03-24T15:40:03.539Z</time>
      </trkpt>
      <trkpt lat="45.64426" lon="5.70703">
        <ele>847</ele>
        <time>2019-03-24T15:40:08.506Z</time>
      </trkpt>
      <trkpt lat="45.64424" lon="5.707">
        <ele>847</ele>
        <time>2019-03-24T15:40:13.500Z</time>
      </trkpt>
      <trkpt lat="45.64419" lon="5.70696">
        <ele>847</ele>
        <time>2019-03-24T15:40:18.506Z</time>
      </trkpt>
      <trkpt lat="45.64416" lon="5.7069">
        <ele>847</ele>
        <time>2019-03-24T15:40:22.512Z</time>
      </trkpt>
      <trkpt lat="45.64412" lon="5.70685">
        <ele>847</ele>
        <time>2019-03-24T15:40:27.516Z</time>
      </trkpt>
      <trkpt lat="45.64407" lon="5.70686">
        <ele>847</ele>
        <time>2019-03-24T15:40:32.514Z</time>
      </trkpt>
      <trkpt lat="45.64402" lon="5.70686">
        <ele>852</ele>
        <time>2019-03-24T15:40:37.510Z</time>
      </trkpt>
      <trkpt lat="45.64397" lon="5.70683">
        <ele>852</ele>
        <time>2019-03-24T15:40:41.540Z</time>
      </trkpt>
      <trkpt lat="45.6439" lon="5.70681">
        <ele>852</ele>
        <time>2019-03-24T15:40:46.502Z</time>
      </trkpt>
      <trkpt lat="45.64388" lon="5.70681">
        <ele>852</ele>
        <time>2019-03-24T15:40:51.507Z</time>
      </trkpt>
      <trkpt lat="45.64383" lon="5.70682">
        <ele>852</ele>
        <time>2019-03-24T15:40:56.514Z</time>
      </trkpt>
      <trkpt lat="45.64378" lon="5.70685">
        <ele>852</ele>
        <time>2019-03-24T15:41:01.500Z</time>
      </trkpt>
      <trkpt lat="45.64374" lon="5.70681">
        <ele>854</ele>
        <time>2019-03-24T15:41:06.524Z</time>
      </trkpt>
      <trkpt lat="45.64369" lon="5.70674">
        <ele>854</ele>
        <time>2019-03-24T15:41:11.503Z</time>
      </trkpt>
      <trkpt lat="45.64366" lon="5.70668">
        <ele>854</ele>
        <time>2019-03-24T15:41:16.503Z</time>
      </trkpt>
      <trkpt lat="45.64364" lon="5.70666">
        <ele>854</ele>
        <time>2019-03-24T15:41:20.542Z</time>
      </trkpt>
      <trkpt lat="45.64362" lon="5.70656">
        <ele>854</ele>
        <time>2019-03-24T15:41:25.495Z</time>
      </trkpt>
      <trkpt lat="45.64357" lon="5.70653">
        <ele>854</ele>
        <time>2019-03-24T15:41:29.532Z</time>
      </trkpt>
      <trkpt lat="45.64345" lon="5.70649">
        <ele>855</ele>
        <time>2019-03-24T15:41:34.506Z</time>
      </trkpt>
      <trkpt lat="45.64338" lon="5.70646">
        <ele>855</ele>
        <time>2019-03-24T15:41:39.515Z</time>
      </trkpt>
      <trkpt lat="45.64331" lon="5.70644">
        <ele>855</ele>
        <time>2019-03-24T15:41:44.499Z</time>
      </trkpt>
      <trkpt lat="45.64327" lon="5.70643">
        <ele>855</ele>
        <time>2019-03-24T15:41:48.519Z</time>
      </trkpt>
      <trkpt lat="45.64322" lon="5.7064">
        <ele>855</ele>
        <time>2019-03-24T15:41:53.517Z</time>
      </trkpt>
      <trkpt lat="45.64322" lon="5.70639">
        <ele>855</ele>
        <time>2019-03-24T15:41:57.525Z</time>
      </trkpt>
      <trkpt lat="45.64317" lon="5.7064">
        <ele>857</ele>
        <time>2019-03-24T15:42:02.499Z</time>
      </trkpt>
      <trkpt lat="45.64314" lon="5.70637">
        <ele>857</ele>
        <time>2019-03-24T15:42:06.512Z</time>
      </trkpt>
      <trkpt lat="45.64307" lon="5.70634">
        <ele>857</ele>
        <time>2019-03-24T15:42:11.536Z</time>
      </trkpt>
      <trkpt lat="45.64301" lon="5.70632">
        <ele>857</ele>
        <time>2019-03-24T15:42:16.502Z</time>
      </trkpt>
      <trkpt lat="45.64299" lon="5.70629">
        <ele>857</ele>
        <time>2019-03-24T15:42:20.524Z</time>
      </trkpt>
      <trkpt lat="45.64297" lon="5.70625">
        <ele>857</ele>
        <time>2019-03-24T15:42:25.518Z</time>
      </trkpt>
      <trkpt lat="45.64295" lon="5.70622">
        <ele>854</ele>
        <time>2019-03-24T15:42:30.509Z</time>
      </trkpt>
      <trkpt lat="45.64294" lon="5.70618">
        <ele>854</ele>
        <time>2019-03-24T15:42:35.501Z</time>
      </trkpt>
      <trkpt lat="45.64294" lon="5.70616">
        <ele>854</ele>
        <time>2019-03-24T15:42:45.496Z</time>
      </trkpt>
      <trkpt lat="45.64294" lon="5.70613">
        <ele>854</ele>
        <time>2019-03-24T15:42:49.507Z</time>
      </trkpt>
      <trkpt lat="45.64295" lon="5.7061">
        <ele>854</ele>
        <time>2019-03-24T15:42:54.512Z</time>
      </trkpt>
      <trkpt lat="45.64295" lon="5.70607">
        <ele>854</ele>
        <time>2019-03-24T15:42:59.499Z</time>
      </trkpt>
      <trkpt lat="45.64296" lon="5.70599">
        <ele>854</ele>
        <time>2019-03-24T15:43:03.519Z</time>
      </trkpt>
      <trkpt lat="45.64296" lon="5.70595">
        <ele>849</ele>
        <time>2019-03-24T15:43:08.504Z</time>
      </trkpt>
      <trkpt lat="45.64292" lon="5.70587">
        <ele>849</ele>
        <time>2019-03-24T15:43:13.510Z</time>
      </trkpt>
      <trkpt lat="45.6429" lon="5.70581">
        <ele>846</ele>
        <time>2019-03-24T15:43:18.518Z</time>
      </trkpt>
      <trkpt lat="45.64288" lon="5.70577">
        <ele>846</ele>
        <time>2019-03-24T15:43:23.517Z</time>
      </trkpt>
      <trkpt lat="45.64284" lon="5.70572">
        <ele>846</ele>
        <time>2019-03-24T15:43:28.505Z</time>
      </trkpt>
      <trkpt lat="45.64281" lon="5.70568">
        <ele>843</ele>
        <time>2019-03-24T15:43:33.489Z</time>
      </trkpt>
      <trkpt lat="45.64279" lon="5.70563">
        <ele>843</ele>
        <time>2019-03-24T15:43:37.524Z</time>
      </trkpt>
      <trkpt lat="45.64277" lon="5.70557">
        <ele>843</ele>
        <time>2019-03-24T15:43:42.526Z</time>
      </trkpt>
      <trkpt lat="45.64273" lon="5.7055">
        <ele>843</ele>
        <time>2019-03-24T15:43:47.507Z</time>
      </trkpt>
      <trkpt lat="45.64272" lon="5.70546">
        <ele>843</ele>
        <time>2019-03-24T15:43:52.523Z</time>
      </trkpt>
      <trkpt lat="45.64268" lon="5.70545">
        <ele>843</ele>
        <time>2019-03-24T15:43:57.543Z</time>
      </trkpt>
      <trkpt lat="45.64267" lon="5.70549">
        <ele>843</ele>
        <time>2019-03-24T15:44:02.498Z</time>
      </trkpt>
      <trkpt lat="45.64263" lon="5.7055">
        <ele>841</ele>
        <time>2019-03-24T15:44:07.505Z</time>
      </trkpt>
      <trkpt lat="45.64259" lon="5.70549">
        <ele>841</ele>
        <time>2019-03-24T15:44:12.485Z</time>
      </trkpt>
      <trkpt lat="45.64255" lon="5.70546">
        <ele>841</ele>
        <time>2019-03-24T15:44:16.501Z</time>
      </trkpt>
      <trkpt lat="45.64252" lon="5.70562">
        <ele>841</ele>
        <time>2019-03-24T15:44:20.509Z</time>
      </trkpt>
      <trkpt lat="45.6425" lon="5.70584">
        <ele>843</ele>
        <time>2019-03-24T15:44:25.524Z</time>
      </trkpt>
      <trkpt lat="45.64239" lon="5.70583">
        <ele>843</ele>
        <time>2019-03-24T15:44:30.491Z</time>
      </trkpt>
      <trkpt lat="45.64213" lon="5.70609">
        <ele>844</ele>
        <time>2019-03-24T15:44:35.514Z</time>
      </trkpt>
      <trkpt lat="45.64193" lon="5.70632">
        <ele>846</ele>
        <time>2019-03-24T15:44:40.511Z</time>
      </trkpt>
      <trkpt lat="45.64165" lon="5.70648">
        <ele>846</ele>
        <time>2019-03-24T15:44:44.536Z</time>
      </trkpt>
      <trkpt lat="45.6416" lon="5.70655">
        <ele>847</ele>
        <time>2019-03-24T15:44:49.519Z</time>
      </trkpt>
      <trkpt lat="45.64157" lon="5.70666">
        <ele>847</ele>
        <time>2019-03-24T15:44:53.535Z</time>
      </trkpt>
      <trkpt lat="45.64156" lon="5.70671">
        <ele>847</ele>
        <time>2019-03-24T15:44:58.514Z</time>
      </trkpt>
      <trkpt lat="45.64155" lon="5.70676">
        <ele>847</ele>
        <time>2019-03-24T15:45:03.517Z</time>
      </trkpt>
      <trkpt lat="45.64147" lon="5.70685">
        <ele>846</ele>
        <time>2019-03-24T15:45:08.505Z</time>
      </trkpt>
      <trkpt lat="45.6414" lon="5.70689">
        <ele>846</ele>
        <time>2019-03-24T15:45:13.515Z</time>
      </trkpt>
      <trkpt lat="45.64131" lon="5.70696">
        <ele>846</ele>
        <time>2019-03-24T15:45:17.526Z</time>
      </trkpt>
      <trkpt lat="45.64127" lon="5.70704">
        <ele>846</ele>
        <time>2019-03-24T15:45:22.499Z</time>
      </trkpt>
      <trkpt lat="45.64124" lon="5.70709">
        <ele>845</ele>
        <time>2019-03-24T15:45:26.528Z</time>
      </trkpt>
      <trkpt lat="45.64115" lon="5.70713">
        <ele>845</ele>
        <time>2019-03-24T15:45:31.499Z</time>
      </trkpt>
      <trkpt lat="45.64109" lon="5.70718">
        <ele>845</ele>
        <time>2019-03-24T15:45:35.528Z</time>
      </trkpt>
      <trkpt lat="45.641" lon="5.70723">
        <ele>845</ele>
        <time>2019-03-24T15:45:40.496Z</time>
      </trkpt>
      <trkpt lat="45.64095" lon="5.70728">
        <ele>847</ele>
        <time>2019-03-24T15:45:44.512Z</time>
      </trkpt>
      <trkpt lat="45.64089" lon="5.70732">
        <ele>847</ele>
        <time>2019-03-24T15:45:49.527Z</time>
      </trkpt>
      <trkpt lat="45.64084" lon="5.70739">
        <ele>843</ele>
        <time>2019-03-24T15:45:54.494Z</time>
      </trkpt>
      <trkpt lat="45.64081" lon="5.70743">
        <ele>843</ele>
        <time>2019-03-24T15:45:59.528Z</time>
      </trkpt>
      <trkpt lat="45.64076" lon="5.70744">
        <ele>843</ele>
        <time>2019-03-24T15:46:04.542Z</time>
      </trkpt>
      <trkpt lat="45.6407" lon="5.70751">
        <ele>843</ele>
        <time>2019-03-24T15:46:09.521Z</time>
      </trkpt>
      <trkpt lat="45.64059" lon="5.70758">
        <ele>844</ele>
        <time>2019-03-24T15:46:14.498Z</time>
      </trkpt>
      <trkpt lat="45.64054" lon="5.70761">
        <ele>844</ele>
        <time>2019-03-24T15:46:18.513Z</time>
      </trkpt>
      <trkpt lat="45.64051" lon="5.70762">
        <ele>844</ele>
        <time>2019-03-24T15:46:22.520Z</time>
      </trkpt>
      <trkpt lat="45.64044" lon="5.70763">
        <ele>844</ele>
        <time>2019-03-24T15:46:27.505Z</time>
      </trkpt>
      <trkpt lat="45.64038" lon="5.70763">
        <ele>848</ele>
        <time>2019-03-24T15:46:31.519Z</time>
      </trkpt>
      <trkpt lat="45.64034" lon="5.70763">
        <ele>848</ele>
        <time>2019-03-24T15:46:36.508Z</time>
      </trkpt>
      <trkpt lat="45.6403" lon="5.70764">
        <ele>843</ele>
        <time>2019-03-24T15:46:40.532Z</time>
      </trkpt>
      <trkpt lat="45.64015" lon="5.70771">
        <ele>843</ele>
        <time>2019-03-24T15:46:45.496Z</time>
      </trkpt>
      <trkpt lat="45.64008" lon="5.70772">
        <ele>845</ele>
        <time>2019-03-24T15:46:49.522Z</time>
      </trkpt>
      <trkpt lat="45.64002" lon="5.70774">
        <ele>845</ele>
        <time>2019-03-24T15:46:54.487Z</time>
      </trkpt>
      <trkpt lat="45.63997" lon="5.70773">
        <ele>845</ele>
        <time>2019-03-24T15:46:58.498Z</time>
      </trkpt>
      <trkpt lat="45.6399" lon="5.70775">
        <ele>845</ele>
        <time>2019-03-24T15:47:03.515Z</time>
      </trkpt>
      <trkpt lat="45.63985" lon="5.70777">
        <ele>846</ele>
        <time>2019-03-24T15:47:08.536Z</time>
      </trkpt>
      <trkpt lat="45.63978" lon="5.70781">
        <ele>846</ele>
        <time>2019-03-24T15:47:13.523Z</time>
      </trkpt>
      <trkpt lat="45.63972" lon="5.70788">
        <ele>846</ele>
        <time>2019-03-24T15:47:18.529Z</time>
      </trkpt>
      <trkpt lat="45.63969" lon="5.70792">
        <ele>842</ele>
        <time>2019-03-24T15:47:23.497Z</time>
      </trkpt>
      <trkpt lat="45.63966" lon="5.70795">
        <ele>842</ele>
        <time>2019-03-24T15:47:27.526Z</time>
      </trkpt>
      <trkpt lat="45.63961" lon="5.70798">
        <ele>842</ele>
        <time>2019-03-24T15:47:32.492Z</time>
      </trkpt>
      <trkpt lat="45.63957" lon="5.70801">
        <ele>845</ele>
        <time>2019-03-24T15:47:36.529Z</time>
      </trkpt>
      <trkpt lat="45.63951" lon="5.70806">
        <ele>845</ele>
        <time>2019-03-24T15:47:41.514Z</time>
      </trkpt>
      <trkpt lat="45.63947" lon="5.70808">
        <ele>845</ele>
        <time>2019-03-24T15:47:45.519Z</time>
      </trkpt>
      <trkpt lat="45.6394" lon="5.70812">
        <ele>845</ele>
        <time>2019-03-24T15:47:50.520Z</time>
      </trkpt>
      <trkpt lat="45.63934" lon="5.70814">
        <ele>845</ele>
        <time>2019-03-24T15:47:54.537Z</time>
      </trkpt>
      <trkpt lat="45.63928" lon="5.70818">
        <ele>849</ele>
        <time>2019-03-24T15:47:59.513Z</time>
      </trkpt>
      <trkpt lat="45.63923" lon="5.70822">
        <ele>843</ele>
        <time>2019-03-24T15:48:03.534Z</time>
      </trkpt>
      <trkpt lat="45.63916" lon="5.70826">
        <ele>843</ele>
        <time>2019-03-24T15:48:08.518Z</time>
      </trkpt>
      <trkpt lat="45.63911" lon="5.70828">
        <ele>843</ele>
        <time>2019-03-24T15:48:13.520Z</time>
      </trkpt>
      <trkpt lat="45.63904" lon="5.70835">
        <ele>843</ele>
        <time>2019-03-24T15:48:18.521Z</time>
      </trkpt>
      <trkpt lat="45.63898" lon="5.7084">
        <ele>847</ele>
        <time>2019-03-24T15:48:23.489Z</time>
      </trkpt>
      <trkpt lat="45.63892" lon="5.70845">
        <ele>847</ele>
        <time>2019-03-24T15:48:27.512Z</time>
      </trkpt>
      <trkpt lat="45.63887" lon="5.70849">
        <ele>841</ele>
        <time>2019-03-24T15:48:32.503Z</time>
      </trkpt>
      <trkpt lat="45.63883" lon="5.70853">
        <ele>841</ele>
        <time>2019-03-24T15:48:36.541Z</time>
      </trkpt>
      <trkpt lat="45.63877" lon="5.70858">
        <ele>841</ele>
        <time>2019-03-24T15:48:41.529Z</time>
      </trkpt>
      <trkpt lat="45.63871" lon="5.70861">
        <ele>846</ele>
        <time>2019-03-24T15:48:46.517Z</time>
      </trkpt>
      <trkpt lat="45.63862" lon="5.70866">
        <ele>846</ele>
        <time>2019-03-24T15:48:51.497Z</time>
      </trkpt>
      <trkpt lat="45.63858" lon="5.7087">
        <ele>846</ele>
        <time>2019-03-24T15:48:55.507Z</time>
      </trkpt>
      <trkpt lat="45.63853" lon="5.70871">
        <ele>846</ele>
        <time>2019-03-24T15:48:59.526Z</time>
      </trkpt>
      <trkpt lat="45.63846" lon="5.70873">
        <ele>849</ele>
        <time>2019-03-24T15:49:04.504Z</time>
      </trkpt>
      <trkpt lat="45.6384" lon="5.70874">
        <ele>849</ele>
        <time>2019-03-24T15:49:08.511Z</time>
      </trkpt>
      <trkpt lat="45.63833" lon="5.70877">
        <ele>844</ele>
        <time>2019-03-24T15:49:12.536Z</time>
      </trkpt>
      <trkpt lat="45.63827" lon="5.70881">
        <ele>844</ele>
        <time>2019-03-24T15:49:17.540Z</time>
      </trkpt>
      <trkpt lat="45.63821" lon="5.70883">
        <ele>844</ele>
        <time>2019-03-24T15:49:22.501Z</time>
      </trkpt>
      <trkpt lat="45.63815" lon="5.70885">
        <ele>846</ele>
        <time>2019-03-24T15:49:26.509Z</time>
      </trkpt>
      <trkpt lat="45.63811" lon="5.70884">
        <ele>846</ele>
        <time>2019-03-24T15:49:30.504Z</time>
      </trkpt>
      <trkpt lat="45.63802" lon="5.70888">
        <ele>846</ele>
        <time>2019-03-24T15:49:35.500Z</time>
      </trkpt>
      <trkpt lat="45.63797" lon="5.70889">
        <ele>846</ele>
        <time>2019-03-24T15:49:39.534Z</time>
      </trkpt>
      <trkpt lat="45.63788" lon="5.70887">
        <ele>846</ele>
        <time>2019-03-24T15:49:44.517Z</time>
      </trkpt>
      <trkpt lat="45.6378" lon="5.70889">
        <ele>846</ele>
        <time>2019-03-24T15:49:48.532Z</time>
      </trkpt>
      <trkpt lat="45.63774" lon="5.70892">
        <ele>846</ele>
        <time>2019-03-24T15:49:53.515Z</time>
      </trkpt>
      <trkpt lat="45.63769" lon="5.70895">
        <ele>846</ele>
        <time>2019-03-24T15:49:57.521Z</time>
      </trkpt>
      <trkpt lat="45.63762" lon="5.70899">
        <ele>847</ele>
        <time>2019-03-24T15:50:02.515Z</time>
      </trkpt>
      <trkpt lat="45.63757" lon="5.70903">
        <ele>845</ele>
        <time>2019-03-24T15:50:07.521Z</time>
      </trkpt>
      <trkpt lat="45.63754" lon="5.70907">
        <ele>845</ele>
        <time>2019-03-24T15:50:12.502Z</time>
      </trkpt>
      <trkpt lat="45.63748" lon="5.70916">
        <ele>845</ele>
        <time>2019-03-24T15:50:16.555Z</time>
      </trkpt>
      <trkpt lat="45.63742" lon="5.70924">
        <ele>845</ele>
        <time>2019-03-24T15:50:21.510Z</time>
      </trkpt>
      <trkpt lat="45.63739" lon="5.70931">
        <ele>843</ele>
        <time>2019-03-24T15:50:26.491Z</time>
      </trkpt>
      <trkpt lat="45.63735" lon="5.70938">
        <ele>846</ele>
        <time>2019-03-24T15:50:30.493Z</time>
      </trkpt>
      <trkpt lat="45.63731" lon="5.70944">
        <ele>846</ele>
        <time>2019-03-24T15:50:35.508Z</time>
      </trkpt>
      <trkpt lat="45.63726" lon="5.70947">
        <ele>846</ele>
        <time>2019-03-24T15:50:39.515Z</time>
      </trkpt>
      <trkpt lat="45.63721" lon="5.70948">
        <ele>846</ele>
        <time>2019-03-24T15:50:43.530Z</time>
      </trkpt>
      <trkpt lat="45.63713" lon="5.70944">
        <ele>846</ele>
        <time>2019-03-24T15:50:48.502Z</time>
      </trkpt>
      <trkpt lat="45.63707" lon="5.70938">
        <ele>846</ele>
        <time>2019-03-24T15:50:53.500Z</time>
      </trkpt>
      <trkpt lat="45.63702" lon="5.70937">
        <ele>846</ele>
        <time>2019-03-24T15:50:58.529Z</time>
      </trkpt>
      <trkpt lat="45.63689" lon="5.70943">
        <ele>846</ele>
        <time>2019-03-24T15:51:03.505Z</time>
      </trkpt>
      <trkpt lat="45.6368" lon="5.70941">
        <ele>844</ele>
        <time>2019-03-24T15:51:07.526Z</time>
      </trkpt>
      <trkpt lat="45.63672" lon="5.7094">
        <ele>844</ele>
        <time>2019-03-24T15:51:12.495Z</time>
      </trkpt>
      <trkpt lat="45.63668" lon="5.70937">
        <ele>844</ele>
        <time>2019-03-24T15:51:17.500Z</time>
      </trkpt>
      <trkpt lat="45.63664" lon="5.70934">
        <ele>844</ele>
        <time>2019-03-24T15:51:21.515Z</time>
      </trkpt>
      <trkpt lat="45.63663" lon="5.70932">
        <ele>844</ele>
        <time>2019-03-24T15:51:25.534Z</time>
      </trkpt>
      <trkpt lat="45.63651" lon="5.70933">
        <ele>840</ele>
        <time>2019-03-24T15:51:30.486Z</time>
      </trkpt>
      <trkpt lat="45.63646" lon="5.70932">
        <ele>840</ele>
        <time>2019-03-24T15:51:34.498Z</time>
      </trkpt>
      <trkpt lat="45.63637" lon="5.70933">
        <ele>840</ele>
        <time>2019-03-24T15:51:39.500Z</time>
      </trkpt>
      <trkpt lat="45.63632" lon="5.70933">
        <ele>840</ele>
        <time>2019-03-24T15:51:43.514Z</time>
      </trkpt>
      <trkpt lat="45.63624" lon="5.70932">
        <ele>835</ele>
        <time>2019-03-24T15:51:48.514Z</time>
      </trkpt>
      <trkpt lat="45.63617" lon="5.7093">
        <ele>840</ele>
        <time>2019-03-24T15:51:53.524Z</time>
      </trkpt>
      <trkpt lat="45.63614" lon="5.70929">
        <ele>840</ele>
        <time>2019-03-24T15:51:58.515Z</time>
      </trkpt>
      <trkpt lat="45.63605" lon="5.70929">
        <ele>840</ele>
        <time>2019-03-24T15:52:03.500Z</time>
      </trkpt>
      <trkpt lat="45.63598" lon="5.7093">
        <ele>840</ele>
        <time>2019-03-24T15:52:07.509Z</time>
      </trkpt>
      <trkpt lat="45.63592" lon="5.70926">
        <ele>839</ele>
        <time>2019-03-24T15:52:12.508Z</time>
      </trkpt>
      <trkpt lat="45.63584" lon="5.70921">
        <ele>839</ele>
        <time>2019-03-24T15:52:17.511Z</time>
      </trkpt>
      <trkpt lat="45.6358" lon="5.7092">
        <ele>839</ele>
        <time>2019-03-24T15:52:22.496Z</time>
      </trkpt>
      <trkpt lat="45.63575" lon="5.70925">
        <ele>839</ele>
        <time>2019-03-24T15:52:26.501Z</time>
      </trkpt>
      <trkpt lat="45.63568" lon="5.70931">
        <ele>837</ele>
        <time>2019-03-24T15:52:31.501Z</time>
      </trkpt>
      <trkpt lat="45.6356" lon="5.70933">
        <ele>837</ele>
        <time>2019-03-24T15:52:36.514Z</time>
      </trkpt>
      <trkpt lat="45.63552" lon="5.70933">
        <ele>837</ele>
        <time>2019-03-24T15:52:41.505Z</time>
      </trkpt>
      <trkpt lat="45.63543" lon="5.70934">
        <ele>837</ele>
        <time>2019-03-24T15:52:46.493Z</time>
      </trkpt>
      <trkpt lat="45.63533" lon="5.70935">
        <ele>838</ele>
        <time>2019-03-24T15:52:51.524Z</time>
      </trkpt>
      <trkpt lat="45.63526" lon="5.70934">
        <ele>838</ele>
        <time>2019-03-24T15:52:56.509Z</time>
      </trkpt>
      <trkpt lat="45.63524" lon="5.70932">
        <ele>838</ele>
        <time>2019-03-24T15:53:01.501Z</time>
      </trkpt>
      <trkpt lat="45.63516" lon="5.70932">
        <ele>838</ele>
        <time>2019-03-24T15:53:06.507Z</time>
      </trkpt>
      <trkpt lat="45.63511" lon="5.70929">
        <ele>841</ele>
        <time>2019-03-24T15:53:11.504Z</time>
      </trkpt>
      <trkpt lat="45.63504" lon="5.70934">
        <ele>836</ele>
        <time>2019-03-24T15:53:16.531Z</time>
      </trkpt>
      <trkpt lat="45.63498" lon="5.70934">
        <ele>836</ele>
        <time>2019-03-24T15:53:21.499Z</time>
      </trkpt>
      <trkpt lat="45.63494" lon="5.70937">
        <ele>836</ele>
        <time>2019-03-24T15:53:25.524Z</time>
      </trkpt>
      <trkpt lat="45.63488" lon="5.70943">
        <ele>836</ele>
        <time>2019-03-24T15:53:30.529Z</time>
      </trkpt>
      <trkpt lat="45.63484" lon="5.70947">
        <ele>837</ele>
        <time>2019-03-24T15:53:35.501Z</time>
      </trkpt>
      <trkpt lat="45.63482" lon="5.70952">
        <ele>837</ele>
        <time>2019-03-24T15:53:40.510Z</time>
      </trkpt>
      <trkpt lat="45.63476" lon="5.70955">
        <ele>837</ele>
        <time>2019-03-24T15:53:45.505Z</time>
      </trkpt>
      <trkpt lat="45.63467" lon="5.70955">
        <ele>837</ele>
        <time>2019-03-24T15:53:50.500Z</time>
      </trkpt>
      <trkpt lat="45.63461" lon="5.70957">
        <ele>837</ele>
        <time>2019-03-24T15:53:55.516Z</time>
      </trkpt>
      <trkpt lat="45.63455" lon="5.70952">
        <ele>837</ele>
        <time>2019-03-24T15:54:00.526Z</time>
      </trkpt>
      <trkpt lat="45.6345" lon="5.7095">
        <ele>837</ele>
        <time>2019-03-24T15:54:05.480Z</time>
      </trkpt>
      <trkpt lat="45.63444" lon="5.70948">
        <ele>837</ele>
        <time>2019-03-24T15:54:09.523Z</time>
      </trkpt>
      <trkpt lat="45.63437" lon="5.70947">
        <ele>837</ele>
        <time>2019-03-24T15:54:14.502Z</time>
      </trkpt>
      <trkpt lat="45.6343" lon="5.70945">
        <ele>835</ele>
        <time>2019-03-24T15:54:19.484Z</time>
      </trkpt>
      <trkpt lat="45.63427" lon="5.70945">
        <ele>835</ele>
        <time>2019-03-24T15:54:23.498Z</time>
      </trkpt>
      <trkpt lat="45.63423" lon="5.70946">
        <ele>835</ele>
        <time>2019-03-24T15:54:27.504Z</time>
      </trkpt>
      <trkpt lat="45.63408" lon="5.70942">
        <ele>835</ele>
        <time>2019-03-24T15:54:32.491Z</time>
      </trkpt>
      <trkpt lat="45.63405" lon="5.70943">
        <ele>835</ele>
        <time>2019-03-24T15:54:36.538Z</time>
      </trkpt>
      <trkpt lat="45.63399" lon="5.70941">
        <ele>831</ele>
        <time>2019-03-24T15:54:41.481Z</time>
      </trkpt>
      <trkpt lat="45.63395" lon="5.70941">
        <ele>831</ele>
        <time>2019-03-24T15:54:45.502Z</time>
      </trkpt>
      <trkpt lat="45.63388" lon="5.70947">
        <ele>831</ele>
        <time>2019-03-24T15:54:49.527Z</time>
      </trkpt>
      <trkpt lat="45.63379" lon="5.70949">
        <ele>831</ele>
        <time>2019-03-24T15:54:54.503Z</time>
      </trkpt>
      <trkpt lat="45.63374" lon="5.70958">
        <ele>829</ele>
        <time>2019-03-24T15:54:58.508Z</time>
      </trkpt>
      <trkpt lat="45.63369" lon="5.70967">
        <ele>829</ele>
        <time>2019-03-24T15:55:03.510Z</time>
      </trkpt>
      <trkpt lat="45.63365" lon="5.70978">
        <ele>829</ele>
        <time>2019-03-24T15:55:08.496Z</time>
      </trkpt>
      <trkpt lat="45.63363" lon="5.70987">
        <ele>827</ele>
        <time>2019-03-24T15:55:12.507Z</time>
      </trkpt>
      <trkpt lat="45.63362" lon="5.70994">
        <ele>827</ele>
        <time>2019-03-24T15:55:16.513Z</time>
      </trkpt>
      <trkpt lat="45.63359" lon="5.71004">
        <ele>827</ele>
        <time>2019-03-24T15:55:21.498Z</time>
      </trkpt>
      <trkpt lat="45.63356" lon="5.71009">
        <ele>827</ele>
        <time>2019-03-24T15:55:25.528Z</time>
      </trkpt>
      <trkpt lat="45.63352" lon="5.71017">
        <ele>824</ele>
        <time>2019-03-24T15:55:30.526Z</time>
      </trkpt>
      <trkpt lat="45.63347" lon="5.71021">
        <ele>824</ele>
        <time>2019-03-24T15:55:35.510Z</time>
      </trkpt>
      <trkpt lat="45.6334" lon="5.71028">
        <ele>828</ele>
        <time>2019-03-24T15:55:40.490Z</time>
      </trkpt>
      <trkpt lat="45.63337" lon="5.71032">
        <ele>828</ele>
        <time>2019-03-24T15:55:44.514Z</time>
      </trkpt>
      <trkpt lat="45.63332" lon="5.71037">
        <ele>828</ele>
        <time>2019-03-24T15:55:49.499Z</time>
      </trkpt>
      <trkpt lat="45.63326" lon="5.7104">
        <ele>828</ele>
        <time>2019-03-24T15:55:54.488Z</time>
      </trkpt>
      <trkpt lat="45.63316" lon="5.71038">
        <ele>833</ele>
        <time>2019-03-24T15:55:58.543Z</time>
      </trkpt>
      <trkpt lat="45.63307" lon="5.71037">
        <ele>833</ele>
        <time>2019-03-24T15:56:03.546Z</time>
      </trkpt>
      <trkpt lat="45.633" lon="5.71035">
        <ele>833</ele>
        <time>2019-03-24T15:56:08.527Z</time>
      </trkpt>
      <trkpt lat="45.63288" lon="5.71035">
        <ele>834</ele>
        <time>2019-03-24T15:56:13.530Z</time>
      </trkpt>
      <trkpt lat="45.63267" lon="5.71034">
        <ele>834</ele>
        <time>2019-03-24T15:56:18.531Z</time>
      </trkpt>
      <trkpt lat="45.63256" lon="5.71035">
        <ele>831</ele>
        <time>2019-03-24T15:56:23.513Z</time>
      </trkpt>
      <trkpt lat="45.63245" lon="5.71033">
        <ele>831</ele>
        <time>2019-03-24T15:56:28.500Z</time>
      </trkpt>
      <trkpt lat="45.63239" lon="5.7103">
        <ele>831</ele>
        <time>2019-03-24T15:56:33.493Z</time>
      </trkpt>
      <trkpt lat="45.63234" lon="5.7103">
        <ele>832</ele>
        <time>2019-03-24T15:56:37.524Z</time>
      </trkpt>
      <trkpt lat="45.63228" lon="5.71025">
        <ele>832</ele>
        <time>2019-03-24T15:56:42.497Z</time>
      </trkpt>
      <trkpt lat="45.63209" lon="5.7102">
        <ele>832</ele>
        <time>2019-03-24T15:56:47.510Z</time>
      </trkpt>
      <trkpt lat="45.6319" lon="5.71007">
        <ele>838</ele>
        <time>2019-03-24T15:56:51.512Z</time>
      </trkpt>
      <trkpt lat="45.63178" lon="5.71007">
        <ele>844</ele>
        <time>2019-03-24T15:56:55.498Z</time>
      </trkpt>
      <trkpt lat="45.63165" lon="5.71009">
        <ele>844</ele>
        <time>2019-03-24T15:57:00.498Z</time>
      </trkpt>
      <trkpt lat="45.63155" lon="5.71023">
        <ele>842</ele>
        <time>2019-03-24T15:57:05.490Z</time>
      </trkpt>
      <trkpt lat="45.63141" lon="5.71052">
        <ele>843</ele>
        <time>2019-03-24T15:57:09.507Z</time>
      </trkpt>
      <trkpt lat="45.63128" lon="5.7108">
        <ele>841</ele>
        <time>2019-03-24T15:57:13.523Z</time>
      </trkpt>
      <trkpt lat="45.63128" lon="5.71101">
        <ele>836</ele>
        <time>2019-03-24T15:57:18.498Z</time>
      </trkpt>
      <trkpt lat="45.63124" lon="5.71109">
        <ele>841</ele>
        <time>2019-03-24T15:57:22.518Z</time>
      </trkpt>
      <trkpt lat="45.6312" lon="5.71118">
        <ele>841</ele>
        <time>2019-03-24T15:57:27.503Z</time>
      </trkpt>
      <trkpt lat="45.63117" lon="5.71128">
        <ele>835</ele>
        <time>2019-03-24T15:57:31.510Z</time>
      </trkpt>
      <trkpt lat="45.63114" lon="5.71136">
        <ele>835</ele>
        <time>2019-03-24T15:57:35.509Z</time>
      </trkpt>
      <trkpt lat="45.63109" lon="5.71143">
        <ele>835</ele>
        <time>2019-03-24T15:57:40.510Z</time>
      </trkpt>
      <trkpt lat="45.631" lon="5.71144">
        <ele>835</ele>
        <time>2019-03-24T15:57:45.519Z</time>
      </trkpt>
      <trkpt lat="45.63085" lon="5.71146">
        <ele>843</ele>
        <time>2019-03-24T15:57:50.508Z</time>
      </trkpt>
      <trkpt lat="45.63077" lon="5.71146">
        <ele>843</ele>
        <time>2019-03-24T15:57:55.499Z</time>
      </trkpt>
      <trkpt lat="45.63073" lon="5.71148">
        <ele>843</ele>
        <time>2019-03-24T15:58:00.497Z</time>
      </trkpt>
      <trkpt lat="45.63049" lon="5.71186">
        <ele>841</ele>
        <time>2019-03-24T15:58:04.511Z</time>
      </trkpt>
      <trkpt lat="45.63015" lon="5.71227">
        <ele>843</ele>
        <time>2019-03-24T15:58:09.513Z</time>
      </trkpt>
      <trkpt lat="45.63005" lon="5.71224">
        <ele>847</ele>
        <time>2019-03-24T15:58:13.525Z</time>
      </trkpt>
      <trkpt lat="45.62984" lon="5.71207">
        <ele>849</ele>
        <time>2019-03-24T15:58:18.495Z</time>
      </trkpt>
      <trkpt lat="45.62966" lon="5.71206">
        <ele>849</ele>
        <time>2019-03-24T15:58:23.502Z</time>
      </trkpt>
      <trkpt lat="45.62945" lon="5.71199">
        <ele>850</ele>
        <time>2019-03-24T15:58:27.544Z</time>
      </trkpt>
      <trkpt lat="45.62877" lon="5.71225">
        <ele>850</ele>
        <time>2019-03-24T15:58:32.497Z</time>
      </trkpt>
      <trkpt lat="45.62855" lon="5.71235">
        <ele>851</ele>
        <time>2019-03-24T15:58:37.509Z</time>
      </trkpt>
      <trkpt lat="45.62828" lon="5.71242">
        <ele>852</ele>
        <time>2019-03-24T15:58:42.482Z</time>
      </trkpt>
      <trkpt lat="45.62805" lon="5.71248">
        <ele>856</ele>
        <time>2019-03-24T15:58:46.500Z</time>
      </trkpt>
      <trkpt lat="45.62783" lon="5.71247">
        <ele>858</ele>
        <time>2019-03-24T15:58:50.529Z</time>
      </trkpt>
      <trkpt lat="45.6276" lon="5.71255">
        <ele>858</ele>
        <time>2019-03-24T15:58:55.514Z</time>
      </trkpt>
      <trkpt lat="45.62722" lon="5.71278">
        <ele>858</ele>
        <time>2019-03-24T15:59:00.485Z</time>
      </trkpt>
      <trkpt lat="45.62706" lon="5.713">
        <ele>858</ele>
        <time>2019-03-24T15:59:04.509Z</time>
      </trkpt>
      <trkpt lat="45.62695" lon="5.71311">
        <ele>858</ele>
        <time>2019-03-24T15:59:09.491Z</time>
      </trkpt>
      <trkpt lat="45.62689" lon="5.71313">
        <ele>858</ele>
        <time>2019-03-24T15:59:14.485Z</time>
      </trkpt>
      <trkpt lat="45.62682" lon="5.71316">
        <ele>858</ele>
        <time>2019-03-24T15:59:18.499Z</time>
      </trkpt>
      <trkpt lat="45.62674" lon="5.71326">
        <ele>854</ele>
        <time>2019-03-24T15:59:23.491Z</time>
      </trkpt>
      <trkpt lat="45.6267" lon="5.71332">
        <ele>854</ele>
        <time>2019-03-24T15:59:27.531Z</time>
      </trkpt>
      <trkpt lat="45.62666" lon="5.71346">
        <ele>854</ele>
        <time>2019-03-24T15:59:32.532Z</time>
      </trkpt>
      <trkpt lat="45.62667" lon="5.71356">
        <ele>851</ele>
        <time>2019-03-24T15:59:37.503Z</time>
      </trkpt>
      <trkpt lat="45.6267" lon="5.7136">
        <ele>851</ele>
        <time>2019-03-24T15:59:42.512Z</time>
      </trkpt>
      <trkpt lat="45.62668" lon="5.71364">
        <ele>851</ele>
        <time>2019-03-24T15:59:46.523Z</time>
      </trkpt>
      <trkpt lat="45.62661" lon="5.71368">
        <ele>851</ele>
        <time>2019-03-24T15:59:51.495Z</time>
      </trkpt>
      <trkpt lat="45.62657" lon="5.71367">
        <ele>851</ele>
        <time>2019-03-24T15:59:55.543Z</time>
      </trkpt>
      <trkpt lat="45.62649" lon="5.71358">
        <ele>847</ele>
        <time>2019-03-24T16:00:00.488Z</time>
      </trkpt>
      <trkpt lat="45.62641" lon="5.71345">
        <ele>849</ele>
        <time>2019-03-24T16:00:05.488Z</time>
      </trkpt>
      <trkpt lat="45.62636" lon="5.71341">
        <ele>849</ele>
        <time>2019-03-24T16:00:09.525Z</time>
      </trkpt>
      <trkpt lat="45.62632" lon="5.7134">
        <ele>849</ele>
        <time>2019-03-24T16:00:14.511Z</time>
      </trkpt>
      <trkpt lat="45.62627" lon="5.71342">
        <ele>849</ele>
        <time>2019-03-24T16:00:19.500Z</time>
      </trkpt>
      <trkpt lat="45.62623" lon="5.71348">
        <ele>844</ele>
        <time>2019-03-24T16:00:23.508Z</time>
      </trkpt>
      <trkpt lat="45.62614" lon="5.71353">
        <ele>844</ele>
        <time>2019-03-24T16:00:28.509Z</time>
      </trkpt>
      <trkpt lat="45.62608" lon="5.7136">
        <ele>844</ele>
        <time>2019-03-24T16:00:32.512Z</time>
      </trkpt>
      <trkpt lat="45.626" lon="5.71376">
        <ele>844</ele>
        <time>2019-03-24T16:00:36.535Z</time>
      </trkpt>
      <trkpt lat="45.62602" lon="5.71399">
        <ele>844</ele>
        <time>2019-03-24T16:00:41.500Z</time>
      </trkpt>
      <trkpt lat="45.62616" lon="5.71424">
        <ele>843</ele>
        <time>2019-03-24T16:00:45.515Z</time>
      </trkpt>
      <trkpt lat="45.62629" lon="5.7145">
        <ele>845</ele>
        <time>2019-03-24T16:00:50.519Z</time>
      </trkpt>
      <trkpt lat="45.62639" lon="5.71462">
        <ele>839</ele>
        <time>2019-03-24T16:00:54.523Z</time>
      </trkpt>
      <trkpt lat="45.62652" lon="5.71473">
        <ele>839</ele>
        <time>2019-03-24T16:00:58.535Z</time>
      </trkpt>
      <trkpt lat="45.62667" lon="5.71491">
        <ele>832</ele>
        <time>2019-03-24T16:01:03.527Z</time>
      </trkpt>
      <trkpt lat="45.62676" lon="5.71501">
        <ele>832</ele>
        <time>2019-03-24T16:01:08.510Z</time>
      </trkpt>
      <trkpt lat="45.62682" lon="5.71511">
        <ele>832</ele>
        <time>2019-03-24T16:01:13.502Z</time>
      </trkpt>
      <trkpt lat="45.62682" lon="5.71518">
        <ele>829</ele>
        <time>2019-03-24T16:01:18.525Z</time>
      </trkpt>
      <trkpt lat="45.62689" lon="5.71516">
        <ele>829</ele>
        <time>2019-03-24T16:01:22.531Z</time>
      </trkpt>
      <trkpt lat="45.62703" lon="5.71508">
        <ele>832</ele>
        <time>2019-03-24T16:01:27.499Z</time>
      </trkpt>
      <trkpt lat="45.62719" lon="5.71506">
        <ele>834</ele>
        <time>2019-03-24T16:01:31.502Z</time>
      </trkpt>
      <trkpt lat="45.6274" lon="5.71502">
        <ele>834</ele>
        <time>2019-03-24T16:01:36.490Z</time>
      </trkpt>
      <trkpt lat="45.62745" lon="5.715">
        <ele>834</ele>
        <time>2019-03-24T16:01:40.529Z</time>
      </trkpt>
      <trkpt lat="45.62756" lon="5.71493">
        <ele>834</ele>
        <time>2019-03-24T16:01:45.531Z</time>
      </trkpt>
      <trkpt lat="45.62769" lon="5.7149">
        <ele>832</ele>
        <time>2019-03-24T16:01:50.510Z</time>
      </trkpt>
      <trkpt lat="45.6278" lon="5.71489">
        <ele>832</ele>
        <time>2019-03-24T16:01:55.490Z</time>
      </trkpt>
      <trkpt lat="45.62784" lon="5.71489">
        <ele>832</ele>
        <time>2019-03-24T16:01:59.519Z</time>
      </trkpt>
      <trkpt lat="45.62794" lon="5.71482">
        <ele>831</ele>
        <time>2019-03-24T16:02:04.514Z</time>
      </trkpt>
      <trkpt lat="45.628" lon="5.71475">
        <ele>831</ele>
        <time>2019-03-24T16:02:08.521Z</time>
      </trkpt>
      <trkpt lat="45.62806" lon="5.71464">
        <ele>831</ele>
        <time>2019-03-24T16:02:13.498Z</time>
      </trkpt>
      <trkpt lat="45.62807" lon="5.71457">
        <ele>833</ele>
        <time>2019-03-24T16:02:17.515Z</time>
      </trkpt>
      <trkpt lat="45.62813" lon="5.7145">
        <ele>833</ele>
        <time>2019-03-24T16:02:22.493Z</time>
      </trkpt>
      <trkpt lat="45.62818" lon="5.7144">
        <ele>833</ele>
        <time>2019-03-24T16:02:27.518Z</time>
      </trkpt>
      <trkpt lat="45.62822" lon="5.71433">
        <ele>829</ele>
        <time>2019-03-24T16:02:32.505Z</time>
      </trkpt>
      <trkpt lat="45.62829" lon="5.71431">
        <ele>829</ele>
        <time>2019-03-24T16:02:37.520Z</time>
      </trkpt>
      <trkpt lat="45.62836" lon="5.7143">
        <ele>831</ele>
        <time>2019-03-24T16:02:42.510Z</time>
      </trkpt>
      <trkpt lat="45.6284" lon="5.7143">
        <ele>831</ele>
        <time>2019-03-24T16:02:47.501Z</time>
      </trkpt>
      <trkpt lat="45.62848" lon="5.71428">
        <ele>829</ele>
        <time>2019-03-24T16:02:52.517Z</time>
      </trkpt>
      <trkpt lat="45.62854" lon="5.71426">
        <ele>829</ele>
        <time>2019-03-24T16:02:57.545Z</time>
      </trkpt>
      <trkpt lat="45.62871" lon="5.7144">
        <ele>826</ele>
        <time>2019-03-24T16:03:02.514Z</time>
      </trkpt>
      <trkpt lat="45.62878" lon="5.71446">
        <ele>822</ele>
        <time>2019-03-24T16:03:06.533Z</time>
      </trkpt>
      <trkpt lat="45.62884" lon="5.71453">
        <ele>822</ele>
        <time>2019-03-24T16:03:11.527Z</time>
      </trkpt>
      <trkpt lat="45.62891" lon="5.71455">
        <ele>822</ele>
        <time>2019-03-24T16:03:16.499Z</time>
      </trkpt>
      <trkpt lat="45.62895" lon="5.71451">
        <ele>822</ele>
        <time>2019-03-24T16:03:20.523Z</time>
      </trkpt>
      <trkpt lat="45.62899" lon="5.71444">
        <ele>822</ele>
        <time>2019-03-24T16:03:25.520Z</time>
      </trkpt>
      <trkpt lat="45.62908" lon="5.7144">
        <ele>817</ele>
        <time>2019-03-24T16:03:30.489Z</time>
      </trkpt>
      <trkpt lat="45.62916" lon="5.71437">
        <ele>817</ele>
        <time>2019-03-24T16:03:35.511Z</time>
      </trkpt>
      <trkpt lat="45.62919" lon="5.71437">
        <ele>817</ele>
        <time>2019-03-24T16:03:40.517Z</time>
      </trkpt>
      <trkpt lat="45.6292" lon="5.71445">
        <ele>817</ele>
        <time>2019-03-24T16:03:45.510Z</time>
      </trkpt>
      <trkpt lat="45.62919" lon="5.71452">
        <ele>817</ele>
        <time>2019-03-24T16:03:49.532Z</time>
      </trkpt>
      <trkpt lat="45.62921" lon="5.71459">
        <ele>815</ele>
        <time>2019-03-24T16:03:54.528Z</time>
      </trkpt>
      <trkpt lat="45.62926" lon="5.71475">
        <ele>815</ele>
        <time>2019-03-24T16:03:59.525Z</time>
      </trkpt>
      <trkpt lat="45.6293" lon="5.71485">
        <ele>815</ele>
        <time>2019-03-24T16:04:04.523Z</time>
      </trkpt>
      <trkpt lat="45.62932" lon="5.71496">
        <ele>810</ele>
        <time>2019-03-24T16:04:09.511Z</time>
      </trkpt>
      <trkpt lat="45.62932" lon="5.71504">
        <ele>810</ele>
        <time>2019-03-24T16:04:14.491Z</time>
      </trkpt>
      <trkpt lat="45.62933" lon="5.71511">
        <ele>810</ele>
        <time>2019-03-24T16:04:18.505Z</time>
      </trkpt>
      <trkpt lat="45.62933" lon="5.71522">
        <ele>810</ele>
        <time>2019-03-24T16:04:23.491Z</time>
      </trkpt>
      <trkpt lat="45.62933" lon="5.71532">
        <ele>810</ele>
        <time>2019-03-24T16:04:28.530Z</time>
      </trkpt>
      <trkpt lat="45.62935" lon="5.71542">
        <ele>810</ele>
        <time>2019-03-24T16:04:33.503Z</time>
      </trkpt>
      <trkpt lat="45.62942" lon="5.71554">
        <ele>810</ele>
        <time>2019-03-24T16:04:38.500Z</time>
      </trkpt>
      <trkpt lat="45.62949" lon="5.71562">
        <ele>810</ele>
        <time>2019-03-24T16:04:42.525Z</time>
      </trkpt>
      <trkpt lat="45.62959" lon="5.71568">
        <ele>808</ele>
        <time>2019-03-24T16:04:47.495Z</time>
      </trkpt>
      <trkpt lat="45.62965" lon="5.71569">
        <ele>808</ele>
        <time>2019-03-24T16:04:51.518Z</time>
      </trkpt>
      <trkpt lat="45.62971" lon="5.71571">
        <ele>806</ele>
        <time>2019-03-24T16:04:55.546Z</time>
      </trkpt>
      <trkpt lat="45.62978" lon="5.71572">
        <ele>806</ele>
        <time>2019-03-24T16:05:00.488Z</time>
      </trkpt>
      <trkpt lat="45.62985" lon="5.71572">
        <ele>806</ele>
        <time>2019-03-24T16:05:05.508Z</time>
      </trkpt>
      <trkpt lat="45.62989" lon="5.71575">
        <ele>802</ele>
        <time>2019-03-24T16:05:10.490Z</time>
      </trkpt>
      <trkpt lat="45.62993" lon="5.7158">
        <ele>802</ele>
        <time>2019-03-24T16:05:14.513Z</time>
      </trkpt>
      <trkpt lat="45.63" lon="5.71588">
        <ele>802</ele>
        <time>2019-03-24T16:05:19.520Z</time>
      </trkpt>
      <trkpt lat="45.63011" lon="5.71597">
        <ele>802</ele>
        <time>2019-03-24T16:05:23.530Z</time>
      </trkpt>
      <trkpt lat="45.6302" lon="5.71609">
        <ele>800</ele>
        <time>2019-03-24T16:05:28.532Z</time>
      </trkpt>
      <trkpt lat="45.63037" lon="5.71629">
        <ele>799</ele>
        <time>2019-03-24T16:05:33.502Z</time>
      </trkpt>
      <trkpt lat="45.63048" lon="5.7165">
        <ele>802</ele>
        <time>2019-03-24T16:05:37.547Z</time>
      </trkpt>
      <trkpt lat="45.63051" lon="5.71657">
        <ele>799</ele>
        <time>2019-03-24T16:05:42.518Z</time>
      </trkpt>
      <trkpt lat="45.63053" lon="5.71663">
        <ele>799</ele>
        <time>2019-03-24T16:05:46.539Z</time>
      </trkpt>
      <trkpt lat="45.63056" lon="5.71666">
        <ele>799</ele>
        <time>2019-03-24T16:05:51.492Z</time>
      </trkpt>
      <trkpt lat="45.63055" lon="5.7167">
        <ele>799</ele>
        <time>2019-03-24T16:05:55.512Z</time>
      </trkpt>
      <trkpt lat="45.63056" lon="5.71675">
        <ele>799</ele>
        <time>2019-03-24T16:06:00.493Z</time>
      </trkpt>
      <trkpt lat="45.63056" lon="5.7168">
        <ele>799</ele>
        <time>2019-03-24T16:06:05.488Z</time>
      </trkpt>
      <trkpt lat="45.63057" lon="5.71683">
        <ele>793</ele>
        <time>2019-03-24T16:06:09.514Z</time>
      </trkpt>
      <trkpt lat="45.6306" lon="5.7169">
        <ele>793</ele>
        <time>2019-03-24T16:06:14.501Z</time>
      </trkpt>
      <trkpt lat="45.63063" lon="5.71695">
        <ele>793</ele>
        <time>2019-03-24T16:06:19.500Z</time>
      </trkpt>
      <trkpt lat="45.63066" lon="5.717">
        <ele>793</ele>
        <time>2019-03-24T16:06:24.508Z</time>
      </trkpt>
      <trkpt lat="45.63068" lon="5.71707">
        <ele>793</ele>
        <time>2019-03-24T16:06:29.513Z</time>
      </trkpt>
      <trkpt lat="45.6307" lon="5.71712">
        <ele>788</ele>
        <time>2019-03-24T16:06:34.510Z</time>
      </trkpt>
      <trkpt lat="45.63074" lon="5.71719">
        <ele>788</ele>
        <time>2019-03-24T16:06:39.511Z</time>
      </trkpt>
      <trkpt lat="45.63075" lon="5.71727">
        <ele>788</ele>
        <time>2019-03-24T16:06:44.518Z</time>
      </trkpt>
      <trkpt lat="45.63075" lon="5.71732">
        <ele>788</ele>
        <time>2019-03-24T16:06:49.531Z</time>
      </trkpt>
      <trkpt lat="45.63075" lon="5.71736">
        <ele>783</ele>
        <time>2019-03-24T16:06:54.510Z</time>
      </trkpt>
      <trkpt lat="45.63071" lon="5.71744">
        <ele>783</ele>
        <time>2019-03-24T16:06:59.517Z</time>
      </trkpt>
      <trkpt lat="45.63069" lon="5.71748">
        <ele>780</ele>
        <time>2019-03-24T16:07:04.501Z</time>
      </trkpt>
      <trkpt lat="45.63064" lon="5.71753">
        <ele>780</ele>
        <time>2019-03-24T16:07:08.530Z</time>
      </trkpt>
      <trkpt lat="45.63059" lon="5.71758">
        <ele>780</ele>
        <time>2019-03-24T16:07:12.528Z</time>
      </trkpt>
      <trkpt lat="45.63052" lon="5.71766">
        <ele>777</ele>
        <time>2019-03-24T16:07:17.511Z</time>
      </trkpt>
      <trkpt lat="45.63046" lon="5.71775">
        <ele>777</ele>
        <time>2019-03-24T16:07:22.514Z</time>
      </trkpt>
      <trkpt lat="45.63041" lon="5.71786">
        <ele>779</ele>
        <time>2019-03-24T16:07:27.502Z</time>
      </trkpt>
      <trkpt lat="45.63035" lon="5.71794">
        <ele>776</ele>
        <time>2019-03-24T16:07:31.550Z</time>
      </trkpt>
      <trkpt lat="45.63028" lon="5.718">
        <ele>776</ele>
        <time>2019-03-24T16:07:36.495Z</time>
      </trkpt>
      <trkpt lat="45.63023" lon="5.71805">
        <ele>776</ele>
        <time>2019-03-24T16:07:40.520Z</time>
      </trkpt>
      <trkpt lat="45.63017" lon="5.7181">
        <ele>776</ele>
        <time>2019-03-24T16:07:45.524Z</time>
      </trkpt>
      <trkpt lat="45.63011" lon="5.71817">
        <ele>778</ele>
        <time>2019-03-24T16:07:50.530Z</time>
      </trkpt>
      <trkpt lat="45.63004" lon="5.71824">
        <ele>774</ele>
        <time>2019-03-24T16:07:54.546Z</time>
      </trkpt>
      <trkpt lat="45.62999" lon="5.71827">
        <ele>774</ele>
        <time>2019-03-24T16:07:59.511Z</time>
      </trkpt>
      <trkpt lat="45.62992" lon="5.71832">
        <ele>774</ele>
        <time>2019-03-24T16:08:04.497Z</time>
      </trkpt>
      <trkpt lat="45.62987" lon="5.71835">
        <ele>774</ele>
        <time>2019-03-24T16:08:08.512Z</time>
      </trkpt>
      <trkpt lat="45.6298" lon="5.71841">
        <ele>774</ele>
        <time>2019-03-24T16:08:13.500Z</time>
      </trkpt>
      <trkpt lat="45.62974" lon="5.71846">
        <ele>774</ele>
        <time>2019-03-24T16:08:18.511Z</time>
      </trkpt>
      <trkpt lat="45.62967" lon="5.71852">
        <ele>769</ele>
        <time>2019-03-24T16:08:23.533Z</time>
      </trkpt>
      <trkpt lat="45.62959" lon="5.71863">
        <ele>769</ele>
        <time>2019-03-24T16:08:28.503Z</time>
      </trkpt>
      <trkpt lat="45.62954" lon="5.71868">
        <ele>770</ele>
        <time>2019-03-24T16:08:32.528Z</time>
      </trkpt>
      <trkpt lat="45.62948" lon="5.71873">
        <ele>770</ele>
        <time>2019-03-24T16:08:37.527Z</time>
      </trkpt>
      <trkpt lat="45.62941" lon="5.71877">
        <ele>765</ele>
        <time>2019-03-24T16:08:42.509Z</time>
      </trkpt>
      <trkpt lat="45.62936" lon="5.71882">
        <ele>765</ele>
        <time>2019-03-24T16:08:47.521Z</time>
      </trkpt>
      <trkpt lat="45.6293" lon="5.71887">
        <ele>766</ele>
        <time>2019-03-24T16:08:52.496Z</time>
      </trkpt>
      <trkpt lat="45.62926" lon="5.71889">
        <ele>766</ele>
        <time>2019-03-24T16:08:56.500Z</time>
      </trkpt>
      <trkpt lat="45.62922" lon="5.7189">
        <ele>766</ele>
        <time>2019-03-24T16:09:01.495Z</time>
      </trkpt>
      <trkpt lat="45.62914" lon="5.71893">
        <ele>766</ele>
        <time>2019-03-24T16:09:06.526Z</time>
      </trkpt>
      <trkpt lat="45.62905" lon="5.71898">
        <ele>766</ele>
        <time>2019-03-24T16:09:11.515Z</time>
      </trkpt>
      <trkpt lat="45.62896" lon="5.71909">
        <ele>761</ele>
        <time>2019-03-24T16:09:16.502Z</time>
      </trkpt>
      <trkpt lat="45.62891" lon="5.71916">
        <ele>761</ele>
        <time>2019-03-24T16:09:20.529Z</time>
      </trkpt>
      <trkpt lat="45.6289" lon="5.71916">
        <ele>761</ele>
        <time>2019-03-24T16:09:25.507Z</time>
      </trkpt>
      <trkpt lat="45.62888" lon="5.71916">
        <ele>761</ele>
        <time>2019-03-24T16:09:30.509Z</time>
      </trkpt>
      <trkpt lat="45.6288" lon="5.71921">
        <ele>761</ele>
        <time>2019-03-24T16:09:35.504Z</time>
      </trkpt>
      <trkpt lat="45.62871" lon="5.71925">
        <ele>762</ele>
        <time>2019-03-24T16:09:40.499Z</time>
      </trkpt>
      <trkpt lat="45.62861" lon="5.71929">
        <ele>762</ele>
        <time>2019-03-24T16:09:44.517Z</time>
      </trkpt>
      <trkpt lat="45.62851" lon="5.71937">
        <ele>757</ele>
        <time>2019-03-24T16:09:49.498Z</time>
      </trkpt>
      <trkpt lat="45.62842" lon="5.71944">
        <ele>758</ele>
        <time>2019-03-24T16:09:53.519Z</time>
      </trkpt>
      <trkpt lat="45.62832" lon="5.71954">
        <ele>758</ele>
        <time>2019-03-24T16:09:58.531Z</time>
      </trkpt>
      <trkpt lat="45.62824" lon="5.71962">
        <ele>753</ele>
        <time>2019-03-24T16:10:03.505Z</time>
      </trkpt>
      <trkpt lat="45.62815" lon="5.71964">
        <ele>755</ele>
        <time>2019-03-24T16:10:08.509Z</time>
      </trkpt>
      <trkpt lat="45.6281" lon="5.7197">
        <ele>755</ele>
        <time>2019-03-24T16:10:12.521Z</time>
      </trkpt>
      <trkpt lat="45.62803" lon="5.71974">
        <ele>755</ele>
        <time>2019-03-24T16:10:17.522Z</time>
      </trkpt>
      <trkpt lat="45.62795" lon="5.71978">
        <ele>755</ele>
        <time>2019-03-24T16:10:22.503Z</time>
      </trkpt>
      <trkpt lat="45.62789" lon="5.71983">
        <ele>756</ele>
        <time>2019-03-24T16:10:27.511Z</time>
      </trkpt>
      <trkpt lat="45.62785" lon="5.71991">
        <ele>757</ele>
        <time>2019-03-24T16:10:32.501Z</time>
      </trkpt>
      <trkpt lat="45.62781" lon="5.71998">
        <ele>757</ele>
        <time>2019-03-24T16:10:37.488Z</time>
      </trkpt>
      <trkpt lat="45.6278" lon="5.72003">
        <ele>757</ele>
        <time>2019-03-24T16:10:41.527Z</time>
      </trkpt>
      <trkpt lat="45.62781" lon="5.7201">
        <ele>757</ele>
        <time>2019-03-24T16:10:46.484Z</time>
      </trkpt>
      <trkpt lat="45.62784" lon="5.72012">
        <ele>757</ele>
        <time>2019-03-24T16:10:50.542Z</time>
      </trkpt>
      <trkpt lat="45.62791" lon="5.72017">
        <ele>759</ele>
        <time>2019-03-24T16:10:55.514Z</time>
      </trkpt>
      <trkpt lat="45.62799" lon="5.72029">
        <ele>756</ele>
        <time>2019-03-24T16:11:00.488Z</time>
      </trkpt>
      <trkpt lat="45.62803" lon="5.7203">
        <ele>756</ele>
        <time>2019-03-24T16:11:05.493Z</time>
      </trkpt>
      <trkpt lat="45.62806" lon="5.72028">
        <ele>756</ele>
        <time>2019-03-24T16:11:09.513Z</time>
      </trkpt>
      <trkpt lat="45.6281" lon="5.72031">
        <ele>756</ele>
        <time>2019-03-24T16:11:14.525Z</time>
      </trkpt>
      <trkpt lat="45.62821" lon="5.72037">
        <ele>749</ele>
        <time>2019-03-24T16:11:19.504Z</time>
      </trkpt>
      <trkpt lat="45.62827" lon="5.72042">
        <ele>747</ele>
        <time>2019-03-24T16:11:24.526Z</time>
      </trkpt>
      <trkpt lat="45.62828" lon="5.72045">
        <ele>747</ele>
        <time>2019-03-24T16:11:29.540Z</time>
      </trkpt>
      <trkpt lat="45.62834" lon="5.72047">
        <ele>747</ele>
        <time>2019-03-24T16:11:34.508Z</time>
      </trkpt>
      <trkpt lat="45.62837" lon="5.72051">
        <ele>747</ele>
        <time>2019-03-24T16:11:38.527Z</time>
      </trkpt>
      <trkpt lat="45.6284" lon="5.72056">
        <ele>747</ele>
        <time>2019-03-24T16:11:43.488Z</time>
      </trkpt>
      <trkpt lat="45.62841" lon="5.72057">
        <ele>747</ele>
        <time>2019-03-24T16:11:47.551Z</time>
      </trkpt>
      <trkpt lat="45.62844" lon="5.7206">
        <ele>747</ele>
        <time>2019-03-24T16:11:52.506Z</time>
      </trkpt>
      <trkpt lat="45.62849" lon="5.72066">
        <ele>739</ele>
        <time>2019-03-24T16:11:57.509Z</time>
      </trkpt>
      <trkpt lat="45.62855" lon="5.72072">
        <ele>733</ele>
        <time>2019-03-24T16:12:01.530Z</time>
      </trkpt>
      <trkpt lat="45.62863" lon="5.72075">
        <ele>733</ele>
        <time>2019-03-24T16:12:06.509Z</time>
      </trkpt>
      <trkpt lat="45.62869" lon="5.72077">
        <ele>733</ele>
        <time>2019-03-24T16:12:10.521Z</time>
      </trkpt>
      <trkpt lat="45.62878" lon="5.72094">
        <ele>730</ele>
        <time>2019-03-24T16:13:01.512Z</time>
      </trkpt>
      <trkpt lat="45.62882" lon="5.72095">
        <ele>730</ele>
        <time>2019-03-24T16:13:06.507Z</time>
      </trkpt>
      <trkpt lat="45.62885" lon="5.72094">
        <ele>730</ele>
        <time>2019-03-24T16:13:11.491Z</time>
      </trkpt>
      <trkpt lat="45.62888" lon="5.72094">
        <ele>730</ele>
        <time>2019-03-24T16:13:15.503Z</time>
      </trkpt>
      <trkpt lat="45.62892" lon="5.72096">
        <ele>730</ele>
        <time>2019-03-24T16:13:20.495Z</time>
      </trkpt>
      <trkpt lat="45.62893" lon="5.72096">
        <ele>730</ele>
        <time>2019-03-24T16:13:24.543Z</time>
      </trkpt>
      <trkpt lat="45.62895" lon="5.72095">
        <ele>730</ele>
        <time>2019-03-24T16:13:29.513Z</time>
      </trkpt>
      <trkpt lat="45.62899" lon="5.72096">
        <ele>730</ele>
        <time>2019-03-24T16:13:34.520Z</time>
      </trkpt>
      <trkpt lat="45.62903" lon="5.72094">
        <ele>725</ele>
        <time>2019-03-24T16:13:39.500Z</time>
      </trkpt>
      <trkpt lat="45.62906" lon="5.72093">
        <ele>725</ele>
        <time>2019-03-24T16:13:43.526Z</time>
      </trkpt>
      <trkpt lat="45.62912" lon="5.72093">
        <ele>725</ele>
        <time>2019-03-24T16:13:48.486Z</time>
      </trkpt>
      <trkpt lat="45.62921" lon="5.72092">
        <ele>725</ele>
        <time>2019-03-24T16:13:53.486Z</time>
      </trkpt>
      <trkpt lat="45.62924" lon="5.72095">
        <ele>725</ele>
        <time>2019-03-24T16:13:57.517Z</time>
      </trkpt>
      <trkpt lat="45.62932" lon="5.72095">
        <ele>720</ele>
        <time>2019-03-24T16:14:02.509Z</time>
      </trkpt>
      <trkpt lat="45.6294" lon="5.72094">
        <ele>720</ele>
        <time>2019-03-24T16:14:07.485Z</time>
      </trkpt>
      <trkpt lat="45.62945" lon="5.72096">
        <ele>720</ele>
        <time>2019-03-24T16:14:11.532Z</time>
      </trkpt>
      <trkpt lat="45.6295" lon="5.72096">
        <ele>720</ele>
        <time>2019-03-24T16:14:16.495Z</time>
      </trkpt>
      <trkpt lat="45.62952" lon="5.72096">
        <ele>720</ele>
        <time>2019-03-24T16:14:20.508Z</time>
      </trkpt>
      <trkpt lat="45.62955" lon="5.72095">
        <ele>720</ele>
        <time>2019-03-24T16:14:25.520Z</time>
      </trkpt>
      <trkpt lat="45.62961" lon="5.72098">
        <ele>713</ele>
        <time>2019-03-24T16:14:30.521Z</time>
      </trkpt>
      <trkpt lat="45.62961" lon="5.72098">
        <ele>713</ele>
        <time>2019-03-24T16:14:35.518Z</time>
      </trkpt>
      <trkpt lat="45.62961" lon="5.72098">
        <ele>713</ele>
        <time>2019-03-24T16:14:39.544Z</time>
      </trkpt>
      <trkpt lat="45.62961" lon="5.72098">
        <ele>713</ele>
        <time>2019-03-24T16:14:44.512Z</time>
      </trkpt>
      <trkpt lat="45.62965" lon="5.721">
        <ele>713</ele>
        <time>2019-03-24T16:14:49.501Z</time>
      </trkpt>
      <trkpt lat="45.62971" lon="5.72103">
        <ele>713</ele>
        <time>2019-03-24T16:14:53.524Z</time>
      </trkpt>
      <trkpt lat="45.62976" lon="5.72103">
        <ele>713</ele>
        <time>2019-03-24T16:14:58.538Z</time>
      </trkpt>
      <trkpt lat="45.62978" lon="5.72112">
        <ele>713</ele>
        <time>2019-03-24T16:15:03.504Z</time>
      </trkpt>
      <trkpt lat="45.62977" lon="5.72117">
        <ele>713</ele>
        <time>2019-03-24T16:15:07.507Z</time>
      </trkpt>
      <trkpt lat="45.62974" lon="5.72121">
        <ele>713</ele>
        <time>2019-03-24T16:15:12.504Z</time>
      </trkpt>
      <trkpt lat="45.62969" lon="5.72129">
        <ele>710</ele>
        <time>2019-03-24T16:15:17.501Z</time>
      </trkpt>
      <trkpt lat="45.62966" lon="5.72135">
        <ele>710</ele>
        <time>2019-03-24T16:15:21.519Z</time>
      </trkpt>
      <trkpt lat="45.62961" lon="5.72143">
        <ele>710</ele>
        <time>2019-03-24T16:15:26.516Z</time>
      </trkpt>
      <trkpt lat="45.62958" lon="5.72146">
        <ele>713</ele>
        <time>2019-03-24T16:15:30.523Z</time>
      </trkpt>
      <trkpt lat="45.62954" lon="5.72157">
        <ele>709</ele>
        <time>2019-03-24T16:15:35.513Z</time>
      </trkpt>
      <trkpt lat="45.62949" lon="5.72164">
        <ele>709</ele>
        <time>2019-03-24T16:15:40.502Z</time>
      </trkpt>
      <trkpt lat="45.62946" lon="5.72169">
        <ele>709</ele>
        <time>2019-03-24T16:15:44.516Z</time>
      </trkpt>
      <trkpt lat="45.62942" lon="5.72174">
        <ele>709</ele>
        <time>2019-03-24T16:15:48.556Z</time>
      </trkpt>
      <trkpt lat="45.62941" lon="5.72178">
        <ele>709</ele>
        <time>2019-03-24T16:15:53.513Z</time>
      </trkpt>
      <trkpt lat="45.62941" lon="5.72179">
        <ele>709</ele>
        <time>2019-03-24T16:15:57.515Z</time>
      </trkpt>
      <trkpt lat="45.62939" lon="5.72187">
        <ele>703</ele>
        <time>2019-03-24T16:16:02.486Z</time>
      </trkpt>
      <trkpt lat="45.62936" lon="5.72195">
        <ele>703</ele>
        <time>2019-03-24T16:16:06.514Z</time>
      </trkpt>
      <trkpt lat="45.62933" lon="5.72202">
        <ele>703</ele>
        <time>2019-03-24T16:16:11.536Z</time>
      </trkpt>
      <trkpt lat="45.6293" lon="5.7221">
        <ele>703</ele>
        <time>2019-03-24T16:16:16.514Z</time>
      </trkpt>
      <trkpt lat="45.62927" lon="5.72213">
        <ele>703</ele>
        <time>2019-03-24T16:16:21.507Z</time>
      </trkpt>
      <trkpt lat="45.62925" lon="5.7222">
        <ele>703</ele>
        <time>2019-03-24T16:16:25.530Z</time>
      </trkpt>
      <trkpt lat="45.62922" lon="5.72229">
        <ele>703</ele>
        <time>2019-03-24T16:16:29.534Z</time>
      </trkpt>
      <trkpt lat="45.6292" lon="5.72243">
        <ele>699</ele>
        <time>2019-03-24T16:16:34.512Z</time>
      </trkpt>
      <trkpt lat="45.62919" lon="5.72254">
        <ele>699</ele>
        <time>2019-03-24T16:16:38.536Z</time>
      </trkpt>
      <trkpt lat="45.62919" lon="5.72266">
        <ele>697</ele>
        <time>2019-03-24T16:16:43.496Z</time>
      </trkpt>
      <trkpt lat="45.6292" lon="5.72272">
        <ele>697</ele>
        <time>2019-03-24T16:16:47.511Z</time>
      </trkpt>
      <trkpt lat="45.62915" lon="5.72279">
        <ele>697</ele>
        <time>2019-03-24T16:16:52.495Z</time>
      </trkpt>
      <trkpt lat="45.62912" lon="5.72284">
        <ele>697</ele>
        <time>2019-03-24T16:16:56.496Z</time>
      </trkpt>
      <trkpt lat="45.62904" lon="5.72299">
        <ele>696</ele>
        <time>2019-03-24T16:17:01.503Z</time>
      </trkpt>
      <trkpt lat="45.62896" lon="5.7231">
        <ele>697</ele>
        <time>2019-03-24T16:17:05.522Z</time>
      </trkpt>
      <trkpt lat="45.6289" lon="5.72321">
        <ele>697</ele>
        <time>2019-03-24T16:17:10.509Z</time>
      </trkpt>
      <trkpt lat="45.62886" lon="5.72329">
        <ele>697</ele>
        <time>2019-03-24T16:17:15.537Z</time>
      </trkpt>
      <trkpt lat="45.62881" lon="5.72338">
        <ele>697</ele>
        <time>2019-03-24T16:17:20.514Z</time>
      </trkpt>
      <trkpt lat="45.62877" lon="5.72344">
        <ele>697</ele>
        <time>2019-03-24T16:17:25.530Z</time>
      </trkpt>
      <trkpt lat="45.62874" lon="5.72351">
        <ele>696</ele>
        <time>2019-03-24T16:17:30.518Z</time>
      </trkpt>
      <trkpt lat="45.62869" lon="5.72356">
        <ele>696</ele>
        <time>2019-03-24T16:17:34.530Z</time>
      </trkpt>
      <trkpt lat="45.62863" lon="5.72365">
        <ele>696</ele>
        <time>2019-03-24T16:17:39.502Z</time>
      </trkpt>
      <trkpt lat="45.62858" lon="5.72376">
        <ele>693</ele>
        <time>2019-03-24T16:17:43.519Z</time>
      </trkpt>
      <trkpt lat="45.62851" lon="5.72389">
        <ele>693</ele>
        <time>2019-03-24T16:17:47.530Z</time>
      </trkpt>
      <trkpt lat="45.62845" lon="5.72397">
        <ele>695</ele>
        <time>2019-03-24T16:17:52.523Z</time>
      </trkpt>
      <trkpt lat="45.6284" lon="5.72407">
        <ele>692</ele>
        <time>2019-03-24T16:17:57.511Z</time>
      </trkpt>
      <trkpt lat="45.62833" lon="5.72412">
        <ele>692</ele>
        <time>2019-03-24T16:18:01.523Z</time>
      </trkpt>
      <trkpt lat="45.62827" lon="5.7242">
        <ele>692</ele>
        <time>2019-03-24T16:18:06.506Z</time>
      </trkpt>
      <trkpt lat="45.62822" lon="5.7243">
        <ele>692</ele>
        <time>2019-03-24T16:18:11.506Z</time>
      </trkpt>
      <trkpt lat="45.62817" lon="5.72436">
        <ele>689</ele>
        <time>2019-03-24T16:18:16.527Z</time>
      </trkpt>
      <trkpt lat="45.62813" lon="5.7244">
        <ele>689</ele>
        <time>2019-03-24T16:18:20.532Z</time>
      </trkpt>
      <trkpt lat="45.62808" lon="5.72444">
        <ele>689</ele>
        <time>2019-03-24T16:18:25.540Z</time>
      </trkpt>
      <trkpt lat="45.62801" lon="5.72449">
        <ele>689</ele>
        <time>2019-03-24T16:18:30.524Z</time>
      </trkpt>
      <trkpt lat="45.62789" lon="5.72455">
        <ele>689</ele>
        <time>2019-03-24T16:18:35.520Z</time>
      </trkpt>
      <trkpt lat="45.62776" lon="5.72458">
        <ele>684</ele>
        <time>2019-03-24T16:18:40.546Z</time>
      </trkpt>
      <trkpt lat="45.62769" lon="5.72463">
        <ele>684</ele>
        <time>2019-03-24T16:18:45.523Z</time>
      </trkpt>
      <trkpt lat="45.62759" lon="5.72467">
        <ele>685</ele>
        <time>2019-03-24T16:18:50.521Z</time>
      </trkpt>
      <trkpt lat="45.62752" lon="5.7247">
        <ele>685</ele>
        <time>2019-03-24T16:18:55.524Z</time>
      </trkpt>
      <trkpt lat="45.62745" lon="5.72474">
        <ele>685</ele>
        <time>2019-03-24T16:19:00.510Z</time>
      </trkpt>
      <trkpt lat="45.62738" lon="5.72479">
        <ele>685</ele>
        <time>2019-03-24T16:19:05.538Z</time>
      </trkpt>
      <trkpt lat="45.6273" lon="5.72483">
        <ele>689</ele>
        <time>2019-03-24T16:19:10.507Z</time>
      </trkpt>
      <trkpt lat="45.62725" lon="5.72488">
        <ele>684</ele>
        <time>2019-03-24T16:19:15.502Z</time>
      </trkpt>
      <trkpt lat="45.6272" lon="5.72494">
        <ele>684</ele>
        <time>2019-03-24T16:19:19.512Z</time>
      </trkpt>
      <trkpt lat="45.62713" lon="5.725">
        <ele>684</ele>
        <time>2019-03-24T16:19:24.516Z</time>
      </trkpt>
      <trkpt lat="45.62707" lon="5.72506">
        <ele>688</ele>
        <time>2019-03-24T16:19:29.521Z</time>
      </trkpt>
      <trkpt lat="45.62702" lon="5.72509">
        <ele>688</ele>
        <time>2019-03-24T16:19:33.539Z</time>
      </trkpt>
      <trkpt lat="45.62696" lon="5.72514">
        <ele>682</ele>
        <time>2019-03-24T16:19:38.511Z</time>
      </trkpt>
      <trkpt lat="45.62691" lon="5.72518">
        <ele>682</ele>
        <time>2019-03-24T16:19:43.521Z</time>
      </trkpt>
      <trkpt lat="45.62688" lon="5.72522">
        <ele>682</ele>
        <time>2019-03-24T16:19:48.542Z</time>
      </trkpt>
      <trkpt lat="45.62685" lon="5.72525">
        <ele>682</ele>
        <time>2019-03-24T16:19:53.531Z</time>
      </trkpt>
      <trkpt lat="45.62679" lon="5.72528">
        <ele>685</ele>
        <time>2019-03-24T16:19:58.532Z</time>
      </trkpt>
      <trkpt lat="45.62673" lon="5.72531">
        <ele>685</ele>
        <time>2019-03-24T16:20:03.537Z</time>
      </trkpt>
      <trkpt lat="45.62667" lon="5.72534">
        <ele>685</ele>
        <time>2019-03-24T16:20:08.507Z</time>
      </trkpt>
      <trkpt lat="45.62661" lon="5.7254">
        <ele>685</ele>
        <time>2019-03-24T16:20:13.510Z</time>
      </trkpt>
      <trkpt lat="45.62656" lon="5.72542">
        <ele>677</ele>
        <time>2019-03-24T16:20:17.524Z</time>
      </trkpt>
      <trkpt lat="45.6265" lon="5.72547">
        <ele>680</ele>
        <time>2019-03-24T16:20:22.529Z</time>
      </trkpt>
      <trkpt lat="45.62647" lon="5.72551">
        <ele>680</ele>
        <time>2019-03-24T16:20:27.508Z</time>
      </trkpt>
      <trkpt lat="45.62644" lon="5.72554">
        <ele>680</ele>
        <time>2019-03-24T16:20:31.515Z</time>
      </trkpt>
      <trkpt lat="45.62642" lon="5.7256">
        <ele>680</ele>
        <time>2019-03-24T16:20:35.529Z</time>
      </trkpt>
      <trkpt lat="45.62639" lon="5.72567">
        <ele>680</ele>
        <time>2019-03-24T16:20:40.538Z</time>
      </trkpt>
      <trkpt lat="45.62633" lon="5.7257">
        <ele>673</ele>
        <time>2019-03-24T16:20:45.538Z</time>
      </trkpt>
      <trkpt lat="45.62628" lon="5.72572">
        <ele>673</ele>
        <time>2019-03-24T16:20:50.501Z</time>
      </trkpt>
      <trkpt lat="45.62624" lon="5.72575">
        <ele>677</ele>
        <time>2019-03-24T16:20:54.543Z</time>
      </trkpt>
      <trkpt lat="45.62617" lon="5.7258">
        <ele>677</ele>
        <time>2019-03-24T16:20:59.542Z</time>
      </trkpt>
      <trkpt lat="45.62614" lon="5.72583">
        <ele>677</ele>
        <time>2019-03-24T16:21:04.518Z</time>
      </trkpt>
      <trkpt lat="45.62612" lon="5.72586">
        <ele>677</ele>
        <time>2019-03-24T16:21:09.529Z</time>
      </trkpt>
      <trkpt lat="45.62603" lon="5.72593">
        <ele>677</ele>
        <time>2019-03-24T16:21:18.551Z</time>
      </trkpt>
      <trkpt lat="45.62601" lon="5.72595">
        <ele>677</ele>
        <time>2019-03-24T16:21:23.504Z</time>
      </trkpt>
      <trkpt lat="45.62601" lon="5.72595">
        <ele>677</ele>
        <time>2019-03-24T16:21:27.514Z</time>
      </trkpt>
      <trkpt lat="45.626" lon="5.72595">
        <ele>677</ele>
        <time>2019-03-24T16:21:32.510Z</time>
      </trkpt>
      <trkpt lat="45.62597" lon="5.72597">
        <ele>680</ele>
        <time>2019-03-24T16:21:36.525Z</time>
      </trkpt>
      <trkpt lat="45.62593" lon="5.72602">
        <ele>672</ele>
        <time>2019-03-24T16:21:41.504Z</time>
      </trkpt>
      <trkpt lat="45.62588" lon="5.72606">
        <ele>672</ele>
        <time>2019-03-24T16:21:46.493Z</time>
      </trkpt>
      <trkpt lat="45.62586" lon="5.72609">
        <ele>672</ele>
        <time>2019-03-24T16:21:50.534Z</time>
      </trkpt>
      <trkpt lat="45.6258" lon="5.72614">
        <ele>672</ele>
        <time>2019-03-24T16:21:55.504Z</time>
      </trkpt>
      <trkpt lat="45.62576" lon="5.72618">
        <ele>672</ele>
        <time>2019-03-24T16:21:59.538Z</time>
      </trkpt>
      <trkpt lat="45.62572" lon="5.7262">
        <ele>672</ele>
        <time>2019-03-24T16:22:04.497Z</time>
      </trkpt>
      <trkpt lat="45.62568" lon="5.72624">
        <ele>675</ele>
        <time>2019-03-24T16:22:09.491Z</time>
      </trkpt>
      <trkpt lat="45.6256" lon="5.7263">
        <ele>667</ele>
        <time>2019-03-24T16:22:14.500Z</time>
      </trkpt>
      <trkpt lat="45.62556" lon="5.72635">
        <ele>667</ele>
        <time>2019-03-24T16:22:19.502Z</time>
      </trkpt>
      <trkpt lat="45.6256" lon="5.72636">
        <ele>667</ele>
        <time>2019-03-24T16:22:23.524Z</time>
      </trkpt>
      <trkpt lat="45.62564" lon="5.72637">
        <ele>667</ele>
        <time>2019-03-24T16:22:28.516Z</time>
      </trkpt>
      <trkpt lat="45.62565" lon="5.72638">
        <ele>667</ele>
        <time>2019-03-24T16:22:32.525Z</time>
      </trkpt>
      <trkpt lat="45.62568" lon="5.72637">
        <ele>667</ele>
        <time>2019-03-24T16:22:37.485Z</time>
      </trkpt>
      <trkpt lat="45.62574" lon="5.72634">
        <ele>665</ele>
        <time>2019-03-24T16:22:41.503Z</time>
      </trkpt>
      <trkpt lat="45.62579" lon="5.72632">
        <ele>665</ele>
        <time>2019-03-24T16:22:45.519Z</time>
      </trkpt>
      <trkpt lat="45.62586" lon="5.7263">
        <ele>665</ele>
        <time>2019-03-24T16:22:50.513Z</time>
      </trkpt>
      <trkpt lat="45.62594" lon="5.72629">
        <ele>665</ele>
        <time>2019-03-24T16:22:55.508Z</time>
      </trkpt>
      <trkpt lat="45.62601" lon="5.72627">
        <ele>664</ele>
        <time>2019-03-24T16:23:00.486Z</time>
      </trkpt>
      <trkpt lat="45.62607" lon="5.72626">
        <ele>664</ele>
        <time>2019-03-24T16:23:05.503Z</time>
      </trkpt>
      <trkpt lat="45.62614" lon="5.72625">
        <ele>670</ele>
        <time>2019-03-24T16:23:10.527Z</time>
      </trkpt>
      <trkpt lat="45.62623" lon="5.72622">
        <ele>670</ele>
        <time>2019-03-24T16:23:15.502Z</time>
      </trkpt>
      <trkpt lat="45.62627" lon="5.72623">
        <ele>668</ele>
        <time>2019-03-24T16:23:19.507Z</time>
      </trkpt>
      <trkpt lat="45.62633" lon="5.72622">
        <ele>668</ele>
        <time>2019-03-24T16:23:23.524Z</time>
      </trkpt>
      <trkpt lat="45.6264" lon="5.7262">
        <ele>668</ele>
        <time>2019-03-24T16:23:28.529Z</time>
      </trkpt>
      <trkpt lat="45.62648" lon="5.72618">
        <ele>668</ele>
        <time>2019-03-24T16:23:33.499Z</time>
      </trkpt>
      <trkpt lat="45.62657" lon="5.7263">
        <ele>659</ele>
        <time>2019-03-24T16:23:56.524Z</time>
      </trkpt>
      <trkpt lat="45.6265" lon="5.72633">
        <ele>662</ele>
        <time>2019-03-24T16:24:01.507Z</time>
      </trkpt>
      <trkpt lat="45.62642" lon="5.72641">
        <ele>662</ele>
        <time>2019-03-24T16:24:06.541Z</time>
      </trkpt>
      <trkpt lat="45.62638" lon="5.72652">
        <ele>662</ele>
        <time>2019-03-24T16:24:11.512Z</time>
      </trkpt>
      <trkpt lat="45.62637" lon="5.7266">
        <ele>658</ele>
        <time>2019-03-24T16:24:16.506Z</time>
      </trkpt>
      <trkpt lat="45.62639" lon="5.7266">
        <ele>658</ele>
        <time>2019-03-24T16:25:03.482Z</time>
      </trkpt>
      <trkpt lat="45.62638" lon="5.72659">
        <ele>658</ele>
        <time>2019-03-24T16:25:07.518Z</time>
      </trkpt>
      <trkpt lat="45.62637" lon="5.72657">
        <ele>658</ele>
        <time>2019-03-24T16:25:12.479Z</time>
      </trkpt>
      <trkpt lat="45.62637" lon="5.72656">
        <ele>658</ele>
        <time>2019-03-24T16:25:14.492Z</time>
      </trkpt>
      <trkpt lat="45.62624" lon="5.72653">
        <ele>664</ele>
        <time>2019-03-24T16:56:47.458Z</time>
      </trkpt>
    </trkseg>
  </trk>
</gpx>